<?xml version="1.0" encoding="UTF-8" standalone="no" ?>
<gpx xmlns="http://www.topografix.com/GPX/1/1" xmlns:xsi="http://www.w3.org/2001/XMLSchema-instance" xsi:schemaLocation="http://www.topografix.com/GPX/1/1 http://www.topografix.com/GPX/1/1/gpx.xsd" version="1.1" creator="VisuGPX - https://www.visugpx.com">
  <metadata>
    <name>2016-02-15 Arches Etroite et Miracle</name>
    <desc><![CDATA[Visite hivernale aux deux arches les plus septentrionales du secteur de Marcieu]]></desc>
  </metadata>
  <trk>
    <name><![CDATA[2016-02-15 Arches étroite et miracle]]></name>
    <trkseg>
      <trkpt lat="45.35586" lon="5.91898">
        <ele>1081</ele>
        <time>2016-02-15T07:48:18Z</time>
      </trkpt>
      <trkpt lat="45.35589" lon="5.91898">
        <ele>1081</ele>
        <time>2016-02-15T07:48:23Z</time>
      </trkpt>
      <trkpt lat="45.35589" lon="5.91901">
        <ele>1081</ele>
        <time>2016-02-15T07:48:34Z</time>
      </trkpt>
      <trkpt lat="45.35588" lon="5.919">
        <ele>1081</ele>
        <time>2016-02-15T07:48:38Z</time>
      </trkpt>
      <trkpt lat="45.35587" lon="5.91902">
        <ele>1081</ele>
        <time>2016-02-15T07:48:48Z</time>
      </trkpt>
      <trkpt lat="45.35587" lon="5.91903">
        <ele>1081</ele>
        <time>2016-02-15T07:48:53Z</time>
      </trkpt>
      <trkpt lat="45.35587" lon="5.91903">
        <ele>1081</ele>
        <time>2016-02-15T07:49:03Z</time>
      </trkpt>
      <trkpt lat="45.35587" lon="5.91903">
        <ele>1081</ele>
        <time>2016-02-15T07:49:08Z</time>
      </trkpt>
      <trkpt lat="45.35587" lon="5.91903">
        <ele>1074.393058012</ele>
        <time>2016-02-15T07:49:18Z</time>
      </trkpt>
      <trkpt lat="45.35587" lon="5.91903">
        <ele>1074.393058012</ele>
        <time>2016-02-15T07:49:23Z</time>
      </trkpt>
      <trkpt lat="45.35587" lon="5.91903">
        <ele>1074.393058012</ele>
        <time>2016-02-15T07:49:38Z</time>
      </trkpt>
      <trkpt lat="45.35587" lon="5.91903">
        <ele>1074.393058012</ele>
        <time>2016-02-15T07:49:43Z</time>
      </trkpt>
      <trkpt lat="45.35587" lon="5.91904">
        <ele>1074.393058012</ele>
        <time>2016-02-15T07:49:52Z</time>
      </trkpt>
      <trkpt lat="45.35587" lon="5.91905">
        <ele>1074.393058012</ele>
        <time>2016-02-15T07:49:57Z</time>
      </trkpt>
      <trkpt lat="45.35587" lon="5.91906">
        <ele>1074.393058012</ele>
        <time>2016-02-15T07:50:07Z</time>
      </trkpt>
      <trkpt lat="45.35587" lon="5.91906">
        <ele>1074.393058012</ele>
        <time>2016-02-15T07:50:13Z</time>
      </trkpt>
      <trkpt lat="45.35587" lon="5.91904">
        <ele>1074.393058012</ele>
        <time>2016-02-15T07:50:24Z</time>
      </trkpt>
      <trkpt lat="45.35587" lon="5.91905">
        <ele>1074.393058012</ele>
        <time>2016-02-15T07:50:28Z</time>
      </trkpt>
      <trkpt lat="45.35588" lon="5.91903">
        <ele>1074.393058012</ele>
        <time>2016-02-15T07:50:38Z</time>
      </trkpt>
      <trkpt lat="45.3559" lon="5.91905">
        <ele>1074.393058012</ele>
        <time>2016-02-15T07:50:42Z</time>
      </trkpt>
      <trkpt lat="45.35589" lon="5.91905">
        <ele>1074.393058012</ele>
        <time>2016-02-15T07:50:48Z</time>
      </trkpt>
      <trkpt lat="45.35592" lon="5.91889">
        <ele>1079.731484216</ele>
        <time>2016-02-15T07:50:58Z</time>
      </trkpt>
      <trkpt lat="45.3559" lon="5.91882">
        <ele>1079.731484216</ele>
        <time>2016-02-15T07:51:03Z</time>
      </trkpt>
      <trkpt lat="45.35592" lon="5.91882">
        <ele>1079.731484216</ele>
        <time>2016-02-15T07:51:13Z</time>
      </trkpt>
      <trkpt lat="45.35594" lon="5.91878">
        <ele>1085.490147545</ele>
        <time>2016-02-15T07:51:18Z</time>
      </trkpt>
      <trkpt lat="45.35596" lon="5.91873">
        <ele>1085.490147545</ele>
        <time>2016-02-15T07:51:28Z</time>
      </trkpt>
      <trkpt lat="45.35602" lon="5.91867">
        <ele>1088.672815996</ele>
        <time>2016-02-15T07:51:33Z</time>
      </trkpt>
      <trkpt lat="45.35612" lon="5.9186">
        <ele>1092.383869218</ele>
        <time>2016-02-15T07:51:43Z</time>
      </trkpt>
      <trkpt lat="45.35615" lon="5.91858">
        <ele>1092.383869218</ele>
        <time>2016-02-15T07:51:48Z</time>
      </trkpt>
      <trkpt lat="45.35624" lon="5.91848">
        <ele>1095.859158848</ele>
        <time>2016-02-15T07:51:58Z</time>
      </trkpt>
      <trkpt lat="45.35629" lon="5.91842">
        <ele>1095.859158848</ele>
        <time>2016-02-15T07:52:03Z</time>
      </trkpt>
      <trkpt lat="45.35677" lon="5.91829">
        <ele>1098.46644618</ele>
        <time>2016-02-15T07:52:49Z</time>
      </trkpt>
      <trkpt lat="45.35686" lon="5.91824">
        <ele>1100.600824388</ele>
        <time>2016-02-15T07:52:56Z</time>
      </trkpt>
      <trkpt lat="45.35695" lon="5.91818">
        <ele>1101.104238275</ele>
        <time>2016-02-15T07:53:05Z</time>
      </trkpt>
      <trkpt lat="45.35697" lon="5.91816">
        <ele>1101.104238275</ele>
        <time>2016-02-15T07:53:07Z</time>
      </trkpt>
      <trkpt lat="45.35706" lon="5.91796">
        <ele>1100.864591196</ele>
        <time>2016-02-15T07:53:22Z</time>
      </trkpt>
      <trkpt lat="45.35708" lon="5.91789">
        <ele>1100.864591196</ele>
        <time>2016-02-15T07:53:28Z</time>
      </trkpt>
      <trkpt lat="45.35715" lon="5.91776">
        <ele>1099.904314687</ele>
        <time>2016-02-15T07:53:38Z</time>
      </trkpt>
      <trkpt lat="45.35715" lon="5.91771">
        <ele>1099.904314687</ele>
        <time>2016-02-15T07:53:43Z</time>
      </trkpt>
      <trkpt lat="45.3572" lon="5.91753">
        <ele>1098.305615277</ele>
        <time>2016-02-15T07:53:53Z</time>
      </trkpt>
      <trkpt lat="45.35723" lon="5.9175">
        <ele>1098.305615277</ele>
        <time>2016-02-15T07:53:58Z</time>
      </trkpt>
      <trkpt lat="45.35731" lon="5.91743">
        <ele>1098.187188364</ele>
        <time>2016-02-15T07:54:08Z</time>
      </trkpt>
      <trkpt lat="45.35734" lon="5.91739">
        <ele>1098.187188364</ele>
        <time>2016-02-15T07:54:13Z</time>
      </trkpt>
      <trkpt lat="45.35737" lon="5.91715">
        <ele>1097.655852995</ele>
        <time>2016-02-15T07:54:39Z</time>
      </trkpt>
      <trkpt lat="45.35738" lon="5.91714">
        <ele>1097.655852995</ele>
        <time>2016-02-15T07:54:40Z</time>
      </trkpt>
      <trkpt lat="45.35737" lon="5.91692">
        <ele>1097.644562432</ele>
        <time>2016-02-15T07:55:14Z</time>
      </trkpt>
      <trkpt lat="45.35737" lon="5.91692">
        <ele>1097.644562432</ele>
        <time>2016-02-15T07:55:18Z</time>
      </trkpt>
      <trkpt lat="45.35736" lon="5.91686">
        <ele>1097.644562432</ele>
        <time>2016-02-15T07:55:28Z</time>
      </trkpt>
      <trkpt lat="45.35735" lon="5.91685">
        <ele>1097.644562432</ele>
        <time>2016-02-15T07:55:34Z</time>
      </trkpt>
      <trkpt lat="45.35728" lon="5.91677">
        <ele>1098.322393021</ele>
        <time>2016-02-15T07:55:42Z</time>
      </trkpt>
      <trkpt lat="45.35727" lon="5.91675">
        <ele>1098.322393021</ele>
        <time>2016-02-15T07:55:48Z</time>
      </trkpt>
      <trkpt lat="45.35728" lon="5.91669">
        <ele>1098.322393021</ele>
        <time>2016-02-15T07:55:58Z</time>
      </trkpt>
      <trkpt lat="45.35724" lon="5.91665">
        <ele>1099.658059251</ele>
        <time>2016-02-15T07:56:03Z</time>
      </trkpt>
      <trkpt lat="45.35721" lon="5.9166">
        <ele>1099.658059251</ele>
        <time>2016-02-15T07:56:13Z</time>
      </trkpt>
      <trkpt lat="45.35719" lon="5.91656">
        <ele>1099.658059251</ele>
        <time>2016-02-15T07:56:18Z</time>
      </trkpt>
      <trkpt lat="45.3572" lon="5.91655">
        <ele>1099.658059251</ele>
        <time>2016-02-15T07:56:22Z</time>
      </trkpt>
      <trkpt lat="45.3572" lon="5.91655">
        <ele>1099.658059251</ele>
        <time>2016-02-15T07:56:32Z</time>
      </trkpt>
      <trkpt lat="45.3572" lon="5.91634">
        <ele>1102.414017837</ele>
        <time>2016-02-15T07:57:17Z</time>
      </trkpt>
      <trkpt lat="45.3572" lon="5.91634">
        <ele>1102.414017837</ele>
        <time>2016-02-15T07:57:17Z</time>
      </trkpt>
      <trkpt lat="45.35717" lon="5.91621">
        <ele>1104.851393967</ele>
        <time>2016-02-15T07:57:43Z</time>
      </trkpt>
      <trkpt lat="45.35711" lon="5.91598">
        <ele>1107.329713769</ele>
        <time>2016-02-15T07:58:18Z</time>
      </trkpt>
      <trkpt lat="45.3571" lon="5.91593">
        <ele>1107.329713769</ele>
        <time>2016-02-15T07:58:23Z</time>
      </trkpt>
      <trkpt lat="45.35711" lon="5.91586">
        <ele>1107.329713769</ele>
        <time>2016-02-15T07:58:33Z</time>
      </trkpt>
      <trkpt lat="45.35711" lon="5.91585">
        <ele>1110.314705185</ele>
        <time>2016-02-15T07:58:38Z</time>
      </trkpt>
      <trkpt lat="45.35711" lon="5.9158">
        <ele>1110.314705185</ele>
        <time>2016-02-15T07:58:48Z</time>
      </trkpt>
      <trkpt lat="45.35711" lon="5.9158">
        <ele>1110.314705185</ele>
        <time>2016-02-15T07:58:53Z</time>
      </trkpt>
      <trkpt lat="45.35709" lon="5.91574">
        <ele>1110.314705185</ele>
        <time>2016-02-15T07:59:03Z</time>
      </trkpt>
      <trkpt lat="45.3571" lon="5.91573">
        <ele>1110.314705185</ele>
        <time>2016-02-15T07:59:08Z</time>
      </trkpt>
      <trkpt lat="45.35711" lon="5.9157">
        <ele>1113.446873861</ele>
        <time>2016-02-15T07:59:19Z</time>
      </trkpt>
      <trkpt lat="45.35711" lon="5.91568">
        <ele>1113.446873861</ele>
        <time>2016-02-15T07:59:23Z</time>
      </trkpt>
      <trkpt lat="45.35706" lon="5.91556">
        <ele>1116.410890935</ele>
        <time>2016-02-15T07:59:43Z</time>
      </trkpt>
      <trkpt lat="45.35708" lon="5.91546">
        <ele>1116.410890935</ele>
        <time>2016-02-15T08:00:10Z</time>
      </trkpt>
      <trkpt lat="45.35709" lon="5.91545">
        <ele>1116.410890935</ele>
        <time>2016-02-15T08:00:12Z</time>
      </trkpt>
      <trkpt lat="45.3571" lon="5.91546">
        <ele>1119.373600354</ele>
        <time>2016-02-15T08:00:27Z</time>
      </trkpt>
      <trkpt lat="45.35714" lon="5.91529">
        <ele>1122.625937873</ele>
        <time>2016-02-15T08:01:12Z</time>
      </trkpt>
      <trkpt lat="45.35714" lon="5.91528">
        <ele>1122.625937873</ele>
        <time>2016-02-15T08:01:13Z</time>
      </trkpt>
      <trkpt lat="45.35714" lon="5.91528">
        <ele>1122.625937873</ele>
        <time>2016-02-15T08:01:14Z</time>
      </trkpt>
      <trkpt lat="45.35714" lon="5.91527">
        <ele>1122.625937873</ele>
        <time>2016-02-15T08:01:15Z</time>
      </trkpt>
      <trkpt lat="45.35714" lon="5.91527">
        <ele>1122.625937873</ele>
        <time>2016-02-15T08:01:18Z</time>
      </trkpt>
      <trkpt lat="45.35715" lon="5.91526">
        <ele>1122.625937873</ele>
        <time>2016-02-15T08:01:29Z</time>
      </trkpt>
      <trkpt lat="45.35715" lon="5.91525">
        <ele>1122.625937873</ele>
        <time>2016-02-15T08:01:33Z</time>
      </trkpt>
      <trkpt lat="45.35717" lon="5.91525">
        <ele>1122.625937873</ele>
        <time>2016-02-15T08:01:43Z</time>
      </trkpt>
      <trkpt lat="45.35717" lon="5.91525">
        <ele>1122.625937873</ele>
        <time>2016-02-15T08:01:48Z</time>
      </trkpt>
      <trkpt lat="45.35719" lon="5.91523">
        <ele>1122.625937873</ele>
        <time>2016-02-15T08:01:58Z</time>
      </trkpt>
      <trkpt lat="45.35719" lon="5.9152">
        <ele>1126.855413883</ele>
        <time>2016-02-15T08:02:03Z</time>
      </trkpt>
      <trkpt lat="45.35717" lon="5.91514">
        <ele>1126.855413883</ele>
        <time>2016-02-15T08:02:13Z</time>
      </trkpt>
      <trkpt lat="45.35717" lon="5.91513">
        <ele>1126.855413883</ele>
        <time>2016-02-15T08:02:18Z</time>
      </trkpt>
      <trkpt lat="45.35717" lon="5.91509">
        <ele>1126.855413883</ele>
        <time>2016-02-15T08:02:29Z</time>
      </trkpt>
      <trkpt lat="45.35717" lon="5.91507">
        <ele>1130.678401572</ele>
        <time>2016-02-15T08:02:33Z</time>
      </trkpt>
      <trkpt lat="45.35713" lon="5.91499">
        <ele>1130.678401572</ele>
        <time>2016-02-15T08:02:43Z</time>
      </trkpt>
      <trkpt lat="45.35711" lon="5.91493">
        <ele>1133.989965764</ele>
        <time>2016-02-15T08:02:48Z</time>
      </trkpt>
      <trkpt lat="45.35707" lon="5.91471">
        <ele>1138.095125745</ele>
        <time>2016-02-15T08:03:24Z</time>
      </trkpt>
      <trkpt lat="45.35705" lon="5.91462">
        <ele>1138.095125745</ele>
        <time>2016-02-15T08:03:32Z</time>
      </trkpt>
      <trkpt lat="45.35703" lon="5.91447">
        <ele>1142.223966066</ele>
        <time>2016-02-15T08:03:48Z</time>
      </trkpt>
      <trkpt lat="45.35706" lon="5.91427">
        <ele>1146.509643178</ele>
        <time>2016-02-15T08:04:02Z</time>
      </trkpt>
      <trkpt lat="45.35712" lon="5.91398">
        <ele>1149.964599166</ele>
        <time>2016-02-15T08:04:43Z</time>
      </trkpt>
      <trkpt lat="45.35712" lon="5.91399">
        <ele>1149.964599166</ele>
        <time>2016-02-15T08:04:43Z</time>
      </trkpt>
      <trkpt lat="45.35713" lon="5.91381">
        <ele>1153.616948517</ele>
        <time>2016-02-15T08:05:05Z</time>
      </trkpt>
      <trkpt lat="45.35714" lon="5.91372">
        <ele>1153.616948517</ele>
        <time>2016-02-15T08:05:22Z</time>
      </trkpt>
      <trkpt lat="45.35714" lon="5.91371">
        <ele>1153.616948517</ele>
        <time>2016-02-15T08:05:23Z</time>
      </trkpt>
      <trkpt lat="45.35715" lon="5.9137">
        <ele>1153.616948517</ele>
        <time>2016-02-15T08:05:24Z</time>
      </trkpt>
      <trkpt lat="45.35715" lon="5.91368">
        <ele>1156.89290603</ele>
        <time>2016-02-15T08:05:25Z</time>
      </trkpt>
      <trkpt lat="45.35721" lon="5.91365">
        <ele>1156.89290603</ele>
        <time>2016-02-15T08:05:41Z</time>
      </trkpt>
      <trkpt lat="45.35722" lon="5.91364">
        <ele>1156.89290603</ele>
        <time>2016-02-15T08:05:42Z</time>
      </trkpt>
      <trkpt lat="45.35726" lon="5.91357">
        <ele>1161.069403506</ele>
        <time>2016-02-15T08:05:53Z</time>
      </trkpt>
      <trkpt lat="45.3573" lon="5.91351">
        <ele>1161.069403506</ele>
        <time>2016-02-15T08:05:58Z</time>
      </trkpt>
      <trkpt lat="45.35737" lon="5.91331">
        <ele>1166.086556598</ele>
        <time>2016-02-15T08:06:13Z</time>
      </trkpt>
      <trkpt lat="45.35743" lon="5.91323">
        <ele>1166.086556598</ele>
        <time>2016-02-15T08:06:28Z</time>
      </trkpt>
      <trkpt lat="45.35746" lon="5.91326">
        <ele>1171.1842117</ele>
        <time>2016-02-15T08:06:33Z</time>
      </trkpt>
      <trkpt lat="45.35754" lon="5.91328">
        <ele>1171.1842117</ele>
        <time>2016-02-15T08:06:43Z</time>
      </trkpt>
      <trkpt lat="45.35755" lon="5.91326">
        <ele>1175.926434999</ele>
        <time>2016-02-15T08:06:48Z</time>
      </trkpt>
      <trkpt lat="45.35771" lon="5.91313">
        <ele>1180.185555159</ele>
        <time>2016-02-15T08:07:16Z</time>
      </trkpt>
      <trkpt lat="45.35785" lon="5.91306">
        <ele>1183.410409212</ele>
        <time>2016-02-15T08:07:32Z</time>
      </trkpt>
      <trkpt lat="45.358" lon="5.91307">
        <ele>1186.383623462</ele>
        <time>2016-02-15T08:07:48Z</time>
      </trkpt>
      <trkpt lat="45.35802" lon="5.91306">
        <ele>1186.383623462</ele>
        <time>2016-02-15T08:07:57Z</time>
      </trkpt>
      <trkpt lat="45.35806" lon="5.91302">
        <ele>1186.383623462</ele>
        <time>2016-02-15T08:08:02Z</time>
      </trkpt>
      <trkpt lat="45.35814" lon="5.91292">
        <ele>1188.976315007</ele>
        <time>2016-02-15T08:08:18Z</time>
      </trkpt>
      <trkpt lat="45.35817" lon="5.91291">
        <ele>1188.976315007</ele>
        <time>2016-02-15T08:08:22Z</time>
      </trkpt>
      <trkpt lat="45.35819" lon="5.91287">
        <ele>1188.976315007</ele>
        <time>2016-02-15T08:08:33Z</time>
      </trkpt>
      <trkpt lat="45.3582" lon="5.91285">
        <ele>1188.976315007</ele>
        <time>2016-02-15T08:08:38Z</time>
      </trkpt>
      <trkpt lat="45.35821" lon="5.91283">
        <ele>1191.948435273</ele>
        <time>2016-02-15T08:08:48Z</time>
      </trkpt>
      <trkpt lat="45.35822" lon="5.91282">
        <ele>1191.948435273</ele>
        <time>2016-02-15T08:08:53Z</time>
      </trkpt>
      <trkpt lat="45.35831" lon="5.91273">
        <ele>1196.018477119</ele>
        <time>2016-02-15T08:09:38Z</time>
      </trkpt>
      <trkpt lat="45.35832" lon="5.91273">
        <ele>1196.018477119</ele>
        <time>2016-02-15T08:09:38Z</time>
      </trkpt>
      <trkpt lat="45.35831" lon="5.91273">
        <ele>1196.018477119</ele>
        <time>2016-02-15T08:09:39Z</time>
      </trkpt>
      <trkpt lat="45.35832" lon="5.91273">
        <ele>1196.018477119</ele>
        <time>2016-02-15T08:09:40Z</time>
      </trkpt>
      <trkpt lat="45.35838" lon="5.91268">
        <ele>1196.018477119</ele>
        <time>2016-02-15T08:09:49Z</time>
      </trkpt>
      <trkpt lat="45.35838" lon="5.91266">
        <ele>1196.018477119</ele>
        <time>2016-02-15T08:09:49Z</time>
      </trkpt>
      <trkpt lat="45.35845" lon="5.91265">
        <ele>1200.524921656</ele>
        <time>2016-02-15T08:09:54Z</time>
      </trkpt>
      <trkpt lat="45.35871" lon="5.91244">
        <ele>1203.202345655</ele>
        <time>2016-02-15T08:10:20Z</time>
      </trkpt>
      <trkpt lat="45.35873" lon="5.91244">
        <ele>1203.202345655</ele>
        <time>2016-02-15T08:10:21Z</time>
      </trkpt>
      <trkpt lat="45.35873" lon="5.91243">
        <ele>1203.202345655</ele>
        <time>2016-02-15T08:10:22Z</time>
      </trkpt>
      <trkpt lat="45.35874" lon="5.91242">
        <ele>1203.202345655</ele>
        <time>2016-02-15T08:10:23Z</time>
      </trkpt>
      <trkpt lat="45.35875" lon="5.91236">
        <ele>1203.202345655</ele>
        <time>2016-02-15T08:10:40Z</time>
      </trkpt>
      <trkpt lat="45.35878" lon="5.91236">
        <ele>1206.269212489</ele>
        <time>2016-02-15T08:10:50Z</time>
      </trkpt>
      <trkpt lat="45.35878" lon="5.91236">
        <ele>1206.269212489</ele>
        <time>2016-02-15T08:10:53Z</time>
      </trkpt>
      <trkpt lat="45.35884" lon="5.91231">
        <ele>1206.269212489</ele>
        <time>2016-02-15T08:10:58Z</time>
      </trkpt>
      <trkpt lat="45.35893" lon="5.91226">
        <ele>1208.65275251</ele>
        <time>2016-02-15T08:11:08Z</time>
      </trkpt>
      <trkpt lat="45.35897" lon="5.91221">
        <ele>1208.65275251</ele>
        <time>2016-02-15T08:11:13Z</time>
      </trkpt>
      <trkpt lat="45.359" lon="5.91221">
        <ele>1208.65275251</ele>
        <time>2016-02-15T08:11:23Z</time>
      </trkpt>
      <trkpt lat="45.35902" lon="5.91219">
        <ele>1211.309578863</ele>
        <time>2016-02-15T08:11:28Z</time>
      </trkpt>
      <trkpt lat="45.35904" lon="5.91221">
        <ele>1211.309578863</ele>
        <time>2016-02-15T08:11:38Z</time>
      </trkpt>
      <trkpt lat="45.35905" lon="5.91221">
        <ele>1211.309578863</ele>
        <time>2016-02-15T08:11:43Z</time>
      </trkpt>
      <trkpt lat="45.35906" lon="5.9122">
        <ele>1211.309578863</ele>
        <time>2016-02-15T08:11:53Z</time>
      </trkpt>
      <trkpt lat="45.35906" lon="5.9122">
        <ele>1211.309578863</ele>
        <time>2016-02-15T08:11:58Z</time>
      </trkpt>
      <trkpt lat="45.35906" lon="5.9122">
        <ele>1211.309578863</ele>
        <time>2016-02-15T08:12:08Z</time>
      </trkpt>
      <trkpt lat="45.35906" lon="5.9122">
        <ele>1211.309578863</ele>
        <time>2016-02-15T08:12:13Z</time>
      </trkpt>
      <trkpt lat="45.35906" lon="5.9122">
        <ele>1211.309578863</ele>
        <time>2016-02-15T08:12:23Z</time>
      </trkpt>
      <trkpt lat="45.35906" lon="5.9122">
        <ele>1211.309578863</ele>
        <time>2016-02-15T08:12:28Z</time>
      </trkpt>
      <trkpt lat="45.35906" lon="5.9122">
        <ele>1211.309578863</ele>
        <time>2016-02-15T08:12:33Z</time>
      </trkpt>
      <trkpt lat="45.35906" lon="5.9122">
        <ele>1211.309578863</ele>
        <time>2016-02-15T08:12:43Z</time>
      </trkpt>
      <trkpt lat="45.35906" lon="5.9122">
        <ele>1211.309578863</ele>
        <time>2016-02-15T08:12:47Z</time>
      </trkpt>
      <trkpt lat="45.35906" lon="5.9122">
        <ele>1211.309578863</ele>
        <time>2016-02-15T08:12:57Z</time>
      </trkpt>
      <trkpt lat="45.35906" lon="5.9122">
        <ele>1211.309578863</ele>
        <time>2016-02-15T08:13:04Z</time>
      </trkpt>
      <trkpt lat="45.35906" lon="5.9122">
        <ele>1211.309578863</ele>
        <time>2016-02-15T08:13:13Z</time>
      </trkpt>
      <trkpt lat="45.35906" lon="5.9122">
        <ele>1211.309578863</ele>
        <time>2016-02-15T08:13:18Z</time>
      </trkpt>
      <trkpt lat="45.35906" lon="5.9122">
        <ele>1211.309578863</ele>
        <time>2016-02-15T08:13:28Z</time>
      </trkpt>
      <trkpt lat="45.35906" lon="5.9122">
        <ele>1211.309578863</ele>
        <time>2016-02-15T08:13:33Z</time>
      </trkpt>
      <trkpt lat="45.35906" lon="5.9122">
        <ele>1211.309578863</ele>
        <time>2016-02-15T08:13:43Z</time>
      </trkpt>
      <trkpt lat="45.35906" lon="5.9122">
        <ele>1211.309578863</ele>
        <time>2016-02-15T08:13:48Z</time>
      </trkpt>
      <trkpt lat="45.35906" lon="5.9122">
        <ele>1211.309578863</ele>
        <time>2016-02-15T08:13:58Z</time>
      </trkpt>
      <trkpt lat="45.35906" lon="5.9122">
        <ele>1211.309578863</ele>
        <time>2016-02-15T08:14:03Z</time>
      </trkpt>
      <trkpt lat="45.35906" lon="5.9122">
        <ele>1211.309578863</ele>
        <time>2016-02-15T08:14:13Z</time>
      </trkpt>
      <trkpt lat="45.35906" lon="5.9122">
        <ele>1211.309578863</ele>
        <time>2016-02-15T08:14:18Z</time>
      </trkpt>
      <trkpt lat="45.35906" lon="5.91219">
        <ele>1211.309578863</ele>
        <time>2016-02-15T08:14:28Z</time>
      </trkpt>
      <trkpt lat="45.35906" lon="5.91219">
        <ele>1211.309578863</ele>
        <time>2016-02-15T08:14:34Z</time>
      </trkpt>
      <trkpt lat="45.35906" lon="5.91219">
        <ele>1211.309578863</ele>
        <time>2016-02-15T08:14:48Z</time>
      </trkpt>
      <trkpt lat="45.35906" lon="5.91219">
        <ele>1211.309578863</ele>
        <time>2016-02-15T08:14:53Z</time>
      </trkpt>
      <trkpt lat="45.35906" lon="5.91219">
        <ele>1211.309578863</ele>
        <time>2016-02-15T08:15:03Z</time>
      </trkpt>
      <trkpt lat="45.35906" lon="5.91219">
        <ele>1211.309578863</ele>
        <time>2016-02-15T08:15:08Z</time>
      </trkpt>
      <trkpt lat="45.35915" lon="5.91202">
        <ele>1214.677751838</ele>
        <time>2016-02-15T08:15:18Z</time>
      </trkpt>
      <trkpt lat="45.35917" lon="5.91201">
        <ele>1214.677751838</ele>
        <time>2016-02-15T08:15:23Z</time>
      </trkpt>
      <trkpt lat="45.35929" lon="5.91194">
        <ele>1218.405651676</ele>
        <time>2016-02-15T08:15:33Z</time>
      </trkpt>
      <trkpt lat="45.35933" lon="5.91187">
        <ele>1218.405651676</ele>
        <time>2016-02-15T08:15:38Z</time>
      </trkpt>
      <trkpt lat="45.3594" lon="5.91183">
        <ele>1220.957112501</ele>
        <time>2016-02-15T08:15:49Z</time>
      </trkpt>
      <trkpt lat="45.35941" lon="5.9118">
        <ele>1220.957112501</ele>
        <time>2016-02-15T08:15:52Z</time>
      </trkpt>
      <trkpt lat="45.3594" lon="5.91179">
        <ele>1220.957112501</ele>
        <time>2016-02-15T08:15:57Z</time>
      </trkpt>
      <trkpt lat="45.3594" lon="5.9118">
        <ele>1220.957112501</ele>
        <time>2016-02-15T08:16:02Z</time>
      </trkpt>
      <trkpt lat="45.3594" lon="5.9118">
        <ele>1220.957112501</ele>
        <time>2016-02-15T08:16:17Z</time>
      </trkpt>
      <trkpt lat="45.35946" lon="5.91162">
        <ele>1223.785376512</ele>
        <time>2016-02-15T08:16:48Z</time>
      </trkpt>
      <trkpt lat="45.35965" lon="5.91146">
        <ele>1225.967466201</ele>
        <time>2016-02-15T08:17:05Z</time>
      </trkpt>
      <trkpt lat="45.35967" lon="5.91146">
        <ele>1225.967466201</ele>
        <time>2016-02-15T08:17:07Z</time>
      </trkpt>
      <trkpt lat="45.35967" lon="5.91147">
        <ele>1225.967466201</ele>
        <time>2016-02-15T08:17:09Z</time>
      </trkpt>
      <trkpt lat="45.35967" lon="5.91149">
        <ele>1225.967466201</ele>
        <time>2016-02-15T08:17:10Z</time>
      </trkpt>
      <trkpt lat="45.35991" lon="5.91138">
        <ele>1228.615212678</ele>
        <time>2016-02-15T08:17:41Z</time>
      </trkpt>
      <trkpt lat="45.36003" lon="5.91126">
        <ele>1230.792340712</ele>
        <time>2016-02-15T08:18:16Z</time>
      </trkpt>
      <trkpt lat="45.36002" lon="5.91126">
        <ele>1230.792340712</ele>
        <time>2016-02-15T08:18:17Z</time>
      </trkpt>
      <trkpt lat="45.36002" lon="5.91126">
        <ele>1230.792340712</ele>
        <time>2016-02-15T08:18:18Z</time>
      </trkpt>
      <trkpt lat="45.36004" lon="5.91124">
        <ele>1230.792340712</ele>
        <time>2016-02-15T08:18:35Z</time>
      </trkpt>
      <trkpt lat="45.36004" lon="5.91124">
        <ele>1230.792340712</ele>
        <time>2016-02-15T08:18:35Z</time>
      </trkpt>
      <trkpt lat="45.36008" lon="5.91125">
        <ele>1230.792340712</ele>
        <time>2016-02-15T08:18:44Z</time>
      </trkpt>
      <trkpt lat="45.36024" lon="5.91114">
        <ele>1233.293303757</ele>
        <time>2016-02-15T08:19:00Z</time>
      </trkpt>
      <trkpt lat="45.36024" lon="5.91114">
        <ele>1233.293303757</ele>
        <time>2016-02-15T08:19:02Z</time>
      </trkpt>
      <trkpt lat="45.36024" lon="5.91114">
        <ele>1233.293303757</ele>
        <time>2016-02-15T08:19:03Z</time>
      </trkpt>
      <trkpt lat="45.36027" lon="5.91117">
        <ele>1233.293303757</ele>
        <time>2016-02-15T08:19:19Z</time>
      </trkpt>
      <trkpt lat="45.36028" lon="5.91118">
        <ele>1233.293303757</ele>
        <time>2016-02-15T08:19:25Z</time>
      </trkpt>
      <trkpt lat="45.3603" lon="5.91126">
        <ele>1236.095820321</ele>
        <time>2016-02-15T08:19:27Z</time>
      </trkpt>
      <trkpt lat="45.36034" lon="5.91125">
        <ele>1236.095820321</ele>
        <time>2016-02-15T08:19:35Z</time>
      </trkpt>
      <trkpt lat="45.36034" lon="5.91126">
        <ele>1236.095820321</ele>
        <time>2016-02-15T08:19:37Z</time>
      </trkpt>
      <trkpt lat="45.36035" lon="5.91127">
        <ele>1236.095820321</ele>
        <time>2016-02-15T08:19:42Z</time>
      </trkpt>
      <trkpt lat="45.36072" lon="5.91129">
        <ele>1241.273178352</ele>
        <time>2016-02-15T08:20:38Z</time>
      </trkpt>
      <trkpt lat="45.36082" lon="5.91131">
        <ele>1245.789939391</ele>
        <time>2016-02-15T08:20:55Z</time>
      </trkpt>
      <trkpt lat="45.36101" lon="5.91131">
        <ele>1250.293383661</ele>
        <time>2016-02-15T08:21:11Z</time>
      </trkpt>
      <trkpt lat="45.36101" lon="5.91131">
        <ele>1250.293383661</ele>
        <time>2016-02-15T08:21:12Z</time>
      </trkpt>
      <trkpt lat="45.36102" lon="5.9113">
        <ele>1250.293383661</ele>
        <time>2016-02-15T08:21:13Z</time>
      </trkpt>
      <trkpt lat="45.36112" lon="5.91127">
        <ele>1253.890795422</ele>
        <time>2016-02-15T08:21:32Z</time>
      </trkpt>
      <trkpt lat="45.36113" lon="5.91126">
        <ele>1253.890795422</ele>
        <time>2016-02-15T08:21:32Z</time>
      </trkpt>
      <trkpt lat="45.36114" lon="5.91128">
        <ele>1253.890795422</ele>
        <time>2016-02-15T08:21:38Z</time>
      </trkpt>
      <trkpt lat="45.36114" lon="5.9113">
        <ele>1253.890795422</ele>
        <time>2016-02-15T08:21:43Z</time>
      </trkpt>
      <trkpt lat="45.36115" lon="5.91131">
        <ele>1253.890795422</ele>
        <time>2016-02-15T08:21:48Z</time>
      </trkpt>
      <trkpt lat="45.3612" lon="5.91134">
        <ele>1257.545689977</ele>
        <time>2016-02-15T08:21:58Z</time>
      </trkpt>
      <trkpt lat="45.36123" lon="5.91138">
        <ele>1257.545689977</ele>
        <time>2016-02-15T08:22:03Z</time>
      </trkpt>
      <trkpt lat="45.36133" lon="5.9114">
        <ele>1261.105596151</ele>
        <time>2016-02-15T08:22:13Z</time>
      </trkpt>
      <trkpt lat="45.36135" lon="5.91138">
        <ele>1261.105596151</ele>
        <time>2016-02-15T08:22:18Z</time>
      </trkpt>
      <trkpt lat="45.36136" lon="5.91138">
        <ele>1261.105596151</ele>
        <time>2016-02-15T08:22:28Z</time>
      </trkpt>
      <trkpt lat="45.36136" lon="5.91138">
        <ele>1261.105596151</ele>
        <time>2016-02-15T08:22:33Z</time>
      </trkpt>
      <trkpt lat="45.36137" lon="5.91137">
        <ele>1261.105596151</ele>
        <time>2016-02-15T08:22:43Z</time>
      </trkpt>
      <trkpt lat="45.36139" lon="5.91133">
        <ele>1261.105596151</ele>
        <time>2016-02-15T08:22:48Z</time>
      </trkpt>
      <trkpt lat="45.36146" lon="5.91128">
        <ele>1265.315872239</ele>
        <time>2016-02-15T08:22:57Z</time>
      </trkpt>
      <trkpt lat="45.36146" lon="5.91127">
        <ele>1265.315872239</ele>
        <time>2016-02-15T08:22:58Z</time>
      </trkpt>
      <trkpt lat="45.36152" lon="5.91121">
        <ele>1265.315872239</ele>
        <time>2016-02-15T08:23:31Z</time>
      </trkpt>
      <trkpt lat="45.36153" lon="5.91121">
        <ele>1269.975270196</ele>
        <time>2016-02-15T08:23:32Z</time>
      </trkpt>
      <trkpt lat="45.36154" lon="5.91121">
        <ele>1269.975270196</ele>
        <time>2016-02-15T08:23:33Z</time>
      </trkpt>
      <trkpt lat="45.36165" lon="5.91121">
        <ele>1273.577165108</ele>
        <time>2016-02-15T08:23:47Z</time>
      </trkpt>
      <trkpt lat="45.36169" lon="5.9112">
        <ele>1273.577165108</ele>
        <time>2016-02-15T08:23:53Z</time>
      </trkpt>
      <trkpt lat="45.36179" lon="5.91113">
        <ele>1275.913664209</ele>
        <time>2016-02-15T08:24:02Z</time>
      </trkpt>
      <trkpt lat="45.36183" lon="5.91112">
        <ele>1275.913664209</ele>
        <time>2016-02-15T08:24:08Z</time>
      </trkpt>
      <trkpt lat="45.3619" lon="5.91112">
        <ele>1278.112316647</ele>
        <time>2016-02-15T08:24:18Z</time>
      </trkpt>
      <trkpt lat="45.36192" lon="5.91112">
        <ele>1278.112316647</ele>
        <time>2016-02-15T08:24:23Z</time>
      </trkpt>
      <trkpt lat="45.362" lon="5.91113">
        <ele>1280.479511384</ele>
        <time>2016-02-15T08:24:33Z</time>
      </trkpt>
      <trkpt lat="45.36201" lon="5.91115">
        <ele>1280.479511384</ele>
        <time>2016-02-15T08:24:38Z</time>
      </trkpt>
      <trkpt lat="45.36201" lon="5.91114">
        <ele>1280.479511384</ele>
        <time>2016-02-15T08:24:43Z</time>
      </trkpt>
      <trkpt lat="45.36208" lon="5.9111">
        <ele>1282.4225669</ele>
        <time>2016-02-15T08:24:48Z</time>
      </trkpt>
      <trkpt lat="45.36208" lon="5.91116">
        <ele>1282.4225669</ele>
        <time>2016-02-15T08:24:53Z</time>
      </trkpt>
      <trkpt lat="45.36208" lon="5.91119">
        <ele>1282.4225669</ele>
        <time>2016-02-15T08:25:09Z</time>
      </trkpt>
      <trkpt lat="45.36208" lon="5.91119">
        <ele>1282.4225669</ele>
        <time>2016-02-15T08:25:13Z</time>
      </trkpt>
      <trkpt lat="45.36208" lon="5.91119">
        <ele>1282.4225669</ele>
        <time>2016-02-15T08:25:23Z</time>
      </trkpt>
      <trkpt lat="45.36208" lon="5.91119">
        <ele>1282.4225669</ele>
        <time>2016-02-15T08:25:28Z</time>
      </trkpt>
      <trkpt lat="45.36208" lon="5.91119">
        <ele>1282.4225669</ele>
        <time>2016-02-15T08:25:44Z</time>
      </trkpt>
      <trkpt lat="45.36208" lon="5.91119">
        <ele>1282.4225669</ele>
        <time>2016-02-15T08:25:57Z</time>
      </trkpt>
      <trkpt lat="45.36208" lon="5.91119">
        <ele>1282.4225669</ele>
        <time>2016-02-15T08:26:04Z</time>
      </trkpt>
      <trkpt lat="45.36208" lon="5.91119">
        <ele>1282.4225669</ele>
        <time>2016-02-15T08:26:14Z</time>
      </trkpt>
      <trkpt lat="45.36208" lon="5.91119">
        <ele>1282.4225669</ele>
        <time>2016-02-15T08:26:18Z</time>
      </trkpt>
      <trkpt lat="45.36208" lon="5.91119">
        <ele>1282.4225669</ele>
        <time>2016-02-15T08:26:28Z</time>
      </trkpt>
      <trkpt lat="45.36208" lon="5.91119">
        <ele>1282.4225669</ele>
        <time>2016-02-15T08:26:33Z</time>
      </trkpt>
      <trkpt lat="45.36208" lon="5.91119">
        <ele>1282.4225669</ele>
        <time>2016-02-15T08:26:43Z</time>
      </trkpt>
      <trkpt lat="45.36208" lon="5.91119">
        <ele>1282.4225669</ele>
        <time>2016-02-15T08:26:48Z</time>
      </trkpt>
      <trkpt lat="45.36208" lon="5.91119">
        <ele>1282.4225669</ele>
        <time>2016-02-15T08:27:03Z</time>
      </trkpt>
      <trkpt lat="45.36208" lon="5.91119">
        <ele>1282.4225669</ele>
        <time>2016-02-15T08:27:08Z</time>
      </trkpt>
      <trkpt lat="45.36208" lon="5.91119">
        <ele>1282.4225669</ele>
        <time>2016-02-15T08:27:19Z</time>
      </trkpt>
      <trkpt lat="45.36208" lon="5.91119">
        <ele>1282.4225669</ele>
        <time>2016-02-15T08:27:23Z</time>
      </trkpt>
      <trkpt lat="45.36208" lon="5.91119">
        <ele>1282.4225669</ele>
        <time>2016-02-15T08:27:33Z</time>
      </trkpt>
      <trkpt lat="45.36208" lon="5.91119">
        <ele>1282.4225669</ele>
        <time>2016-02-15T08:27:38Z</time>
      </trkpt>
      <trkpt lat="45.36208" lon="5.91119">
        <ele>1282.4225669</ele>
        <time>2016-02-15T08:27:48Z</time>
      </trkpt>
      <trkpt lat="45.36208" lon="5.91119">
        <ele>1282.4225669</ele>
        <time>2016-02-15T08:27:53Z</time>
      </trkpt>
      <trkpt lat="45.36208" lon="5.91119">
        <ele>1282.4225669</ele>
        <time>2016-02-15T08:28:02Z</time>
      </trkpt>
      <trkpt lat="45.36208" lon="5.91119">
        <ele>1282.4225669</ele>
        <time>2016-02-15T08:28:08Z</time>
      </trkpt>
      <trkpt lat="45.36208" lon="5.91119">
        <ele>1282.4225669</ele>
        <time>2016-02-15T08:28:18Z</time>
      </trkpt>
      <trkpt lat="45.36208" lon="5.91119">
        <ele>1282.4225669</ele>
        <time>2016-02-15T08:28:23Z</time>
      </trkpt>
      <trkpt lat="45.36208" lon="5.91119">
        <ele>1282.4225669</ele>
        <time>2016-02-15T08:28:32Z</time>
      </trkpt>
      <trkpt lat="45.36208" lon="5.91119">
        <ele>1282.4225669</ele>
        <time>2016-02-15T08:28:39Z</time>
      </trkpt>
      <trkpt lat="45.36208" lon="5.91119">
        <ele>1282.4225669</ele>
        <time>2016-02-15T08:28:49Z</time>
      </trkpt>
      <trkpt lat="45.36208" lon="5.91119">
        <ele>1282.4225669</ele>
        <time>2016-02-15T08:28:53Z</time>
      </trkpt>
      <trkpt lat="45.36208" lon="5.91119">
        <ele>1282.4225669</ele>
        <time>2016-02-15T08:29:04Z</time>
      </trkpt>
      <trkpt lat="45.36208" lon="5.91119">
        <ele>1282.4225669</ele>
        <time>2016-02-15T08:29:08Z</time>
      </trkpt>
      <trkpt lat="45.36208" lon="5.91119">
        <ele>1282.4225669</ele>
        <time>2016-02-15T08:29:13Z</time>
      </trkpt>
      <trkpt lat="45.36208" lon="5.9112">
        <ele>1282.4225669</ele>
        <time>2016-02-15T08:29:24Z</time>
      </trkpt>
      <trkpt lat="45.36208" lon="5.9112">
        <ele>1282.4225669</ele>
        <time>2016-02-15T08:29:28Z</time>
      </trkpt>
      <trkpt lat="45.36228" lon="5.91104">
        <ele>1283.688112028</ele>
        <time>2016-02-15T08:29:40Z</time>
      </trkpt>
      <trkpt lat="45.36234" lon="5.911">
        <ele>1283.688112028</ele>
        <time>2016-02-15T08:29:43Z</time>
      </trkpt>
      <trkpt lat="45.36242" lon="5.91095">
        <ele>1284.770462048</ele>
        <time>2016-02-15T08:29:53Z</time>
      </trkpt>
      <trkpt lat="45.36248" lon="5.91091">
        <ele>1284.770462048</ele>
        <time>2016-02-15T08:29:58Z</time>
      </trkpt>
      <trkpt lat="45.36265" lon="5.911">
        <ele>1286.705406816</ele>
        <time>2016-02-15T08:30:13Z</time>
      </trkpt>
      <trkpt lat="45.36265" lon="5.91101">
        <ele>1286.705406816</ele>
        <time>2016-02-15T08:30:18Z</time>
      </trkpt>
      <trkpt lat="45.36265" lon="5.911">
        <ele>1286.705406816</ele>
        <time>2016-02-15T08:30:28Z</time>
      </trkpt>
      <trkpt lat="45.36265" lon="5.91101">
        <ele>1286.705406816</ele>
        <time>2016-02-15T08:30:33Z</time>
      </trkpt>
      <trkpt lat="45.36265" lon="5.91101">
        <ele>1286.705406816</ele>
        <time>2016-02-15T08:30:43Z</time>
      </trkpt>
      <trkpt lat="45.36265" lon="5.911">
        <ele>1286.705406816</ele>
        <time>2016-02-15T08:30:48Z</time>
      </trkpt>
      <trkpt lat="45.36276" lon="5.91099">
        <ele>1288.707227617</ele>
        <time>2016-02-15T08:31:00Z</time>
      </trkpt>
      <trkpt lat="45.36278" lon="5.911">
        <ele>1288.707227617</ele>
        <time>2016-02-15T08:31:03Z</time>
      </trkpt>
      <trkpt lat="45.36287" lon="5.91096">
        <ele>1289.761694611</ele>
        <time>2016-02-15T08:31:13Z</time>
      </trkpt>
      <trkpt lat="45.36292" lon="5.91097">
        <ele>1289.761694611</ele>
        <time>2016-02-15T08:31:18Z</time>
      </trkpt>
      <trkpt lat="45.36304" lon="5.91104">
        <ele>1291.248761988</ele>
        <time>2016-02-15T08:31:32Z</time>
      </trkpt>
      <trkpt lat="45.36308" lon="5.91098">
        <ele>1291.248761988</ele>
        <time>2016-02-15T08:31:37Z</time>
      </trkpt>
      <trkpt lat="45.36351" lon="5.91076">
        <ele>1292.996425045</ele>
        <time>2016-02-15T08:32:34Z</time>
      </trkpt>
      <trkpt lat="45.36353" lon="5.91079">
        <ele>1292.996425045</ele>
        <time>2016-02-15T08:32:38Z</time>
      </trkpt>
      <trkpt lat="45.36373" lon="5.91064">
        <ele>1294.700720805</ele>
        <time>2016-02-15T08:32:55Z</time>
      </trkpt>
      <trkpt lat="45.36391" lon="5.91079">
        <ele>1297.52431461</ele>
        <time>2016-02-15T08:33:33Z</time>
      </trkpt>
      <trkpt lat="45.36391" lon="5.91075">
        <ele>1297.52431461</ele>
        <time>2016-02-15T08:33:33Z</time>
      </trkpt>
      <trkpt lat="45.36404" lon="5.91065">
        <ele>1299.942121514</ele>
        <time>2016-02-15T08:33:43Z</time>
      </trkpt>
      <trkpt lat="45.36407" lon="5.91063">
        <ele>1299.942121514</ele>
        <time>2016-02-15T08:33:48Z</time>
      </trkpt>
      <trkpt lat="45.36412" lon="5.91063">
        <ele>1299.942121514</ele>
        <time>2016-02-15T08:33:58Z</time>
      </trkpt>
      <trkpt lat="45.36415" lon="5.91056">
        <ele>1302.996652428</ele>
        <time>2016-02-15T08:34:03Z</time>
      </trkpt>
      <trkpt lat="45.36422" lon="5.91052">
        <ele>1302.996652428</ele>
        <time>2016-02-15T08:34:13Z</time>
      </trkpt>
      <trkpt lat="45.36423" lon="5.91045">
        <ele>1305.054856244</ele>
        <time>2016-02-15T08:34:18Z</time>
      </trkpt>
      <trkpt lat="45.36431" lon="5.91035">
        <ele>1306.914741548</ele>
        <time>2016-02-15T08:34:28Z</time>
      </trkpt>
      <trkpt lat="45.36432" lon="5.91035">
        <ele>1306.914741548</ele>
        <time>2016-02-15T08:34:33Z</time>
      </trkpt>
      <trkpt lat="45.36462" lon="5.90998">
        <ele>1309.315573402</ele>
        <time>2016-02-15T08:35:22Z</time>
      </trkpt>
      <trkpt lat="45.36465" lon="5.90996">
        <ele>1309.315573402</ele>
        <time>2016-02-15T08:35:23Z</time>
      </trkpt>
      <trkpt lat="45.36477" lon="5.90981">
        <ele>1311.35450337</ele>
        <time>2016-02-15T08:35:38Z</time>
      </trkpt>
      <trkpt lat="45.36477" lon="5.90975">
        <ele>1311.35450337</ele>
        <time>2016-02-15T08:35:43Z</time>
      </trkpt>
      <trkpt lat="45.3648" lon="5.90976">
        <ele>1311.35450337</ele>
        <time>2016-02-15T08:36:05Z</time>
      </trkpt>
      <trkpt lat="45.36483" lon="5.90976">
        <ele>1312.916985547</ele>
        <time>2016-02-15T08:36:05Z</time>
      </trkpt>
      <trkpt lat="45.36492" lon="5.90976">
        <ele>1314.042247693</ele>
        <time>2016-02-15T08:36:14Z</time>
      </trkpt>
      <trkpt lat="45.36493" lon="5.90977">
        <ele>1314.042247693</ele>
        <time>2016-02-15T08:36:15Z</time>
      </trkpt>
      <trkpt lat="45.36506" lon="5.90999">
        <ele>1315.92115614</ele>
        <time>2016-02-15T08:36:34Z</time>
      </trkpt>
      <trkpt lat="45.36506" lon="5.91">
        <ele>1315.92115614</ele>
        <time>2016-02-15T08:36:35Z</time>
      </trkpt>
      <trkpt lat="45.36509" lon="5.91002">
        <ele>1315.92115614</ele>
        <time>2016-02-15T08:36:38Z</time>
      </trkpt>
      <trkpt lat="45.36516" lon="5.91009">
        <ele>1318.068915308</ele>
        <time>2016-02-15T08:36:48Z</time>
      </trkpt>
      <trkpt lat="45.36518" lon="5.91017">
        <ele>1318.068915308</ele>
        <time>2016-02-15T08:36:53Z</time>
      </trkpt>
      <trkpt lat="45.36526" lon="5.91022">
        <ele>1320.612212534</ele>
        <time>2016-02-15T08:37:03Z</time>
      </trkpt>
      <trkpt lat="45.36529" lon="5.91022">
        <ele>1320.612212534</ele>
        <time>2016-02-15T08:37:08Z</time>
      </trkpt>
      <trkpt lat="45.36536" lon="5.91018">
        <ele>1322.513600635</ele>
        <time>2016-02-15T08:37:23Z</time>
      </trkpt>
      <trkpt lat="45.36536" lon="5.91019">
        <ele>1322.513600635</ele>
        <time>2016-02-15T08:37:38Z</time>
      </trkpt>
      <trkpt lat="45.36549" lon="5.91015">
        <ele>1323.82284841</ele>
        <time>2016-02-15T08:37:43Z</time>
      </trkpt>
      <trkpt lat="45.36564" lon="5.91018">
        <ele>1325.02028397</ele>
        <time>2016-02-15T08:37:53Z</time>
      </trkpt>
      <trkpt lat="45.36573" lon="5.91021">
        <ele>1325.02028397</ele>
        <time>2016-02-15T08:37:58Z</time>
      </trkpt>
      <trkpt lat="45.36575" lon="5.91034">
        <ele>1327.416571801</ele>
        <time>2016-02-15T08:38:08Z</time>
      </trkpt>
      <trkpt lat="45.3658" lon="5.91033">
        <ele>1327.416571801</ele>
        <time>2016-02-15T08:38:13Z</time>
      </trkpt>
      <trkpt lat="45.36588" lon="5.91028">
        <ele>1329.049614057</ele>
        <time>2016-02-15T08:38:23Z</time>
      </trkpt>
      <trkpt lat="45.36596" lon="5.91027">
        <ele>1329.049614057</ele>
        <time>2016-02-15T08:38:27Z</time>
      </trkpt>
      <trkpt lat="45.36601" lon="5.91029">
        <ele>1330.699591474</ele>
        <time>2016-02-15T08:38:32Z</time>
      </trkpt>
      <trkpt lat="45.36605" lon="5.91026">
        <ele>1330.699591474</ele>
        <time>2016-02-15T08:38:37Z</time>
      </trkpt>
      <trkpt lat="45.36625" lon="5.91029">
        <ele>1331.646844288</ele>
        <time>2016-02-15T08:39:00Z</time>
      </trkpt>
      <trkpt lat="45.36647" lon="5.91037">
        <ele>1333.534334044</ele>
        <time>2016-02-15T08:39:21Z</time>
      </trkpt>
      <trkpt lat="45.36649" lon="5.91038">
        <ele>1333.534334044</ele>
        <time>2016-02-15T08:39:22Z</time>
      </trkpt>
      <trkpt lat="45.36705" lon="5.91032">
        <ele>1336.583325338</ele>
        <time>2016-02-15T08:40:17Z</time>
      </trkpt>
      <trkpt lat="45.36713" lon="5.91018">
        <ele>1338.68750019</ele>
        <time>2016-02-15T08:40:23Z</time>
      </trkpt>
      <trkpt lat="45.36728" lon="5.91022">
        <ele>1340.494356118</ele>
        <time>2016-02-15T08:40:42Z</time>
      </trkpt>
      <trkpt lat="45.36729" lon="5.91022">
        <ele>1340.494356118</ele>
        <time>2016-02-15T08:40:43Z</time>
      </trkpt>
      <trkpt lat="45.36729" lon="5.91025">
        <ele>1340.494356118</ele>
        <time>2016-02-15T08:40:44Z</time>
      </trkpt>
      <trkpt lat="45.36736" lon="5.91016">
        <ele>1342.604504869</ele>
        <time>2016-02-15T08:40:59Z</time>
      </trkpt>
      <trkpt lat="45.36742" lon="5.91009">
        <ele>1342.604504869</ele>
        <time>2016-02-15T08:41:01Z</time>
      </trkpt>
      <trkpt lat="45.3674" lon="5.91013">
        <ele>1344.131057169</ele>
        <time>2016-02-15T08:41:03Z</time>
      </trkpt>
      <trkpt lat="45.36745" lon="5.91007">
        <ele>1344.131057169</ele>
        <time>2016-02-15T08:41:15Z</time>
      </trkpt>
      <trkpt lat="45.36746" lon="5.91006">
        <ele>1344.131057169</ele>
        <time>2016-02-15T08:41:16Z</time>
      </trkpt>
      <trkpt lat="45.36747" lon="5.91008">
        <ele>1345.263576778</ele>
        <time>2016-02-15T08:41:17Z</time>
      </trkpt>
      <trkpt lat="45.36756" lon="5.90998">
        <ele>1346.034465101</ele>
        <time>2016-02-15T08:41:28Z</time>
      </trkpt>
      <trkpt lat="45.36762" lon="5.91">
        <ele>1346.034465101</ele>
        <time>2016-02-15T08:41:33Z</time>
      </trkpt>
      <trkpt lat="45.36771" lon="5.90994">
        <ele>1346.61887663</ele>
        <time>2016-02-15T08:41:43Z</time>
      </trkpt>
      <trkpt lat="45.36773" lon="5.91003">
        <ele>1346.61887663</ele>
        <time>2016-02-15T08:41:48Z</time>
      </trkpt>
      <trkpt lat="45.36779" lon="5.90992">
        <ele>1347.323695243</ele>
        <time>2016-02-15T08:41:58Z</time>
      </trkpt>
      <trkpt lat="45.36778" lon="5.90998">
        <ele>1347.323695243</ele>
        <time>2016-02-15T08:42:03Z</time>
      </trkpt>
      <trkpt lat="45.36784" lon="5.91002">
        <ele>1348.721154785</ele>
        <time>2016-02-15T08:42:13Z</time>
      </trkpt>
      <trkpt lat="45.3679" lon="5.91008">
        <ele>1348.721154785</ele>
        <time>2016-02-15T08:42:18Z</time>
      </trkpt>
      <trkpt lat="45.36796" lon="5.91002">
        <ele>1350.041511563</ele>
        <time>2016-02-15T08:42:28Z</time>
      </trkpt>
      <trkpt lat="45.36809" lon="5.9101">
        <ele>1351.581158071</ele>
        <time>2016-02-15T08:42:51Z</time>
      </trkpt>
      <trkpt lat="45.3681" lon="5.91009">
        <ele>1351.581158071</ele>
        <time>2016-02-15T08:43:01Z</time>
      </trkpt>
      <trkpt lat="45.3681" lon="5.91009">
        <ele>1351.581158071</ele>
        <time>2016-02-15T08:43:03Z</time>
      </trkpt>
      <trkpt lat="45.3683" lon="5.91011">
        <ele>1354.046470734</ele>
        <time>2016-02-15T08:43:21Z</time>
      </trkpt>
      <trkpt lat="45.3683" lon="5.91013">
        <ele>1354.046470734</ele>
        <time>2016-02-15T08:43:22Z</time>
      </trkpt>
      <trkpt lat="45.3688" lon="5.90999">
        <ele>1357.07988056</ele>
        <time>2016-02-15T08:44:23Z</time>
      </trkpt>
      <trkpt lat="45.36879" lon="5.90998">
        <ele>1357.07988056</ele>
        <time>2016-02-15T08:44:27Z</time>
      </trkpt>
      <trkpt lat="45.3688" lon="5.90996">
        <ele>1357.07988056</ele>
        <time>2016-02-15T08:44:32Z</time>
      </trkpt>
      <trkpt lat="45.3688" lon="5.90996">
        <ele>1357.07988056</ele>
        <time>2016-02-15T08:44:37Z</time>
      </trkpt>
      <trkpt lat="45.3688" lon="5.90996">
        <ele>1357.07988056</ele>
        <time>2016-02-15T08:44:42Z</time>
      </trkpt>
      <trkpt lat="45.3688" lon="5.90996">
        <ele>1357.07988056</ele>
        <time>2016-02-15T08:44:47Z</time>
      </trkpt>
      <trkpt lat="45.3688" lon="5.90997">
        <ele>1357.07988056</ele>
        <time>2016-02-15T08:44:52Z</time>
      </trkpt>
      <trkpt lat="45.3688" lon="5.90997">
        <ele>1357.07988056</ele>
        <time>2016-02-15T08:44:57Z</time>
      </trkpt>
      <trkpt lat="45.3688" lon="5.90997">
        <ele>1357.07988056</ele>
        <time>2016-02-15T08:45:02Z</time>
      </trkpt>
      <trkpt lat="45.3688" lon="5.90997">
        <ele>1357.07988056</ele>
        <time>2016-02-15T08:45:07Z</time>
      </trkpt>
      <trkpt lat="45.36879" lon="5.90997">
        <ele>1357.07988056</ele>
        <time>2016-02-15T08:45:22Z</time>
      </trkpt>
      <trkpt lat="45.36879" lon="5.90997">
        <ele>1357.07988056</ele>
        <time>2016-02-15T08:45:27Z</time>
      </trkpt>
      <trkpt lat="45.36879" lon="5.90997">
        <ele>1357.07988056</ele>
        <time>2016-02-15T08:45:37Z</time>
      </trkpt>
      <trkpt lat="45.36879" lon="5.90997">
        <ele>1357.07988056</ele>
        <time>2016-02-15T08:45:42Z</time>
      </trkpt>
      <trkpt lat="45.36879" lon="5.90997">
        <ele>1357.07988056</ele>
        <time>2016-02-15T08:45:47Z</time>
      </trkpt>
      <trkpt lat="45.36879" lon="5.90997">
        <ele>1357.07988056</ele>
        <time>2016-02-15T08:45:52Z</time>
      </trkpt>
      <trkpt lat="45.36879" lon="5.90997">
        <ele>1357.07988056</ele>
        <time>2016-02-15T08:45:57Z</time>
      </trkpt>
      <trkpt lat="45.36879" lon="5.90997">
        <ele>1357.07988056</ele>
        <time>2016-02-15T08:46:02Z</time>
      </trkpt>
      <trkpt lat="45.36879" lon="5.90997">
        <ele>1357.07988056</ele>
        <time>2016-02-15T08:46:07Z</time>
      </trkpt>
      <trkpt lat="45.36879" lon="5.90997">
        <ele>1357.07988056</ele>
        <time>2016-02-15T08:46:22Z</time>
      </trkpt>
      <trkpt lat="45.36879" lon="5.90997">
        <ele>1357.07988056</ele>
        <time>2016-02-15T08:46:27Z</time>
      </trkpt>
      <trkpt lat="45.36879" lon="5.90997">
        <ele>1357.07988056</ele>
        <time>2016-02-15T08:46:38Z</time>
      </trkpt>
      <trkpt lat="45.36879" lon="5.90997">
        <ele>1357.07988056</ele>
        <time>2016-02-15T08:46:43Z</time>
      </trkpt>
      <trkpt lat="45.36882" lon="5.91002">
        <ele>1357.07988056</ele>
        <time>2016-02-15T08:46:53Z</time>
      </trkpt>
      <trkpt lat="45.36889" lon="5.91004">
        <ele>1358.906812779</ele>
        <time>2016-02-15T08:46:58Z</time>
      </trkpt>
      <trkpt lat="45.3689" lon="5.91008">
        <ele>1358.906812779</ele>
        <time>2016-02-15T08:47:08Z</time>
      </trkpt>
      <trkpt lat="45.3689" lon="5.91008">
        <ele>1358.906812779</ele>
        <time>2016-02-15T08:47:13Z</time>
      </trkpt>
      <trkpt lat="45.3689" lon="5.91009">
        <ele>1358.906812779</ele>
        <time>2016-02-15T08:47:23Z</time>
      </trkpt>
      <trkpt lat="45.36892" lon="5.91009">
        <ele>1358.906812779</ele>
        <time>2016-02-15T08:47:28Z</time>
      </trkpt>
      <trkpt lat="45.36915" lon="5.90993">
        <ele>1361.923166586</ele>
        <time>2016-02-15T08:47:38Z</time>
      </trkpt>
      <trkpt lat="45.36915" lon="5.90998">
        <ele>1361.923166586</ele>
        <time>2016-02-15T08:47:42Z</time>
      </trkpt>
      <trkpt lat="45.36937" lon="5.90986">
        <ele>1364.885317298</ele>
        <time>2016-02-15T08:48:16Z</time>
      </trkpt>
      <trkpt lat="45.36938" lon="5.90986">
        <ele>1364.885317298</ele>
        <time>2016-02-15T08:48:17Z</time>
      </trkpt>
      <trkpt lat="45.36938" lon="5.90991">
        <ele>1364.885317298</ele>
        <time>2016-02-15T08:48:43Z</time>
      </trkpt>
      <trkpt lat="45.36944" lon="5.9099">
        <ele>1368.371078461</ele>
        <time>2016-02-15T08:48:48Z</time>
      </trkpt>
      <trkpt lat="45.36949" lon="5.90988">
        <ele>1368.371078461</ele>
        <time>2016-02-15T08:49:01Z</time>
      </trkpt>
      <trkpt lat="45.36949" lon="5.90988">
        <ele>1368.371078461</ele>
        <time>2016-02-15T08:49:02Z</time>
      </trkpt>
      <trkpt lat="45.36949" lon="5.90988">
        <ele>1368.371078461</ele>
        <time>2016-02-15T08:49:03Z</time>
      </trkpt>
      <trkpt lat="45.36957" lon="5.90989">
        <ele>1371.905221803</ele>
        <time>2016-02-15T08:49:21Z</time>
      </trkpt>
      <trkpt lat="45.3696" lon="5.9099">
        <ele>1371.905221803</ele>
        <time>2016-02-15T08:49:27Z</time>
      </trkpt>
      <trkpt lat="45.3696" lon="5.90989">
        <ele>1371.905221803</ele>
        <time>2016-02-15T08:49:32Z</time>
      </trkpt>
      <trkpt lat="45.3696" lon="5.9099">
        <ele>1371.905221803</ele>
        <time>2016-02-15T08:49:37Z</time>
      </trkpt>
      <trkpt lat="45.3696" lon="5.90991">
        <ele>1371.905221803</ele>
        <time>2016-02-15T08:49:43Z</time>
      </trkpt>
      <trkpt lat="45.36961" lon="5.90991">
        <ele>1371.905221803</ele>
        <time>2016-02-15T08:49:47Z</time>
      </trkpt>
      <trkpt lat="45.36961" lon="5.90991">
        <ele>1371.905221803</ele>
        <time>2016-02-15T08:49:54Z</time>
      </trkpt>
      <trkpt lat="45.36961" lon="5.90991">
        <ele>1371.905221803</ele>
        <time>2016-02-15T08:50:17Z</time>
      </trkpt>
      <trkpt lat="45.36961" lon="5.90991">
        <ele>1371.905221803</ele>
        <time>2016-02-15T08:50:33Z</time>
      </trkpt>
      <trkpt lat="45.36961" lon="5.90993">
        <ele>1371.905221803</ele>
        <time>2016-02-15T08:50:56Z</time>
      </trkpt>
      <trkpt lat="45.36966" lon="5.90989">
        <ele>1376.056297267</ele>
        <time>2016-02-15T08:51:03Z</time>
      </trkpt>
      <trkpt lat="45.36965" lon="5.90987">
        <ele>1376.056297267</ele>
        <time>2016-02-15T08:51:08Z</time>
      </trkpt>
      <trkpt lat="45.36967" lon="5.90984">
        <ele>1376.056297267</ele>
        <time>2016-02-15T08:51:18Z</time>
      </trkpt>
      <trkpt lat="45.36966" lon="5.90984">
        <ele>1376.056297267</ele>
        <time>2016-02-15T08:51:23Z</time>
      </trkpt>
      <trkpt lat="45.36966" lon="5.90984">
        <ele>1376.056297267</ele>
        <time>2016-02-15T08:51:28Z</time>
      </trkpt>
      <trkpt lat="45.36966" lon="5.90983">
        <ele>1376.056297267</ele>
        <time>2016-02-15T08:51:38Z</time>
      </trkpt>
      <trkpt lat="45.36966" lon="5.90982">
        <ele>1376.056297267</ele>
        <time>2016-02-15T08:51:43Z</time>
      </trkpt>
      <trkpt lat="45.36962" lon="5.90973">
        <ele>1381.493415382</ele>
        <time>2016-02-15T08:51:53Z</time>
      </trkpt>
      <trkpt lat="45.36963" lon="5.9097">
        <ele>1381.493415382</ele>
        <time>2016-02-15T08:51:58Z</time>
      </trkpt>
      <trkpt lat="45.36962" lon="5.90966">
        <ele>1381.493415382</ele>
        <time>2016-02-15T08:52:08Z</time>
      </trkpt>
      <trkpt lat="45.36962" lon="5.90965">
        <ele>1381.493415382</ele>
        <time>2016-02-15T08:52:13Z</time>
      </trkpt>
      <trkpt lat="45.36962" lon="5.90965">
        <ele>1381.493415382</ele>
        <time>2016-02-15T08:52:23Z</time>
      </trkpt>
      <trkpt lat="45.36962" lon="5.90965">
        <ele>1381.493415382</ele>
        <time>2016-02-15T08:52:28Z</time>
      </trkpt>
      <trkpt lat="45.36962" lon="5.90965">
        <ele>1381.493415382</ele>
        <time>2016-02-15T08:52:38Z</time>
      </trkpt>
      <trkpt lat="45.36962" lon="5.90965">
        <ele>1381.493415382</ele>
        <time>2016-02-15T08:52:43Z</time>
      </trkpt>
      <trkpt lat="45.36962" lon="5.90965">
        <ele>1381.493415382</ele>
        <time>2016-02-15T08:52:53Z</time>
      </trkpt>
      <trkpt lat="45.36962" lon="5.90965">
        <ele>1381.493415382</ele>
        <time>2016-02-15T08:52:58Z</time>
      </trkpt>
      <trkpt lat="45.36962" lon="5.90965">
        <ele>1381.493415382</ele>
        <time>2016-02-15T08:53:03Z</time>
      </trkpt>
      <trkpt lat="45.36962" lon="5.90965">
        <ele>1381.493415382</ele>
        <time>2016-02-15T08:53:13Z</time>
      </trkpt>
      <trkpt lat="45.36962" lon="5.90965">
        <ele>1381.493415382</ele>
        <time>2016-02-15T08:53:18Z</time>
      </trkpt>
      <trkpt lat="45.36962" lon="5.90965">
        <ele>1381.493415382</ele>
        <time>2016-02-15T08:53:28Z</time>
      </trkpt>
      <trkpt lat="45.36962" lon="5.90965">
        <ele>1381.493415382</ele>
        <time>2016-02-15T08:53:33Z</time>
      </trkpt>
      <trkpt lat="45.36962" lon="5.90965">
        <ele>1381.493415382</ele>
        <time>2016-02-15T08:53:43Z</time>
      </trkpt>
      <trkpt lat="45.36962" lon="5.90965">
        <ele>1381.493415382</ele>
        <time>2016-02-15T08:53:48Z</time>
      </trkpt>
      <trkpt lat="45.36962" lon="5.90965">
        <ele>1381.493415382</ele>
        <time>2016-02-15T08:53:58Z</time>
      </trkpt>
      <trkpt lat="45.36962" lon="5.90965">
        <ele>1381.493415382</ele>
        <time>2016-02-15T08:54:02Z</time>
      </trkpt>
      <trkpt lat="45.36962" lon="5.90964">
        <ele>1381.493415382</ele>
        <time>2016-02-15T08:54:12Z</time>
      </trkpt>
      <trkpt lat="45.36962" lon="5.90964">
        <ele>1381.493415382</ele>
        <time>2016-02-15T08:54:17Z</time>
      </trkpt>
      <trkpt lat="45.36962" lon="5.90964">
        <ele>1381.493415382</ele>
        <time>2016-02-15T08:54:28Z</time>
      </trkpt>
      <trkpt lat="45.36962" lon="5.90964">
        <ele>1381.493415382</ele>
        <time>2016-02-15T08:54:32Z</time>
      </trkpt>
      <trkpt lat="45.36962" lon="5.90964">
        <ele>1381.493415382</ele>
        <time>2016-02-15T08:54:43Z</time>
      </trkpt>
      <trkpt lat="45.36962" lon="5.90964">
        <ele>1381.493415382</ele>
        <time>2016-02-15T08:54:48Z</time>
      </trkpt>
      <trkpt lat="45.36962" lon="5.90964">
        <ele>1381.493415382</ele>
        <time>2016-02-15T08:54:58Z</time>
      </trkpt>
      <trkpt lat="45.36962" lon="5.90964">
        <ele>1381.493415382</ele>
        <time>2016-02-15T08:55:03Z</time>
      </trkpt>
      <trkpt lat="45.36963" lon="5.9094">
        <ele>1387.391584214</ele>
        <time>2016-02-15T08:55:18Z</time>
      </trkpt>
      <trkpt lat="45.36961" lon="5.90938">
        <ele>1387.391584214</ele>
        <time>2016-02-15T08:55:33Z</time>
      </trkpt>
      <trkpt lat="45.36963" lon="5.90932">
        <ele>1387.391584214</ele>
        <time>2016-02-15T08:55:48Z</time>
      </trkpt>
      <trkpt lat="45.36962" lon="5.90927">
        <ele>1393.705880567</ele>
        <time>2016-02-15T08:55:53Z</time>
      </trkpt>
      <trkpt lat="45.36965" lon="5.90924">
        <ele>1393.705880567</ele>
        <time>2016-02-15T08:56:03Z</time>
      </trkpt>
      <trkpt lat="45.36964" lon="5.90925">
        <ele>1393.705880567</ele>
        <time>2016-02-15T08:56:07Z</time>
      </trkpt>
      <trkpt lat="45.36964" lon="5.90925">
        <ele>1393.705880567</ele>
        <time>2016-02-15T08:56:18Z</time>
      </trkpt>
      <trkpt lat="45.36964" lon="5.90925">
        <ele>1393.705880567</ele>
        <time>2016-02-15T08:56:23Z</time>
      </trkpt>
      <trkpt lat="45.3697" lon="5.90915">
        <ele>1400.970081128</ele>
        <time>2016-02-15T08:56:33Z</time>
      </trkpt>
      <trkpt lat="45.3697" lon="5.90917">
        <ele>1400.970081128</ele>
        <time>2016-02-15T08:56:38Z</time>
      </trkpt>
      <trkpt lat="45.36971" lon="5.90915">
        <ele>1400.970081128</ele>
        <time>2016-02-15T08:56:49Z</time>
      </trkpt>
      <trkpt lat="45.36971" lon="5.90914">
        <ele>1400.970081128</ele>
        <time>2016-02-15T08:56:53Z</time>
      </trkpt>
      <trkpt lat="45.36976" lon="5.90909">
        <ele>1408.379070222</ele>
        <time>2016-02-15T08:57:03Z</time>
      </trkpt>
      <trkpt lat="45.3698" lon="5.90906">
        <ele>1408.379070222</ele>
        <time>2016-02-15T08:57:08Z</time>
      </trkpt>
      <trkpt lat="45.3698" lon="5.90907">
        <ele>1408.379070222</ele>
        <time>2016-02-15T08:57:19Z</time>
      </trkpt>
      <trkpt lat="45.3698" lon="5.90907">
        <ele>1408.379070222</ele>
        <time>2016-02-15T08:57:23Z</time>
      </trkpt>
      <trkpt lat="45.3698" lon="5.90906">
        <ele>1408.379070222</ele>
        <time>2016-02-15T08:57:38Z</time>
      </trkpt>
      <trkpt lat="45.3698" lon="5.90906">
        <ele>1408.379070222</ele>
        <time>2016-02-15T08:57:42Z</time>
      </trkpt>
      <trkpt lat="45.3698" lon="5.90906">
        <ele>1408.379070222</ele>
        <time>2016-02-15T08:57:53Z</time>
      </trkpt>
      <trkpt lat="45.3698" lon="5.90906">
        <ele>1408.379070222</ele>
        <time>2016-02-15T08:57:58Z</time>
      </trkpt>
      <trkpt lat="45.36984" lon="5.90899">
        <ele>1416.195485125</ele>
        <time>2016-02-15T08:58:08Z</time>
      </trkpt>
      <trkpt lat="45.36985" lon="5.90899">
        <ele>1416.195485125</ele>
        <time>2016-02-15T08:58:13Z</time>
      </trkpt>
      <trkpt lat="45.36986" lon="5.90899">
        <ele>1416.195485125</ele>
        <time>2016-02-15T08:58:23Z</time>
      </trkpt>
      <trkpt lat="45.36986" lon="5.90898">
        <ele>1416.195485125</ele>
        <time>2016-02-15T08:58:28Z</time>
      </trkpt>
      <trkpt lat="45.36987" lon="5.90898">
        <ele>1416.195485125</ele>
        <time>2016-02-15T08:58:37Z</time>
      </trkpt>
      <trkpt lat="45.36989" lon="5.90895">
        <ele>1416.195485125</ele>
        <time>2016-02-15T08:58:42Z</time>
      </trkpt>
      <trkpt lat="45.36989" lon="5.90897">
        <ele>1416.195485125</ele>
        <time>2016-02-15T08:58:47Z</time>
      </trkpt>
      <trkpt lat="45.36989" lon="5.90897">
        <ele>1416.195485125</ele>
        <time>2016-02-15T08:58:53Z</time>
      </trkpt>
      <trkpt lat="45.36989" lon="5.90897">
        <ele>1416.195485125</ele>
        <time>2016-02-15T08:59:03Z</time>
      </trkpt>
      <trkpt lat="45.36989" lon="5.90897">
        <ele>1416.195485125</ele>
        <time>2016-02-15T08:59:08Z</time>
      </trkpt>
      <trkpt lat="45.36999" lon="5.90886">
        <ele>1425.814619506</ele>
        <time>2016-02-15T08:59:23Z</time>
      </trkpt>
      <trkpt lat="45.36996" lon="5.90881">
        <ele>1425.814619506</ele>
        <time>2016-02-15T08:59:38Z</time>
      </trkpt>
      <trkpt lat="45.36996" lon="5.90881">
        <ele>1425.814619506</ele>
        <time>2016-02-15T08:59:43Z</time>
      </trkpt>
      <trkpt lat="45.36996" lon="5.90873">
        <ele>1433.768564005</ele>
        <time>2016-02-15T08:59:53Z</time>
      </trkpt>
      <trkpt lat="45.36994" lon="5.90874">
        <ele>1433.768564005</ele>
        <time>2016-02-15T08:59:58Z</time>
      </trkpt>
      <trkpt lat="45.36993" lon="5.90874">
        <ele>1433.768564005</ele>
        <time>2016-02-15T09:00:08Z</time>
      </trkpt>
      <trkpt lat="45.36993" lon="5.90874">
        <ele>1433.768564005</ele>
        <time>2016-02-15T09:00:13Z</time>
      </trkpt>
      <trkpt lat="45.36993" lon="5.90874">
        <ele>1433.768564005</ele>
        <time>2016-02-15T09:00:27Z</time>
      </trkpt>
      <trkpt lat="45.36993" lon="5.90874">
        <ele>1433.768564005</ele>
        <time>2016-02-15T09:00:28Z</time>
      </trkpt>
      <trkpt lat="45.36993" lon="5.90874">
        <ele>1433.768564005</ele>
        <time>2016-02-15T09:00:29Z</time>
      </trkpt>
      <trkpt lat="45.36993" lon="5.90874">
        <ele>1433.768564005</ele>
        <time>2016-02-15T09:00:40Z</time>
      </trkpt>
      <trkpt lat="45.36998" lon="5.90856">
        <ele>1440.596152758</ele>
        <time>2016-02-15T09:01:13Z</time>
      </trkpt>
      <trkpt lat="45.36998" lon="5.90857">
        <ele>1440.596152758</ele>
        <time>2016-02-15T09:01:18Z</time>
      </trkpt>
      <trkpt lat="45.36999" lon="5.90857">
        <ele>1440.596152758</ele>
        <time>2016-02-15T09:01:28Z</time>
      </trkpt>
      <trkpt lat="45.36999" lon="5.90856">
        <ele>1440.596152758</ele>
        <time>2016-02-15T09:01:33Z</time>
      </trkpt>
      <trkpt lat="45.36999" lon="5.90856">
        <ele>1440.596152758</ele>
        <time>2016-02-15T09:01:43Z</time>
      </trkpt>
      <trkpt lat="45.36999" lon="5.90856">
        <ele>1440.596152758</ele>
        <time>2016-02-15T09:01:48Z</time>
      </trkpt>
      <trkpt lat="45.36999" lon="5.90857">
        <ele>1440.596152758</ele>
        <time>2016-02-15T09:01:58Z</time>
      </trkpt>
      <trkpt lat="45.36999" lon="5.90857">
        <ele>1440.596152758</ele>
        <time>2016-02-15T09:02:03Z</time>
      </trkpt>
      <trkpt lat="45.36999" lon="5.90856">
        <ele>1440.596152758</ele>
        <time>2016-02-15T09:02:12Z</time>
      </trkpt>
      <trkpt lat="45.37" lon="5.90857">
        <ele>1440.596152758</ele>
        <time>2016-02-15T09:02:17Z</time>
      </trkpt>
      <trkpt lat="45.3701" lon="5.90852">
        <ele>1447.952949315</ele>
        <time>2016-02-15T09:02:28Z</time>
      </trkpt>
      <trkpt lat="45.37019" lon="5.90846">
        <ele>1454.777642848</ele>
        <time>2016-02-15T09:02:32Z</time>
      </trkpt>
      <trkpt lat="45.37026" lon="5.90846">
        <ele>1454.777642848</ele>
        <time>2016-02-15T09:02:43Z</time>
      </trkpt>
      <trkpt lat="45.37026" lon="5.90845">
        <ele>1454.777642848</ele>
        <time>2016-02-15T09:02:48Z</time>
      </trkpt>
      <trkpt lat="45.37026" lon="5.90845">
        <ele>1454.777642848</ele>
        <time>2016-02-15T09:02:53Z</time>
      </trkpt>
      <trkpt lat="45.37027" lon="5.90845">
        <ele>1454.777642848</ele>
        <time>2016-02-15T09:02:58Z</time>
      </trkpt>
      <trkpt lat="45.37026" lon="5.90845">
        <ele>1461.673941998</ele>
        <time>2016-02-15T09:03:03Z</time>
      </trkpt>
      <trkpt lat="45.37026" lon="5.90845">
        <ele>1461.673941998</ele>
        <time>2016-02-15T09:03:18Z</time>
      </trkpt>
      <trkpt lat="45.37026" lon="5.90845">
        <ele>1461.673941998</ele>
        <time>2016-02-15T09:03:23Z</time>
      </trkpt>
      <trkpt lat="45.37026" lon="5.90845">
        <ele>1461.673941998</ele>
        <time>2016-02-15T09:03:33Z</time>
      </trkpt>
      <trkpt lat="45.37026" lon="5.90845">
        <ele>1461.673941998</ele>
        <time>2016-02-15T09:03:38Z</time>
      </trkpt>
      <trkpt lat="45.37026" lon="5.90845">
        <ele>1461.673941998</ele>
        <time>2016-02-15T09:03:48Z</time>
      </trkpt>
      <trkpt lat="45.37026" lon="5.90845">
        <ele>1461.673941998</ele>
        <time>2016-02-15T09:03:53Z</time>
      </trkpt>
      <trkpt lat="45.37026" lon="5.90845">
        <ele>1461.673941998</ele>
        <time>2016-02-15T09:04:03Z</time>
      </trkpt>
      <trkpt lat="45.37034" lon="5.90841">
        <ele>1467.616085579</ele>
        <time>2016-02-15T09:04:08Z</time>
      </trkpt>
      <trkpt lat="45.37041" lon="5.90843">
        <ele>1467.616085579</ele>
        <time>2016-02-15T09:04:18Z</time>
      </trkpt>
      <trkpt lat="45.37042" lon="5.90843">
        <ele>1467.616085579</ele>
        <time>2016-02-15T09:04:23Z</time>
      </trkpt>
      <trkpt lat="45.37045" lon="5.90841">
        <ele>1473.818362579</ele>
        <time>2016-02-15T09:04:39Z</time>
      </trkpt>
      <trkpt lat="45.37046" lon="5.90841">
        <ele>1473.818362579</ele>
        <time>2016-02-15T09:04:42Z</time>
      </trkpt>
      <trkpt lat="45.37047" lon="5.9084">
        <ele>1473.818362579</ele>
        <time>2016-02-15T09:04:53Z</time>
      </trkpt>
      <trkpt lat="45.37048" lon="5.9084">
        <ele>1473.818362579</ele>
        <time>2016-02-15T09:05:18Z</time>
      </trkpt>
      <trkpt lat="45.37054" lon="5.90824">
        <ele>1479.099663657</ele>
        <time>2016-02-15T09:05:32Z</time>
      </trkpt>
      <trkpt lat="45.37072" lon="5.90817">
        <ele>1484.530251011</ele>
        <time>2016-02-15T09:05:57Z</time>
      </trkpt>
      <trkpt lat="45.37072" lon="5.90818">
        <ele>1484.530251011</ele>
        <time>2016-02-15T09:05:58Z</time>
      </trkpt>
      <trkpt lat="45.37073" lon="5.90818">
        <ele>1484.530251011</ele>
        <time>2016-02-15T09:06:12Z</time>
      </trkpt>
      <trkpt lat="45.37074" lon="5.90818">
        <ele>1484.530251011</ele>
        <time>2016-02-15T09:06:29Z</time>
      </trkpt>
      <trkpt lat="45.37074" lon="5.90818">
        <ele>1484.530251011</ele>
        <time>2016-02-15T09:06:53Z</time>
      </trkpt>
      <trkpt lat="45.37082" lon="5.90816">
        <ele>1490.52523149</ele>
        <time>2016-02-15T09:07:44Z</time>
      </trkpt>
      <trkpt lat="45.37085" lon="5.90816">
        <ele>1490.52523149</ele>
        <time>2016-02-15T09:07:48Z</time>
      </trkpt>
      <trkpt lat="45.37095" lon="5.9082">
        <ele>1496.747401075</ele>
        <time>2016-02-15T09:08:37Z</time>
      </trkpt>
      <trkpt lat="45.37095" lon="5.9082">
        <ele>1496.747401075</ele>
        <time>2016-02-15T09:08:39Z</time>
      </trkpt>
      <trkpt lat="45.37095" lon="5.9082">
        <ele>1496.747401075</ele>
        <time>2016-02-15T09:08:48Z</time>
      </trkpt>
      <trkpt lat="45.371" lon="5.90818">
        <ele>1496.747401075</ele>
        <time>2016-02-15T09:08:53Z</time>
      </trkpt>
      <trkpt lat="45.37104" lon="5.90818">
        <ele>1502.739899917</ele>
        <time>2016-02-15T09:09:03Z</time>
      </trkpt>
      <trkpt lat="45.37104" lon="5.90818">
        <ele>1502.739899917</ele>
        <time>2016-02-15T09:09:08Z</time>
      </trkpt>
      <trkpt lat="45.37112" lon="5.90809">
        <ele>1508.65684791</ele>
        <time>2016-02-15T09:09:18Z</time>
      </trkpt>
      <trkpt lat="45.37112" lon="5.9081">
        <ele>1508.65684791</ele>
        <time>2016-02-15T09:09:23Z</time>
      </trkpt>
      <trkpt lat="45.37113" lon="5.9081">
        <ele>1508.65684791</ele>
        <time>2016-02-15T09:09:33Z</time>
      </trkpt>
      <trkpt lat="45.37113" lon="5.9081">
        <ele>1508.65684791</ele>
        <time>2016-02-15T09:09:38Z</time>
      </trkpt>
      <trkpt lat="45.37113" lon="5.9081">
        <ele>1508.65684791</ele>
        <time>2016-02-15T09:09:49Z</time>
      </trkpt>
      <trkpt lat="45.37113" lon="5.9081">
        <ele>1508.65684791</ele>
        <time>2016-02-15T09:09:53Z</time>
      </trkpt>
      <trkpt lat="45.37113" lon="5.90809">
        <ele>1508.65684791</ele>
        <time>2016-02-15T09:10:03Z</time>
      </trkpt>
      <trkpt lat="45.37115" lon="5.90811">
        <ele>1508.65684791</ele>
        <time>2016-02-15T09:10:08Z</time>
      </trkpt>
      <trkpt lat="45.37115" lon="5.90813">
        <ele>1508.65684791</ele>
        <time>2016-02-15T09:10:12Z</time>
      </trkpt>
      <trkpt lat="45.37115" lon="5.90814">
        <ele>1508.65684791</ele>
        <time>2016-02-15T09:10:17Z</time>
      </trkpt>
      <trkpt lat="45.37115" lon="5.90814">
        <ele>1508.65684791</ele>
        <time>2016-02-15T09:10:22Z</time>
      </trkpt>
      <trkpt lat="45.37115" lon="5.90813">
        <ele>1508.65684791</ele>
        <time>2016-02-15T09:10:28Z</time>
      </trkpt>
      <trkpt lat="45.37116" lon="5.90812">
        <ele>1508.65684791</ele>
        <time>2016-02-15T09:10:43Z</time>
      </trkpt>
      <trkpt lat="45.37119" lon="5.90805">
        <ele>1515.794488693</ele>
        <time>2016-02-15T09:10:57Z</time>
      </trkpt>
      <trkpt lat="45.37119" lon="5.90803">
        <ele>1515.794488693</ele>
        <time>2016-02-15T09:11:03Z</time>
      </trkpt>
      <trkpt lat="45.3712" lon="5.90793">
        <ele>1515.794488693</ele>
        <time>2016-02-15T09:11:13Z</time>
      </trkpt>
      <trkpt lat="45.37121" lon="5.90788">
        <ele>1522.036116639</ele>
        <time>2016-02-15T09:11:17Z</time>
      </trkpt>
      <trkpt lat="45.37124" lon="5.90781">
        <ele>1522.036116639</ele>
        <time>2016-02-15T09:11:28Z</time>
      </trkpt>
      <trkpt lat="45.37124" lon="5.90781">
        <ele>1522.036116639</ele>
        <time>2016-02-15T09:11:33Z</time>
      </trkpt>
      <trkpt lat="45.37124" lon="5.90781">
        <ele>1522.036116639</ele>
        <time>2016-02-15T09:11:49Z</time>
      </trkpt>
      <trkpt lat="45.37124" lon="5.90781">
        <ele>1522.036116639</ele>
        <time>2016-02-15T09:11:50Z</time>
      </trkpt>
      <trkpt lat="45.37124" lon="5.90781">
        <ele>1522.036116639</ele>
        <time>2016-02-15T09:12:02Z</time>
      </trkpt>
      <trkpt lat="45.37125" lon="5.90769">
        <ele>1527.873284076</ele>
        <time>2016-02-15T09:12:26Z</time>
      </trkpt>
      <trkpt lat="45.37125" lon="5.90769">
        <ele>1527.873284076</ele>
        <time>2016-02-15T09:12:27Z</time>
      </trkpt>
      <trkpt lat="45.37125" lon="5.90769">
        <ele>1527.873284076</ele>
        <time>2016-02-15T09:12:55Z</time>
      </trkpt>
      <trkpt lat="45.37125" lon="5.90769">
        <ele>1527.873284076</ele>
        <time>2016-02-15T09:12:55Z</time>
      </trkpt>
      <trkpt lat="45.37125" lon="5.90769">
        <ele>1527.873284076</ele>
        <time>2016-02-15T09:12:57Z</time>
      </trkpt>
      <trkpt lat="45.37125" lon="5.90769">
        <ele>1527.873284076</ele>
        <time>2016-02-15T09:12:58Z</time>
      </trkpt>
      <trkpt lat="45.37125" lon="5.90769">
        <ele>1527.873284076</ele>
        <time>2016-02-15T09:13:00Z</time>
      </trkpt>
      <trkpt lat="45.37126" lon="5.90769">
        <ele>1527.873284076</ele>
        <time>2016-02-15T09:13:09Z</time>
      </trkpt>
      <trkpt lat="45.37126" lon="5.90769">
        <ele>1527.873284076</ele>
        <time>2016-02-15T09:13:18Z</time>
      </trkpt>
      <trkpt lat="45.37133" lon="5.9076">
        <ele>1533.618767396</ele>
        <time>2016-02-15T09:13:28Z</time>
      </trkpt>
      <trkpt lat="45.37134" lon="5.9076">
        <ele>1533.618767396</ele>
        <time>2016-02-15T09:13:33Z</time>
      </trkpt>
      <trkpt lat="45.37138" lon="5.90757">
        <ele>1533.618767396</ele>
        <time>2016-02-15T09:14:20Z</time>
      </trkpt>
      <trkpt lat="45.37138" lon="5.90757">
        <ele>1533.618767396</ele>
        <time>2016-02-15T09:14:20Z</time>
      </trkpt>
      <trkpt lat="45.37138" lon="5.90757">
        <ele>1533.618767396</ele>
        <time>2016-02-15T09:14:21Z</time>
      </trkpt>
      <trkpt lat="45.37142" lon="5.90752">
        <ele>1539.995275119</ele>
        <time>2016-02-15T09:14:35Z</time>
      </trkpt>
      <trkpt lat="45.37145" lon="5.90751">
        <ele>1539.995275119</ele>
        <time>2016-02-15T09:14:37Z</time>
      </trkpt>
      <trkpt lat="45.37146" lon="5.9075">
        <ele>1539.995275119</ele>
        <time>2016-02-15T09:15:24Z</time>
      </trkpt>
      <trkpt lat="45.37146" lon="5.9075">
        <ele>1539.995275119</ele>
        <time>2016-02-15T09:15:33Z</time>
      </trkpt>
      <trkpt lat="45.37146" lon="5.9075">
        <ele>1539.995275119</ele>
        <time>2016-02-15T09:15:37Z</time>
      </trkpt>
      <trkpt lat="45.37146" lon="5.9075">
        <ele>1539.995275119</ele>
        <time>2016-02-15T09:15:52Z</time>
      </trkpt>
      <trkpt lat="45.37146" lon="5.9075">
        <ele>1539.995275119</ele>
        <time>2016-02-15T09:15:58Z</time>
      </trkpt>
      <trkpt lat="45.37146" lon="5.9075">
        <ele>1539.995275119</ele>
        <time>2016-02-15T09:16:08Z</time>
      </trkpt>
      <trkpt lat="45.37146" lon="5.9075">
        <ele>1539.995275119</ele>
        <time>2016-02-15T09:16:13Z</time>
      </trkpt>
      <trkpt lat="45.37146" lon="5.90749">
        <ele>1539.995275119</ele>
        <time>2016-02-15T09:16:23Z</time>
      </trkpt>
      <trkpt lat="45.37146" lon="5.90749">
        <ele>1539.995275119</ele>
        <time>2016-02-15T09:16:28Z</time>
      </trkpt>
      <trkpt lat="45.37146" lon="5.90749">
        <ele>1539.995275119</ele>
        <time>2016-02-15T09:16:43Z</time>
      </trkpt>
      <trkpt lat="45.37146" lon="5.90749">
        <ele>1539.995275119</ele>
        <time>2016-02-15T09:16:48Z</time>
      </trkpt>
      <trkpt lat="45.37146" lon="5.90749">
        <ele>1539.995275119</ele>
        <time>2016-02-15T09:16:58Z</time>
      </trkpt>
      <trkpt lat="45.37146" lon="5.90749">
        <ele>1539.995275119</ele>
        <time>2016-02-15T09:17:03Z</time>
      </trkpt>
      <trkpt lat="45.37146" lon="5.90749">
        <ele>1539.995275119</ele>
        <time>2016-02-15T09:17:13Z</time>
      </trkpt>
      <trkpt lat="45.37146" lon="5.90749">
        <ele>1539.995275119</ele>
        <time>2016-02-15T09:17:18Z</time>
      </trkpt>
      <trkpt lat="45.37146" lon="5.90749">
        <ele>1539.995275119</ele>
        <time>2016-02-15T09:17:28Z</time>
      </trkpt>
      <trkpt lat="45.37146" lon="5.90749">
        <ele>1539.995275119</ele>
        <time>2016-02-15T09:17:33Z</time>
      </trkpt>
      <trkpt lat="45.37146" lon="5.90749">
        <ele>1539.995275119</ele>
        <time>2016-02-15T09:17:45Z</time>
      </trkpt>
      <trkpt lat="45.37147" lon="5.90749">
        <ele>1539.995275119</ele>
        <time>2016-02-15T09:17:48Z</time>
      </trkpt>
      <trkpt lat="45.37147" lon="5.90749">
        <ele>1539.995275119</ele>
        <time>2016-02-15T09:17:53Z</time>
      </trkpt>
      <trkpt lat="45.37147" lon="5.90749">
        <ele>1539.995275119</ele>
        <time>2016-02-15T09:18:03Z</time>
      </trkpt>
      <trkpt lat="45.37147" lon="5.90749">
        <ele>1539.995275119</ele>
        <time>2016-02-15T09:18:08Z</time>
      </trkpt>
      <trkpt lat="45.37147" lon="5.90749">
        <ele>1539.995275119</ele>
        <time>2016-02-15T09:18:18Z</time>
      </trkpt>
      <trkpt lat="45.37147" lon="5.90749">
        <ele>1539.995275119</ele>
        <time>2016-02-15T09:18:23Z</time>
      </trkpt>
      <trkpt lat="45.37147" lon="5.90749">
        <ele>1539.995275119</ele>
        <time>2016-02-15T09:18:33Z</time>
      </trkpt>
      <trkpt lat="45.37147" lon="5.90748">
        <ele>1539.995275119</ele>
        <time>2016-02-15T09:18:38Z</time>
      </trkpt>
      <trkpt lat="45.37147" lon="5.90748">
        <ele>1539.995275119</ele>
        <time>2016-02-15T09:18:48Z</time>
      </trkpt>
      <trkpt lat="45.37147" lon="5.90748">
        <ele>1539.995275119</ele>
        <time>2016-02-15T09:18:53Z</time>
      </trkpt>
      <trkpt lat="45.37147" lon="5.90748">
        <ele>1539.995275119</ele>
        <time>2016-02-15T09:19:08Z</time>
      </trkpt>
      <trkpt lat="45.37147" lon="5.90748">
        <ele>1539.995275119</ele>
        <time>2016-02-15T09:19:13Z</time>
      </trkpt>
      <trkpt lat="45.37147" lon="5.90748">
        <ele>1539.995275119</ele>
        <time>2016-02-15T09:19:23Z</time>
      </trkpt>
      <trkpt lat="45.37147" lon="5.90748">
        <ele>1539.995275119</ele>
        <time>2016-02-15T09:19:28Z</time>
      </trkpt>
      <trkpt lat="45.37147" lon="5.90748">
        <ele>1539.995275119</ele>
        <time>2016-02-15T09:19:51Z</time>
      </trkpt>
      <trkpt lat="45.37147" lon="5.90748">
        <ele>1539.995275119</ele>
        <time>2016-02-15T09:19:52Z</time>
      </trkpt>
      <trkpt lat="45.37147" lon="5.90748">
        <ele>1539.995275119</ele>
        <time>2016-02-15T09:20:10Z</time>
      </trkpt>
      <trkpt lat="45.37147" lon="5.90748">
        <ele>1539.995275119</ele>
        <time>2016-02-15T09:20:12Z</time>
      </trkpt>
      <trkpt lat="45.37147" lon="5.90747">
        <ele>1539.995275119</ele>
        <time>2016-02-15T09:20:44Z</time>
      </trkpt>
      <trkpt lat="45.37147" lon="5.90747">
        <ele>1539.995275119</ele>
        <time>2016-02-15T09:20:47Z</time>
      </trkpt>
      <trkpt lat="45.37148" lon="5.90747">
        <ele>1539.995275119</ele>
        <time>2016-02-15T09:22:00Z</time>
      </trkpt>
      <trkpt lat="45.37148" lon="5.90747">
        <ele>1539.995275119</ele>
        <time>2016-02-15T09:22:00Z</time>
      </trkpt>
      <trkpt lat="45.37148" lon="5.90747">
        <ele>1539.995275119</ele>
        <time>2016-02-15T09:22:02Z</time>
      </trkpt>
      <trkpt lat="45.37148" lon="5.90747">
        <ele>1539.995275119</ele>
        <time>2016-02-15T09:23:17Z</time>
      </trkpt>
      <trkpt lat="45.37148" lon="5.90747">
        <ele>1539.995275119</ele>
        <time>2016-02-15T09:23:18Z</time>
      </trkpt>
      <trkpt lat="45.37148" lon="5.90747">
        <ele>1539.995275119</ele>
        <time>2016-02-15T09:23:19Z</time>
      </trkpt>
      <trkpt lat="45.37148" lon="5.90747">
        <ele>1539.995275119</ele>
        <time>2016-02-15T09:23:35Z</time>
      </trkpt>
      <trkpt lat="45.37148" lon="5.90747">
        <ele>1539.995275119</ele>
        <time>2016-02-15T09:23:36Z</time>
      </trkpt>
      <trkpt lat="45.37148" lon="5.90747">
        <ele>1539.995275119</ele>
        <time>2016-02-15T09:23:37Z</time>
      </trkpt>
      <trkpt lat="45.37148" lon="5.90747">
        <ele>1539.995275119</ele>
        <time>2016-02-15T09:23:38Z</time>
      </trkpt>
      <trkpt lat="45.37148" lon="5.90747">
        <ele>1539.995275119</ele>
        <time>2016-02-15T09:24:12Z</time>
      </trkpt>
      <trkpt lat="45.37148" lon="5.90747">
        <ele>1539.995275119</ele>
        <time>2016-02-15T09:24:14Z</time>
      </trkpt>
      <trkpt lat="45.37149" lon="5.90747">
        <ele>1539.995275119</ele>
        <time>2016-02-15T09:24:27Z</time>
      </trkpt>
      <trkpt lat="45.37149" lon="5.90747">
        <ele>1539.995275119</ele>
        <time>2016-02-15T09:24:37Z</time>
      </trkpt>
      <trkpt lat="45.37149" lon="5.90747">
        <ele>1539.995275119</ele>
        <time>2016-02-15T09:24:44Z</time>
      </trkpt>
      <trkpt lat="45.37149" lon="5.90747">
        <ele>1539.995275119</ele>
        <time>2016-02-15T09:24:55Z</time>
      </trkpt>
      <trkpt lat="45.37149" lon="5.90747">
        <ele>1539.995275119</ele>
        <time>2016-02-15T09:24:57Z</time>
      </trkpt>
      <trkpt lat="45.37149" lon="5.90747">
        <ele>1539.995275119</ele>
        <time>2016-02-15T09:25:25Z</time>
      </trkpt>
      <trkpt lat="45.37149" lon="5.90747">
        <ele>1539.995275119</ele>
        <time>2016-02-15T09:25:25Z</time>
      </trkpt>
      <trkpt lat="45.37149" lon="5.90747">
        <ele>1539.995275119</ele>
        <time>2016-02-15T09:25:26Z</time>
      </trkpt>
      <trkpt lat="45.37149" lon="5.90747">
        <ele>1539.995275119</ele>
        <time>2016-02-15T09:25:28Z</time>
      </trkpt>
      <trkpt lat="45.37149" lon="5.90747">
        <ele>1539.995275119</ele>
        <time>2016-02-15T09:25:46Z</time>
      </trkpt>
      <trkpt lat="45.37149" lon="5.90747">
        <ele>1539.995275119</ele>
        <time>2016-02-15T09:25:48Z</time>
      </trkpt>
      <trkpt lat="45.3715" lon="5.90741">
        <ele>1545.076887236</ele>
        <time>2016-02-15T09:26:02Z</time>
      </trkpt>
      <trkpt lat="45.3715" lon="5.90741">
        <ele>1545.076887236</ele>
        <time>2016-02-15T09:26:13Z</time>
      </trkpt>
      <trkpt lat="45.37151" lon="5.90741">
        <ele>1545.076887236</ele>
        <time>2016-02-15T09:26:18Z</time>
      </trkpt>
      <trkpt lat="45.37152" lon="5.9074">
        <ele>1545.076887236</ele>
        <time>2016-02-15T09:26:28Z</time>
      </trkpt>
      <trkpt lat="45.37152" lon="5.90739">
        <ele>1545.076887236</ele>
        <time>2016-02-15T09:26:33Z</time>
      </trkpt>
      <trkpt lat="45.37148" lon="5.90741">
        <ele>1545.076887236</ele>
        <time>2016-02-15T09:26:53Z</time>
      </trkpt>
      <trkpt lat="45.37148" lon="5.90741">
        <ele>1545.076887236</ele>
        <time>2016-02-15T09:27:03Z</time>
      </trkpt>
      <trkpt lat="45.37148" lon="5.90741">
        <ele>1545.076887236</ele>
        <time>2016-02-15T09:27:08Z</time>
      </trkpt>
      <trkpt lat="45.37148" lon="5.90741">
        <ele>1545.076887236</ele>
        <time>2016-02-15T09:27:18Z</time>
      </trkpt>
      <trkpt lat="45.37148" lon="5.90741">
        <ele>1545.076887236</ele>
        <time>2016-02-15T09:27:23Z</time>
      </trkpt>
      <trkpt lat="45.37148" lon="5.90741">
        <ele>1545.076887236</ele>
        <time>2016-02-15T09:27:33Z</time>
      </trkpt>
      <trkpt lat="45.37148" lon="5.90741">
        <ele>1545.076887236</ele>
        <time>2016-02-15T09:27:38Z</time>
      </trkpt>
      <trkpt lat="45.37148" lon="5.90741">
        <ele>1545.076887236</ele>
        <time>2016-02-15T09:27:48Z</time>
      </trkpt>
      <trkpt lat="45.37148" lon="5.90741">
        <ele>1545.076887236</ele>
        <time>2016-02-15T09:27:53Z</time>
      </trkpt>
      <trkpt lat="45.37148" lon="5.90741">
        <ele>1545.076887236</ele>
        <time>2016-02-15T09:28:07Z</time>
      </trkpt>
      <trkpt lat="45.37148" lon="5.90741">
        <ele>1545.076887236</ele>
        <time>2016-02-15T09:28:12Z</time>
      </trkpt>
      <trkpt lat="45.37149" lon="5.90741">
        <ele>1545.076887236</ele>
        <time>2016-02-15T09:28:22Z</time>
      </trkpt>
      <trkpt lat="45.37149" lon="5.90741">
        <ele>1545.076887236</ele>
        <time>2016-02-15T09:28:38Z</time>
      </trkpt>
      <trkpt lat="45.37149" lon="5.90741">
        <ele>1545.076887236</ele>
        <time>2016-02-15T09:28:43Z</time>
      </trkpt>
      <trkpt lat="45.37149" lon="5.90741">
        <ele>1545.076887236</ele>
        <time>2016-02-15T09:28:53Z</time>
      </trkpt>
      <trkpt lat="45.37149" lon="5.90741">
        <ele>1545.076887236</ele>
        <time>2016-02-15T09:28:58Z</time>
      </trkpt>
      <trkpt lat="45.37149" lon="5.90741">
        <ele>1545.076887236</ele>
        <time>2016-02-15T09:29:08Z</time>
      </trkpt>
      <trkpt lat="45.37149" lon="5.90741">
        <ele>1545.076887236</ele>
        <time>2016-02-15T09:29:13Z</time>
      </trkpt>
      <trkpt lat="45.37149" lon="5.90741">
        <ele>1545.076887236</ele>
        <time>2016-02-15T09:29:23Z</time>
      </trkpt>
      <trkpt lat="45.37149" lon="5.90741">
        <ele>1545.076887236</ele>
        <time>2016-02-15T09:29:28Z</time>
      </trkpt>
      <trkpt lat="45.37149" lon="5.90741">
        <ele>1545.076887236</ele>
        <time>2016-02-15T09:29:38Z</time>
      </trkpt>
      <trkpt lat="45.37149" lon="5.90741">
        <ele>1545.076887236</ele>
        <time>2016-02-15T09:29:43Z</time>
      </trkpt>
      <trkpt lat="45.37149" lon="5.90741">
        <ele>1545.076887236</ele>
        <time>2016-02-15T09:29:53Z</time>
      </trkpt>
      <trkpt lat="45.37149" lon="5.90741">
        <ele>1545.076887236</ele>
        <time>2016-02-15T09:29:58Z</time>
      </trkpt>
      <trkpt lat="45.37149" lon="5.90741">
        <ele>1545.076887236</ele>
        <time>2016-02-15T09:30:08Z</time>
      </trkpt>
      <trkpt lat="45.37149" lon="5.90741">
        <ele>1545.076887236</ele>
        <time>2016-02-15T09:30:13Z</time>
      </trkpt>
      <trkpt lat="45.37149" lon="5.90741">
        <ele>1545.076887236</ele>
        <time>2016-02-15T09:30:23Z</time>
      </trkpt>
      <trkpt lat="45.37149" lon="5.90741">
        <ele>1545.076887236</ele>
        <time>2016-02-15T09:30:28Z</time>
      </trkpt>
      <trkpt lat="45.37149" lon="5.90741">
        <ele>1545.076887236</ele>
        <time>2016-02-15T09:30:43Z</time>
      </trkpt>
      <trkpt lat="45.37149" lon="5.90741">
        <ele>1545.076887236</ele>
        <time>2016-02-15T09:30:48Z</time>
      </trkpt>
      <trkpt lat="45.37149" lon="5.90741">
        <ele>1545.076887236</ele>
        <time>2016-02-15T09:30:58Z</time>
      </trkpt>
      <trkpt lat="45.37149" lon="5.90741">
        <ele>1545.076887236</ele>
        <time>2016-02-15T09:31:03Z</time>
      </trkpt>
      <trkpt lat="45.37149" lon="5.90741">
        <ele>1545.076887236</ele>
        <time>2016-02-15T09:31:14Z</time>
      </trkpt>
      <trkpt lat="45.37149" lon="5.90741">
        <ele>1545.076887236</ele>
        <time>2016-02-15T09:31:18Z</time>
      </trkpt>
      <trkpt lat="45.37149" lon="5.90741">
        <ele>1545.076887236</ele>
        <time>2016-02-15T09:31:27Z</time>
      </trkpt>
      <trkpt lat="45.37149" lon="5.90741">
        <ele>1545.076887236</ele>
        <time>2016-02-15T09:31:33Z</time>
      </trkpt>
      <trkpt lat="45.37149" lon="5.90741">
        <ele>1545.076887236</ele>
        <time>2016-02-15T09:31:45Z</time>
      </trkpt>
      <trkpt lat="45.37149" lon="5.90741">
        <ele>1545.076887236</ele>
        <time>2016-02-15T09:31:49Z</time>
      </trkpt>
      <trkpt lat="45.37149" lon="5.90741">
        <ele>1545.076887236</ele>
        <time>2016-02-15T09:32:07Z</time>
      </trkpt>
      <trkpt lat="45.37149" lon="5.90741">
        <ele>1545.076887236</ele>
        <time>2016-02-15T09:32:08Z</time>
      </trkpt>
      <trkpt lat="45.37149" lon="5.90741">
        <ele>1545.076887236</ele>
        <time>2016-02-15T09:32:19Z</time>
      </trkpt>
      <trkpt lat="45.37149" lon="5.90741">
        <ele>1545.076887236</ele>
        <time>2016-02-15T09:32:40Z</time>
      </trkpt>
      <trkpt lat="45.37149" lon="5.90741">
        <ele>1545.076887236</ele>
        <time>2016-02-15T09:32:48Z</time>
      </trkpt>
      <trkpt lat="45.3715" lon="5.90741">
        <ele>1545.076887236</ele>
        <time>2016-02-15T09:33:26Z</time>
      </trkpt>
      <trkpt lat="45.3715" lon="5.90741">
        <ele>1545.076887236</ele>
        <time>2016-02-15T09:33:27Z</time>
      </trkpt>
      <trkpt lat="45.3715" lon="5.90741">
        <ele>1545.076887236</ele>
        <time>2016-02-15T09:33:28Z</time>
      </trkpt>
      <trkpt lat="45.3715" lon="5.90741">
        <ele>1545.076887236</ele>
        <time>2016-02-15T09:33:30Z</time>
      </trkpt>
      <trkpt lat="45.3715" lon="5.90741">
        <ele>1545.076887236</ele>
        <time>2016-02-15T09:33:37Z</time>
      </trkpt>
      <trkpt lat="45.3715" lon="5.90741">
        <ele>1545.076887236</ele>
        <time>2016-02-15T09:34:25Z</time>
      </trkpt>
      <trkpt lat="45.3715" lon="5.90741">
        <ele>1545.076887236</ele>
        <time>2016-02-15T09:34:26Z</time>
      </trkpt>
      <trkpt lat="45.3715" lon="5.90741">
        <ele>1545.076887236</ele>
        <time>2016-02-15T09:34:47Z</time>
      </trkpt>
      <trkpt lat="45.3715" lon="5.90741">
        <ele>1545.076887236</ele>
        <time>2016-02-15T09:34:47Z</time>
      </trkpt>
      <trkpt lat="45.3715" lon="5.90741">
        <ele>1545.076887236</ele>
        <time>2016-02-15T09:34:48Z</time>
      </trkpt>
      <trkpt lat="45.3715" lon="5.90741">
        <ele>1545.076887236</ele>
        <time>2016-02-15T09:35:00Z</time>
      </trkpt>
      <trkpt lat="45.3715" lon="5.90741">
        <ele>1545.076887236</ele>
        <time>2016-02-15T09:35:02Z</time>
      </trkpt>
      <trkpt lat="45.3715" lon="5.90741">
        <ele>1545.076887236</ele>
        <time>2016-02-15T09:35:20Z</time>
      </trkpt>
      <trkpt lat="45.3715" lon="5.9074">
        <ele>1545.076887236</ele>
        <time>2016-02-15T09:35:47Z</time>
      </trkpt>
      <trkpt lat="45.3715" lon="5.9074">
        <ele>1545.076887236</ele>
        <time>2016-02-15T09:35:49Z</time>
      </trkpt>
      <trkpt lat="45.3715" lon="5.9074">
        <ele>1545.076887236</ele>
        <time>2016-02-15T09:35:50Z</time>
      </trkpt>
      <trkpt lat="45.3715" lon="5.9074">
        <ele>1549.533032393</ele>
        <time>2016-02-15T09:36:10Z</time>
      </trkpt>
      <trkpt lat="45.3715" lon="5.9074">
        <ele>1549.533032393</ele>
        <time>2016-02-15T09:36:41Z</time>
      </trkpt>
      <trkpt lat="45.3715" lon="5.9074">
        <ele>1549.533032393</ele>
        <time>2016-02-15T09:36:42Z</time>
      </trkpt>
      <trkpt lat="45.3715" lon="5.9074">
        <ele>1549.533032393</ele>
        <time>2016-02-15T09:37:10Z</time>
      </trkpt>
      <trkpt lat="45.3715" lon="5.90739">
        <ele>1549.533032393</ele>
        <time>2016-02-15T09:37:44Z</time>
      </trkpt>
      <trkpt lat="45.3715" lon="5.90739">
        <ele>1549.533032393</ele>
        <time>2016-02-15T09:37:45Z</time>
      </trkpt>
      <trkpt lat="45.3715" lon="5.90739">
        <ele>1549.533032393</ele>
        <time>2016-02-15T09:37:47Z</time>
      </trkpt>
      <trkpt lat="45.3715" lon="5.90739">
        <ele>1549.533032393</ele>
        <time>2016-02-15T09:37:48Z</time>
      </trkpt>
      <trkpt lat="45.3715" lon="5.90739">
        <ele>1549.533032393</ele>
        <time>2016-02-15T09:38:17Z</time>
      </trkpt>
      <trkpt lat="45.3715" lon="5.90739">
        <ele>1549.533032393</ele>
        <time>2016-02-15T09:38:37Z</time>
      </trkpt>
      <trkpt lat="45.37152" lon="5.90729">
        <ele>1549.533032393</ele>
        <time>2016-02-15T09:38:51Z</time>
      </trkpt>
      <trkpt lat="45.37152" lon="5.90728">
        <ele>1554.130105828</ele>
        <time>2016-02-15T09:38:52Z</time>
      </trkpt>
      <trkpt lat="45.37156" lon="5.90724">
        <ele>1554.130105828</ele>
        <time>2016-02-15T09:38:58Z</time>
      </trkpt>
      <trkpt lat="45.37157" lon="5.90723">
        <ele>1554.130105828</ele>
        <time>2016-02-15T09:39:08Z</time>
      </trkpt>
      <trkpt lat="45.37157" lon="5.90723">
        <ele>1554.130105828</ele>
        <time>2016-02-15T09:39:13Z</time>
      </trkpt>
      <trkpt lat="45.37157" lon="5.90723">
        <ele>1554.130105828</ele>
        <time>2016-02-15T09:39:23Z</time>
      </trkpt>
      <trkpt lat="45.37157" lon="5.90723">
        <ele>1554.130105828</ele>
        <time>2016-02-15T09:39:28Z</time>
      </trkpt>
      <trkpt lat="45.37157" lon="5.90723">
        <ele>1554.130105828</ele>
        <time>2016-02-15T09:39:38Z</time>
      </trkpt>
      <trkpt lat="45.37158" lon="5.90723">
        <ele>1554.130105828</ele>
        <time>2016-02-15T09:39:43Z</time>
      </trkpt>
      <trkpt lat="45.37158" lon="5.90722">
        <ele>1554.130105828</ele>
        <time>2016-02-15T09:39:53Z</time>
      </trkpt>
      <trkpt lat="45.37158" lon="5.9072">
        <ele>1554.130105828</ele>
        <time>2016-02-15T09:39:58Z</time>
      </trkpt>
      <trkpt lat="45.37162" lon="5.90718">
        <ele>1559.578064928</ele>
        <time>2016-02-15T09:40:08Z</time>
      </trkpt>
      <trkpt lat="45.37162" lon="5.90717">
        <ele>1559.578064928</ele>
        <time>2016-02-15T09:40:13Z</time>
      </trkpt>
      <trkpt lat="45.37162" lon="5.90717">
        <ele>1559.578064928</ele>
        <time>2016-02-15T09:40:23Z</time>
      </trkpt>
      <trkpt lat="45.37175" lon="5.90701">
        <ele>1563.650269026</ele>
        <time>2016-02-15T09:41:05Z</time>
      </trkpt>
      <trkpt lat="45.37175" lon="5.90701">
        <ele>1563.650269026</ele>
        <time>2016-02-15T09:41:16Z</time>
      </trkpt>
      <trkpt lat="45.37175" lon="5.90701">
        <ele>1563.650269026</ele>
        <time>2016-02-15T09:41:17Z</time>
      </trkpt>
      <trkpt lat="45.37174" lon="5.90701">
        <ele>1563.650269026</ele>
        <time>2016-02-15T09:41:32Z</time>
      </trkpt>
      <trkpt lat="45.37174" lon="5.90701">
        <ele>1563.650269026</ele>
        <time>2016-02-15T09:41:37Z</time>
      </trkpt>
      <trkpt lat="45.37174" lon="5.90701">
        <ele>1563.650269026</ele>
        <time>2016-02-15T09:41:48Z</time>
      </trkpt>
      <trkpt lat="45.37175" lon="5.90701">
        <ele>1563.650269026</ele>
        <time>2016-02-15T09:41:53Z</time>
      </trkpt>
      <trkpt lat="45.37175" lon="5.90701">
        <ele>1563.650269026</ele>
        <time>2016-02-15T09:42:03Z</time>
      </trkpt>
      <trkpt lat="45.37175" lon="5.90701">
        <ele>1563.650269026</ele>
        <time>2016-02-15T09:42:08Z</time>
      </trkpt>
      <trkpt lat="45.37175" lon="5.90701">
        <ele>1563.650269026</ele>
        <time>2016-02-15T09:42:18Z</time>
      </trkpt>
      <trkpt lat="45.37175" lon="5.90701">
        <ele>1563.650269026</ele>
        <time>2016-02-15T09:42:23Z</time>
      </trkpt>
      <trkpt lat="45.37175" lon="5.90701">
        <ele>1563.650269026</ele>
        <time>2016-02-15T09:42:32Z</time>
      </trkpt>
      <trkpt lat="45.37175" lon="5.90701">
        <ele>1563.650269026</ele>
        <time>2016-02-15T09:42:38Z</time>
      </trkpt>
      <trkpt lat="45.37175" lon="5.90701">
        <ele>1563.650269026</ele>
        <time>2016-02-15T09:42:49Z</time>
      </trkpt>
      <trkpt lat="45.37175" lon="5.90701">
        <ele>1563.650269026</ele>
        <time>2016-02-15T09:42:53Z</time>
      </trkpt>
      <trkpt lat="45.37175" lon="5.90701">
        <ele>1563.650269026</ele>
        <time>2016-02-15T09:43:03Z</time>
      </trkpt>
      <trkpt lat="45.37175" lon="5.90701">
        <ele>1563.650269026</ele>
        <time>2016-02-15T09:43:08Z</time>
      </trkpt>
      <trkpt lat="45.37175" lon="5.90701">
        <ele>1563.650269026</ele>
        <time>2016-02-15T09:43:18Z</time>
      </trkpt>
      <trkpt lat="45.37175" lon="5.90701">
        <ele>1563.650269026</ele>
        <time>2016-02-15T09:43:23Z</time>
      </trkpt>
      <trkpt lat="45.37175" lon="5.90701">
        <ele>1563.650269026</ele>
        <time>2016-02-15T09:43:33Z</time>
      </trkpt>
      <trkpt lat="45.37175" lon="5.90701">
        <ele>1563.650269026</ele>
        <time>2016-02-15T09:43:38Z</time>
      </trkpt>
      <trkpt lat="45.37176" lon="5.90701">
        <ele>1563.650269026</ele>
        <time>2016-02-15T09:43:48Z</time>
      </trkpt>
      <trkpt lat="45.37176" lon="5.90701">
        <ele>1563.650269026</ele>
        <time>2016-02-15T09:43:53Z</time>
      </trkpt>
      <trkpt lat="45.37176" lon="5.90701">
        <ele>1563.650269026</ele>
        <time>2016-02-15T09:44:08Z</time>
      </trkpt>
      <trkpt lat="45.37176" lon="5.90701">
        <ele>1563.650269026</ele>
        <time>2016-02-15T09:44:13Z</time>
      </trkpt>
      <trkpt lat="45.37176" lon="5.90701">
        <ele>1563.650269026</ele>
        <time>2016-02-15T09:44:23Z</time>
      </trkpt>
      <trkpt lat="45.37176" lon="5.90701">
        <ele>1563.650269026</ele>
        <time>2016-02-15T09:44:29Z</time>
      </trkpt>
      <trkpt lat="45.37176" lon="5.90701">
        <ele>1563.650269026</ele>
        <time>2016-02-15T09:44:37Z</time>
      </trkpt>
      <trkpt lat="45.37181" lon="5.90694">
        <ele>1563.650269026</ele>
        <time>2016-02-15T09:44:43Z</time>
      </trkpt>
      <trkpt lat="45.37187" lon="5.90683">
        <ele>1568.322945453</ele>
        <time>2016-02-15T09:44:53Z</time>
      </trkpt>
      <trkpt lat="45.37188" lon="5.90681">
        <ele>1568.322945453</ele>
        <time>2016-02-15T09:44:57Z</time>
      </trkpt>
      <trkpt lat="45.37189" lon="5.90682">
        <ele>1568.322945453</ele>
        <time>2016-02-15T09:45:08Z</time>
      </trkpt>
      <trkpt lat="45.37189" lon="5.90682">
        <ele>1568.322945453</ele>
        <time>2016-02-15T09:45:13Z</time>
      </trkpt>
      <trkpt lat="45.37189" lon="5.90682">
        <ele>1568.322945453</ele>
        <time>2016-02-15T09:45:24Z</time>
      </trkpt>
      <trkpt lat="45.3719" lon="5.90682">
        <ele>1568.322945453</ele>
        <time>2016-02-15T09:45:28Z</time>
      </trkpt>
      <trkpt lat="45.37193" lon="5.90682">
        <ele>1568.322945453</ele>
        <time>2016-02-15T09:45:41Z</time>
      </trkpt>
      <trkpt lat="45.37195" lon="5.90681">
        <ele>1568.322945453</ele>
        <time>2016-02-15T09:45:47Z</time>
      </trkpt>
      <trkpt lat="45.37199" lon="5.90686">
        <ele>1575.858010271</ele>
        <time>2016-02-15T09:46:28Z</time>
      </trkpt>
      <trkpt lat="45.37202" lon="5.9069">
        <ele>1575.858010271</ele>
        <time>2016-02-15T09:46:33Z</time>
      </trkpt>
      <trkpt lat="45.37203" lon="5.90692">
        <ele>1575.858010271</ele>
        <time>2016-02-15T09:46:44Z</time>
      </trkpt>
      <trkpt lat="45.37204" lon="5.90692">
        <ele>1575.858010271</ele>
        <time>2016-02-15T09:46:48Z</time>
      </trkpt>
      <trkpt lat="45.37204" lon="5.90692">
        <ele>1575.858010271</ele>
        <time>2016-02-15T09:46:58Z</time>
      </trkpt>
      <trkpt lat="45.37204" lon="5.90692">
        <ele>1575.858010271</ele>
        <time>2016-02-15T09:47:03Z</time>
      </trkpt>
      <trkpt lat="45.37204" lon="5.90692">
        <ele>1575.858010271</ele>
        <time>2016-02-15T09:47:14Z</time>
      </trkpt>
      <trkpt lat="45.37207" lon="5.90693">
        <ele>1583.1552631</ele>
        <time>2016-02-15T09:47:18Z</time>
      </trkpt>
      <trkpt lat="45.37216" lon="5.90696">
        <ele>1590.225407847</ele>
        <time>2016-02-15T09:47:28Z</time>
      </trkpt>
      <trkpt lat="45.37218" lon="5.90694">
        <ele>1590.225407847</ele>
        <time>2016-02-15T09:47:33Z</time>
      </trkpt>
      <trkpt lat="45.37217" lon="5.90698">
        <ele>1590.225407847</ele>
        <time>2016-02-15T09:47:43Z</time>
      </trkpt>
      <trkpt lat="45.37217" lon="5.90698">
        <ele>1590.225407847</ele>
        <time>2016-02-15T09:47:48Z</time>
      </trkpt>
      <trkpt lat="45.3722" lon="5.90704">
        <ele>1597.223313214</ele>
        <time>2016-02-15T09:47:59Z</time>
      </trkpt>
      <trkpt lat="45.3722" lon="5.90702">
        <ele>1597.223313214</ele>
        <time>2016-02-15T09:48:03Z</time>
      </trkpt>
      <trkpt lat="45.37221" lon="5.90702">
        <ele>1597.223313214</ele>
        <time>2016-02-15T09:48:07Z</time>
      </trkpt>
      <trkpt lat="45.37223" lon="5.90702">
        <ele>1597.223313214</ele>
        <time>2016-02-15T09:48:18Z</time>
      </trkpt>
      <trkpt lat="45.3723" lon="5.90701">
        <ele>1603.572306369</ele>
        <time>2016-02-15T09:48:33Z</time>
      </trkpt>
      <trkpt lat="45.37229" lon="5.907">
        <ele>1603.572306369</ele>
        <time>2016-02-15T09:48:38Z</time>
      </trkpt>
      <trkpt lat="45.37233" lon="5.90702">
        <ele>1603.572306369</ele>
        <time>2016-02-15T09:48:48Z</time>
      </trkpt>
      <trkpt lat="45.37234" lon="5.90703">
        <ele>1603.572306369</ele>
        <time>2016-02-15T09:48:53Z</time>
      </trkpt>
      <trkpt lat="45.37234" lon="5.90705">
        <ele>1603.572306369</ele>
        <time>2016-02-15T09:49:03Z</time>
      </trkpt>
      <trkpt lat="45.37234" lon="5.90705">
        <ele>1603.572306369</ele>
        <time>2016-02-15T09:49:08Z</time>
      </trkpt>
      <trkpt lat="45.37234" lon="5.90705">
        <ele>1603.572306369</ele>
        <time>2016-02-15T09:49:18Z</time>
      </trkpt>
      <trkpt lat="45.37234" lon="5.90705">
        <ele>1603.572306369</ele>
        <time>2016-02-15T09:49:23Z</time>
      </trkpt>
      <trkpt lat="45.37234" lon="5.90705">
        <ele>1603.572306369</ele>
        <time>2016-02-15T09:49:33Z</time>
      </trkpt>
      <trkpt lat="45.37234" lon="5.90705">
        <ele>1603.572306369</ele>
        <time>2016-02-15T09:49:38Z</time>
      </trkpt>
      <trkpt lat="45.37234" lon="5.90705">
        <ele>1603.572306369</ele>
        <time>2016-02-15T09:49:48Z</time>
      </trkpt>
      <trkpt lat="45.37234" lon="5.90705">
        <ele>1603.572306369</ele>
        <time>2016-02-15T09:49:53Z</time>
      </trkpt>
      <trkpt lat="45.37234" lon="5.90705">
        <ele>1603.572306369</ele>
        <time>2016-02-15T09:50:03Z</time>
      </trkpt>
      <trkpt lat="45.37234" lon="5.90705">
        <ele>1603.572306369</ele>
        <time>2016-02-15T09:50:08Z</time>
      </trkpt>
      <trkpt lat="45.37234" lon="5.90705">
        <ele>1603.572306369</ele>
        <time>2016-02-15T09:50:18Z</time>
      </trkpt>
      <trkpt lat="45.37234" lon="5.90705">
        <ele>1603.572306369</ele>
        <time>2016-02-15T09:50:23Z</time>
      </trkpt>
      <trkpt lat="45.37234" lon="5.90705">
        <ele>1603.572306369</ele>
        <time>2016-02-15T09:50:38Z</time>
      </trkpt>
      <trkpt lat="45.37234" lon="5.90705">
        <ele>1603.572306369</ele>
        <time>2016-02-15T09:50:43Z</time>
      </trkpt>
      <trkpt lat="45.37229" lon="5.90703">
        <ele>1608.307758979</ele>
        <time>2016-02-15T09:50:53Z</time>
      </trkpt>
      <trkpt lat="45.3722" lon="5.90703">
        <ele>1612.414101423</ele>
        <time>2016-02-15T09:50:58Z</time>
      </trkpt>
      <trkpt lat="45.37219" lon="5.90699">
        <ele>1612.414101423</ele>
        <time>2016-02-15T09:51:08Z</time>
      </trkpt>
      <trkpt lat="45.37221" lon="5.90704">
        <ele>1612.414101423</ele>
        <time>2016-02-15T09:51:13Z</time>
      </trkpt>
      <trkpt lat="45.37216" lon="5.90698">
        <ele>1614.355456019</ele>
        <time>2016-02-15T09:51:24Z</time>
      </trkpt>
      <trkpt lat="45.37227" lon="5.90691">
        <ele>1615.164919215</ele>
        <time>2016-02-15T09:51:28Z</time>
      </trkpt>
      <trkpt lat="45.37213" lon="5.9068">
        <ele>1615.947089852</ele>
        <time>2016-02-15T09:51:39Z</time>
      </trkpt>
      <trkpt lat="45.37214" lon="5.90676">
        <ele>1615.947089852</ele>
        <time>2016-02-15T09:51:43Z</time>
      </trkpt>
      <trkpt lat="45.37209" lon="5.90683">
        <ele>1616.428550916</ele>
        <time>2016-02-15T09:51:53Z</time>
      </trkpt>
      <trkpt lat="45.37207" lon="5.90684">
        <ele>1616.428550916</ele>
        <time>2016-02-15T09:51:58Z</time>
      </trkpt>
      <trkpt lat="45.37206" lon="5.90685">
        <ele>1616.428550916</ele>
        <time>2016-02-15T09:52:08Z</time>
      </trkpt>
      <trkpt lat="45.37206" lon="5.90685">
        <ele>1616.428550916</ele>
        <time>2016-02-15T09:52:13Z</time>
      </trkpt>
      <trkpt lat="45.37206" lon="5.90685">
        <ele>1616.428550916</ele>
        <time>2016-02-15T09:52:17Z</time>
      </trkpt>
      <trkpt lat="45.37206" lon="5.90685">
        <ele>1616.428550916</ele>
        <time>2016-02-15T09:52:30Z</time>
      </trkpt>
      <trkpt lat="45.37206" lon="5.90685">
        <ele>1616.428550916</ele>
        <time>2016-02-15T09:52:32Z</time>
      </trkpt>
      <trkpt lat="45.37206" lon="5.90685">
        <ele>1616.428550916</ele>
        <time>2016-02-15T09:52:42Z</time>
      </trkpt>
      <trkpt lat="45.37206" lon="5.90685">
        <ele>1616.428550916</ele>
        <time>2016-02-15T09:52:47Z</time>
      </trkpt>
      <trkpt lat="45.37205" lon="5.90685">
        <ele>1616.428550916</ele>
        <time>2016-02-15T09:52:59Z</time>
      </trkpt>
      <trkpt lat="45.37205" lon="5.90685">
        <ele>1616.428550916</ele>
        <time>2016-02-15T09:53:03Z</time>
      </trkpt>
      <trkpt lat="45.37205" lon="5.90685">
        <ele>1616.428550916</ele>
        <time>2016-02-15T09:53:13Z</time>
      </trkpt>
      <trkpt lat="45.37205" lon="5.90685">
        <ele>1616.428550916</ele>
        <time>2016-02-15T09:53:18Z</time>
      </trkpt>
      <trkpt lat="45.37205" lon="5.90685">
        <ele>1616.428550916</ele>
        <time>2016-02-15T09:53:28Z</time>
      </trkpt>
      <trkpt lat="45.37205" lon="5.90685">
        <ele>1616.428550916</ele>
        <time>2016-02-15T09:53:33Z</time>
      </trkpt>
      <trkpt lat="45.37205" lon="5.90685">
        <ele>1616.428550916</ele>
        <time>2016-02-15T09:53:43Z</time>
      </trkpt>
      <trkpt lat="45.37205" lon="5.90685">
        <ele>1616.428550916</ele>
        <time>2016-02-15T09:53:48Z</time>
      </trkpt>
      <trkpt lat="45.37205" lon="5.90685">
        <ele>1616.428550916</ele>
        <time>2016-02-15T09:53:58Z</time>
      </trkpt>
      <trkpt lat="45.37205" lon="5.90685">
        <ele>1616.428550916</ele>
        <time>2016-02-15T09:54:03Z</time>
      </trkpt>
      <trkpt lat="45.37205" lon="5.90685">
        <ele>1616.428550916</ele>
        <time>2016-02-15T09:54:13Z</time>
      </trkpt>
      <trkpt lat="45.37205" lon="5.90684">
        <ele>1616.428550916</ele>
        <time>2016-02-15T09:54:18Z</time>
      </trkpt>
      <trkpt lat="45.3719" lon="5.90677">
        <ele>1616.212728816</ele>
        <time>2016-02-15T09:54:34Z</time>
      </trkpt>
      <trkpt lat="45.37188" lon="5.90673">
        <ele>1616.212728816</ele>
        <time>2016-02-15T09:54:38Z</time>
      </trkpt>
      <trkpt lat="45.37188" lon="5.90672">
        <ele>1616.212728816</ele>
        <time>2016-02-15T09:54:48Z</time>
      </trkpt>
      <trkpt lat="45.37187" lon="5.90672">
        <ele>1616.212728816</ele>
        <time>2016-02-15T09:54:52Z</time>
      </trkpt>
      <trkpt lat="45.37178" lon="5.90679">
        <ele>1616.231132164</ele>
        <time>2016-02-15T09:55:03Z</time>
      </trkpt>
      <trkpt lat="45.37174" lon="5.90676">
        <ele>1616.231132164</ele>
        <time>2016-02-15T09:55:07Z</time>
      </trkpt>
      <trkpt lat="45.37174" lon="5.90674">
        <ele>1616.231132164</ele>
        <time>2016-02-15T09:55:18Z</time>
      </trkpt>
      <trkpt lat="45.37174" lon="5.90674">
        <ele>1616.231132164</ele>
        <time>2016-02-15T09:55:23Z</time>
      </trkpt>
      <trkpt lat="45.37174" lon="5.90674">
        <ele>1616.231132164</ele>
        <time>2016-02-15T09:55:33Z</time>
      </trkpt>
      <trkpt lat="45.37174" lon="5.90674">
        <ele>1616.231132164</ele>
        <time>2016-02-15T09:55:38Z</time>
      </trkpt>
      <trkpt lat="45.37174" lon="5.90674">
        <ele>1616.231132164</ele>
        <time>2016-02-15T09:55:48Z</time>
      </trkpt>
      <trkpt lat="45.37174" lon="5.90674">
        <ele>1616.231132164</ele>
        <time>2016-02-15T09:55:53Z</time>
      </trkpt>
      <trkpt lat="45.37174" lon="5.90674">
        <ele>1616.231132164</ele>
        <time>2016-02-15T09:56:03Z</time>
      </trkpt>
      <trkpt lat="45.37174" lon="5.90674">
        <ele>1616.231132164</ele>
        <time>2016-02-15T09:56:08Z</time>
      </trkpt>
      <trkpt lat="45.37174" lon="5.90674">
        <ele>1616.231132164</ele>
        <time>2016-02-15T09:56:18Z</time>
      </trkpt>
      <trkpt lat="45.37174" lon="5.90674">
        <ele>1616.231132164</ele>
        <time>2016-02-15T09:56:23Z</time>
      </trkpt>
      <trkpt lat="45.37174" lon="5.90674">
        <ele>1616.231132164</ele>
        <time>2016-02-15T09:56:34Z</time>
      </trkpt>
      <trkpt lat="45.37174" lon="5.90674">
        <ele>1616.231132164</ele>
        <time>2016-02-15T09:56:38Z</time>
      </trkpt>
      <trkpt lat="45.37174" lon="5.90674">
        <ele>1616.231132164</ele>
        <time>2016-02-15T09:56:53Z</time>
      </trkpt>
      <trkpt lat="45.37174" lon="5.90674">
        <ele>1616.231132164</ele>
        <time>2016-02-15T09:56:58Z</time>
      </trkpt>
      <trkpt lat="45.37174" lon="5.90674">
        <ele>1616.231132164</ele>
        <time>2016-02-15T09:57:08Z</time>
      </trkpt>
      <trkpt lat="45.37174" lon="5.90674">
        <ele>1616.231132164</ele>
        <time>2016-02-15T09:57:13Z</time>
      </trkpt>
      <trkpt lat="45.37174" lon="5.90674">
        <ele>1616.231132164</ele>
        <time>2016-02-15T09:57:23Z</time>
      </trkpt>
      <trkpt lat="45.37174" lon="5.90674">
        <ele>1616.231132164</ele>
        <time>2016-02-15T09:57:28Z</time>
      </trkpt>
      <trkpt lat="45.37174" lon="5.90674">
        <ele>1616.231132164</ele>
        <time>2016-02-15T09:57:38Z</time>
      </trkpt>
      <trkpt lat="45.37166" lon="5.90667">
        <ele>1615.904997939</ele>
        <time>2016-02-15T09:57:42Z</time>
      </trkpt>
      <trkpt lat="45.37151" lon="5.90661">
        <ele>1615.419504812</ele>
        <time>2016-02-15T09:57:52Z</time>
      </trkpt>
      <trkpt lat="45.37145" lon="5.90675">
        <ele>1614.225972005</ele>
        <time>2016-02-15T09:57:57Z</time>
      </trkpt>
      <trkpt lat="45.37146" lon="5.90675">
        <ele>1614.225972005</ele>
        <time>2016-02-15T09:58:08Z</time>
      </trkpt>
      <trkpt lat="45.37145" lon="5.90675">
        <ele>1614.225972005</ele>
        <time>2016-02-15T09:58:13Z</time>
      </trkpt>
      <trkpt lat="45.37145" lon="5.90674">
        <ele>1614.225972005</ele>
        <time>2016-02-15T09:58:23Z</time>
      </trkpt>
      <trkpt lat="45.37145" lon="5.90674">
        <ele>1614.225972005</ele>
        <time>2016-02-15T09:58:28Z</time>
      </trkpt>
      <trkpt lat="45.37145" lon="5.90674">
        <ele>1614.225972005</ele>
        <time>2016-02-15T09:58:33Z</time>
      </trkpt>
      <trkpt lat="45.37144" lon="5.90674">
        <ele>1614.225972005</ele>
        <time>2016-02-15T09:58:38Z</time>
      </trkpt>
      <trkpt lat="45.37144" lon="5.90674">
        <ele>1614.225972005</ele>
        <time>2016-02-15T09:58:43Z</time>
      </trkpt>
      <trkpt lat="45.37144" lon="5.90674">
        <ele>1614.225972005</ele>
        <time>2016-02-15T09:58:58Z</time>
      </trkpt>
      <trkpt lat="45.37144" lon="5.90674">
        <ele>1614.225972005</ele>
        <time>2016-02-15T09:59:03Z</time>
      </trkpt>
      <trkpt lat="45.37143" lon="5.90675">
        <ele>1614.225972005</ele>
        <time>2016-02-15T09:59:13Z</time>
      </trkpt>
      <trkpt lat="45.37143" lon="5.90675">
        <ele>1614.225972005</ele>
        <time>2016-02-15T09:59:18Z</time>
      </trkpt>
      <trkpt lat="45.37143" lon="5.90675">
        <ele>1614.225972005</ele>
        <time>2016-02-15T09:59:28Z</time>
      </trkpt>
      <trkpt lat="45.37143" lon="5.90675">
        <ele>1614.225972005</ele>
        <time>2016-02-15T09:59:33Z</time>
      </trkpt>
      <trkpt lat="45.37143" lon="5.90675">
        <ele>1614.225972005</ele>
        <time>2016-02-15T09:59:43Z</time>
      </trkpt>
      <trkpt lat="45.37143" lon="5.90675">
        <ele>1614.225972005</ele>
        <time>2016-02-15T09:59:48Z</time>
      </trkpt>
      <trkpt lat="45.37143" lon="5.90674">
        <ele>1614.225972005</ele>
        <time>2016-02-15T09:59:59Z</time>
      </trkpt>
      <trkpt lat="45.37143" lon="5.90674">
        <ele>1614.225972005</ele>
        <time>2016-02-15T10:00:02Z</time>
      </trkpt>
      <trkpt lat="45.37142" lon="5.90674">
        <ele>1614.225972005</ele>
        <time>2016-02-15T10:00:13Z</time>
      </trkpt>
      <trkpt lat="45.37142" lon="5.90674">
        <ele>1614.225972005</ele>
        <time>2016-02-15T10:00:18Z</time>
      </trkpt>
      <trkpt lat="45.37142" lon="5.90674">
        <ele>1614.225972005</ele>
        <time>2016-02-15T10:00:28Z</time>
      </trkpt>
      <trkpt lat="45.37142" lon="5.90674">
        <ele>1614.225972005</ele>
        <time>2016-02-15T10:00:33Z</time>
      </trkpt>
      <trkpt lat="45.37142" lon="5.90674">
        <ele>1614.225972005</ele>
        <time>2016-02-15T10:00:43Z</time>
      </trkpt>
      <trkpt lat="45.37142" lon="5.90674">
        <ele>1614.225972005</ele>
        <time>2016-02-15T10:00:48Z</time>
      </trkpt>
      <trkpt lat="45.37142" lon="5.90673">
        <ele>1614.225972005</ele>
        <time>2016-02-15T10:00:58Z</time>
      </trkpt>
      <trkpt lat="45.37142" lon="5.90673">
        <ele>1614.225972005</ele>
        <time>2016-02-15T10:01:03Z</time>
      </trkpt>
      <trkpt lat="45.37142" lon="5.90673">
        <ele>1614.225972005</ele>
        <time>2016-02-15T10:01:12Z</time>
      </trkpt>
      <trkpt lat="45.37142" lon="5.90673">
        <ele>1614.225972005</ele>
        <time>2016-02-15T10:01:18Z</time>
      </trkpt>
      <trkpt lat="45.37141" lon="5.90673">
        <ele>1614.225972005</ele>
        <time>2016-02-15T10:01:28Z</time>
      </trkpt>
      <trkpt lat="45.37141" lon="5.90673">
        <ele>1614.225972005</ele>
        <time>2016-02-15T10:01:33Z</time>
      </trkpt>
      <trkpt lat="45.37141" lon="5.90672">
        <ele>1614.225972005</ele>
        <time>2016-02-15T10:01:38Z</time>
      </trkpt>
      <trkpt lat="45.37141" lon="5.90672">
        <ele>1614.225972005</ele>
        <time>2016-02-15T10:01:49Z</time>
      </trkpt>
      <trkpt lat="45.37141" lon="5.90672">
        <ele>1614.225972005</ele>
        <time>2016-02-15T10:01:52Z</time>
      </trkpt>
      <trkpt lat="45.37141" lon="5.90672">
        <ele>1614.225972005</ele>
        <time>2016-02-15T10:02:03Z</time>
      </trkpt>
      <trkpt lat="45.37141" lon="5.90672">
        <ele>1614.225972005</ele>
        <time>2016-02-15T10:02:07Z</time>
      </trkpt>
      <trkpt lat="45.37141" lon="5.90671">
        <ele>1614.225972005</ele>
        <time>2016-02-15T10:02:17Z</time>
      </trkpt>
      <trkpt lat="45.37141" lon="5.90671">
        <ele>1614.225972005</ele>
        <time>2016-02-15T10:02:23Z</time>
      </trkpt>
      <trkpt lat="45.37138" lon="5.90661">
        <ele>1612.538388026</ele>
        <time>2016-02-15T10:02:33Z</time>
      </trkpt>
      <trkpt lat="45.37137" lon="5.90659">
        <ele>1612.538388026</ele>
        <time>2016-02-15T10:02:38Z</time>
      </trkpt>
      <trkpt lat="45.37136" lon="5.90649">
        <ele>1612.538388026</ele>
        <time>2016-02-15T10:02:48Z</time>
      </trkpt>
      <trkpt lat="45.37136" lon="5.90645">
        <ele>1611.420855755</ele>
        <time>2016-02-15T10:02:53Z</time>
      </trkpt>
      <trkpt lat="45.37136" lon="5.90643">
        <ele>1611.420855755</ele>
        <time>2016-02-15T10:03:03Z</time>
      </trkpt>
      <trkpt lat="45.37135" lon="5.90644">
        <ele>1611.420855755</ele>
        <time>2016-02-15T10:03:08Z</time>
      </trkpt>
      <trkpt lat="45.37135" lon="5.90644">
        <ele>1611.420855755</ele>
        <time>2016-02-15T10:03:18Z</time>
      </trkpt>
      <trkpt lat="45.37135" lon="5.90644">
        <ele>1611.420855755</ele>
        <time>2016-02-15T10:03:23Z</time>
      </trkpt>
      <trkpt lat="45.37135" lon="5.90644">
        <ele>1611.420855755</ele>
        <time>2016-02-15T10:03:33Z</time>
      </trkpt>
      <trkpt lat="45.37135" lon="5.90644">
        <ele>1611.420855755</ele>
        <time>2016-02-15T10:03:38Z</time>
      </trkpt>
      <trkpt lat="45.37136" lon="5.90643">
        <ele>1611.420855755</ele>
        <time>2016-02-15T10:03:53Z</time>
      </trkpt>
      <trkpt lat="45.37136" lon="5.90643">
        <ele>1611.420855755</ele>
        <time>2016-02-15T10:03:58Z</time>
      </trkpt>
      <trkpt lat="45.37136" lon="5.90642">
        <ele>1611.420855755</ele>
        <time>2016-02-15T10:04:08Z</time>
      </trkpt>
      <trkpt lat="45.37136" lon="5.90642">
        <ele>1611.420855755</ele>
        <time>2016-02-15T10:04:13Z</time>
      </trkpt>
      <trkpt lat="45.37136" lon="5.90642">
        <ele>1611.420855755</ele>
        <time>2016-02-15T10:04:22Z</time>
      </trkpt>
      <trkpt lat="45.37136" lon="5.90642">
        <ele>1611.420855755</ele>
        <time>2016-02-15T10:04:27Z</time>
      </trkpt>
      <trkpt lat="45.37136" lon="5.90642">
        <ele>1611.420855755</ele>
        <time>2016-02-15T10:04:37Z</time>
      </trkpt>
      <trkpt lat="45.37136" lon="5.90642">
        <ele>1611.420855755</ele>
        <time>2016-02-15T10:04:43Z</time>
      </trkpt>
      <trkpt lat="45.37136" lon="5.90642">
        <ele>1611.420855755</ele>
        <time>2016-02-15T10:04:53Z</time>
      </trkpt>
      <trkpt lat="45.37136" lon="5.90642">
        <ele>1611.420855755</ele>
        <time>2016-02-15T10:04:58Z</time>
      </trkpt>
      <trkpt lat="45.37136" lon="5.90642">
        <ele>1611.420855755</ele>
        <time>2016-02-15T10:05:08Z</time>
      </trkpt>
      <trkpt lat="45.37136" lon="5.90642">
        <ele>1611.420855755</ele>
        <time>2016-02-15T10:05:13Z</time>
      </trkpt>
      <trkpt lat="45.37136" lon="5.90642">
        <ele>1611.420855755</ele>
        <time>2016-02-15T10:05:23Z</time>
      </trkpt>
      <trkpt lat="45.37136" lon="5.90642">
        <ele>1611.420855755</ele>
        <time>2016-02-15T10:05:28Z</time>
      </trkpt>
      <trkpt lat="45.37137" lon="5.90641">
        <ele>1611.420855755</ele>
        <time>2016-02-15T10:05:43Z</time>
      </trkpt>
      <trkpt lat="45.37137" lon="5.90641">
        <ele>1611.420855755</ele>
        <time>2016-02-15T10:05:58Z</time>
      </trkpt>
      <trkpt lat="45.37137" lon="5.90641">
        <ele>1611.420855755</ele>
        <time>2016-02-15T10:06:13Z</time>
      </trkpt>
      <trkpt lat="45.37137" lon="5.90641">
        <ele>1611.420855755</ele>
        <time>2016-02-15T10:06:18Z</time>
      </trkpt>
      <trkpt lat="45.37137" lon="5.90641">
        <ele>1611.420855755</ele>
        <time>2016-02-15T10:06:28Z</time>
      </trkpt>
      <trkpt lat="45.37137" lon="5.90641">
        <ele>1611.420855755</ele>
        <time>2016-02-15T10:06:34Z</time>
      </trkpt>
      <trkpt lat="45.37137" lon="5.90641">
        <ele>1611.420855755</ele>
        <time>2016-02-15T10:06:42Z</time>
      </trkpt>
      <trkpt lat="45.37137" lon="5.90641">
        <ele>1611.420855755</ele>
        <time>2016-02-15T10:06:47Z</time>
      </trkpt>
      <trkpt lat="45.37137" lon="5.90641">
        <ele>1611.420855755</ele>
        <time>2016-02-15T10:06:57Z</time>
      </trkpt>
      <trkpt lat="45.37137" lon="5.90641">
        <ele>1611.420855755</ele>
        <time>2016-02-15T10:07:02Z</time>
      </trkpt>
      <trkpt lat="45.37137" lon="5.9064">
        <ele>1611.420855755</ele>
        <time>2016-02-15T10:07:13Z</time>
      </trkpt>
      <trkpt lat="45.37137" lon="5.9064">
        <ele>1611.420855755</ele>
        <time>2016-02-15T10:07:18Z</time>
      </trkpt>
      <trkpt lat="45.37136" lon="5.9064">
        <ele>1611.420855755</ele>
        <time>2016-02-15T10:07:28Z</time>
      </trkpt>
      <trkpt lat="45.37136" lon="5.9064">
        <ele>1611.420855755</ele>
        <time>2016-02-15T10:07:33Z</time>
      </trkpt>
      <trkpt lat="45.37136" lon="5.9064">
        <ele>1611.420855755</ele>
        <time>2016-02-15T10:07:43Z</time>
      </trkpt>
      <trkpt lat="45.37136" lon="5.9064">
        <ele>1611.420855755</ele>
        <time>2016-02-15T10:07:48Z</time>
      </trkpt>
      <trkpt lat="45.37136" lon="5.90639">
        <ele>1611.420855755</ele>
        <time>2016-02-15T10:08:55Z</time>
      </trkpt>
      <trkpt lat="45.37136" lon="5.90639">
        <ele>1611.420855755</ele>
        <time>2016-02-15T10:08:55Z</time>
      </trkpt>
      <trkpt lat="45.37136" lon="5.90639">
        <ele>1611.420855755</ele>
        <time>2016-02-15T10:08:57Z</time>
      </trkpt>
      <trkpt lat="45.37136" lon="5.90639">
        <ele>1611.420855755</ele>
        <time>2016-02-15T10:09:15Z</time>
      </trkpt>
      <trkpt lat="45.37136" lon="5.90639">
        <ele>1611.420855755</ele>
        <time>2016-02-15T10:09:17Z</time>
      </trkpt>
      <trkpt lat="45.37137" lon="5.90638">
        <ele>1611.420855755</ele>
        <time>2016-02-15T10:09:54Z</time>
      </trkpt>
      <trkpt lat="45.37137" lon="5.90638">
        <ele>1611.420855755</ele>
        <time>2016-02-15T10:09:55Z</time>
      </trkpt>
      <trkpt lat="45.37137" lon="5.90638">
        <ele>1611.420855755</ele>
        <time>2016-02-15T10:09:56Z</time>
      </trkpt>
      <trkpt lat="45.37137" lon="5.90638">
        <ele>1611.420855755</ele>
        <time>2016-02-15T10:10:41Z</time>
      </trkpt>
      <trkpt lat="45.37137" lon="5.90638">
        <ele>1611.420855755</ele>
        <time>2016-02-15T10:10:41Z</time>
      </trkpt>
      <trkpt lat="45.37137" lon="5.90638">
        <ele>1611.420855755</ele>
        <time>2016-02-15T10:10:42Z</time>
      </trkpt>
      <trkpt lat="45.37137" lon="5.90637">
        <ele>1611.420855755</ele>
        <time>2016-02-15T10:11:00Z</time>
      </trkpt>
      <trkpt lat="45.37137" lon="5.90637">
        <ele>1611.420855755</ele>
        <time>2016-02-15T10:11:01Z</time>
      </trkpt>
      <trkpt lat="45.37137" lon="5.90637">
        <ele>1611.420855755</ele>
        <time>2016-02-15T10:11:30Z</time>
      </trkpt>
      <trkpt lat="45.37137" lon="5.90636">
        <ele>1611.420855755</ele>
        <time>2016-02-15T10:11:42Z</time>
      </trkpt>
      <trkpt lat="45.37137" lon="5.90636">
        <ele>1611.420855755</ele>
        <time>2016-02-15T10:11:50Z</time>
      </trkpt>
      <trkpt lat="45.37138" lon="5.90636">
        <ele>1611.420855755</ele>
        <time>2016-02-15T10:12:18Z</time>
      </trkpt>
      <trkpt lat="45.37138" lon="5.90636">
        <ele>1611.420855755</ele>
        <time>2016-02-15T10:12:20Z</time>
      </trkpt>
      <trkpt lat="45.37138" lon="5.90635">
        <ele>1611.420855755</ele>
        <time>2016-02-15T10:12:37Z</time>
      </trkpt>
      <trkpt lat="45.37138" lon="5.90635">
        <ele>1611.420855755</ele>
        <time>2016-02-15T10:12:37Z</time>
      </trkpt>
      <trkpt lat="45.37138" lon="5.90635">
        <ele>1611.420855755</ele>
        <time>2016-02-15T10:12:38Z</time>
      </trkpt>
      <trkpt lat="45.37137" lon="5.90623">
        <ele>1611.281006008</ele>
        <time>2016-02-15T10:12:53Z</time>
      </trkpt>
      <trkpt lat="45.37137" lon="5.90619">
        <ele>1611.281006008</ele>
        <time>2016-02-15T10:12:53Z</time>
      </trkpt>
      <trkpt lat="45.37136" lon="5.90609">
        <ele>1611.628827668</ele>
        <time>2016-02-15T10:13:03Z</time>
      </trkpt>
      <trkpt lat="45.3714" lon="5.90604">
        <ele>1611.628827668</ele>
        <time>2016-02-15T10:13:08Z</time>
      </trkpt>
      <trkpt lat="45.37148" lon="5.90595">
        <ele>1612.008629611</ele>
        <time>2016-02-15T10:13:23Z</time>
      </trkpt>
      <trkpt lat="45.37148" lon="5.90595">
        <ele>1612.008629611</ele>
        <time>2016-02-15T10:13:28Z</time>
      </trkpt>
      <trkpt lat="45.37149" lon="5.90596">
        <ele>1612.008629611</ele>
        <time>2016-02-15T10:13:39Z</time>
      </trkpt>
      <trkpt lat="45.37149" lon="5.90596">
        <ele>1612.008629611</ele>
        <time>2016-02-15T10:13:43Z</time>
      </trkpt>
      <trkpt lat="45.37149" lon="5.90596">
        <ele>1612.008629611</ele>
        <time>2016-02-15T10:13:52Z</time>
      </trkpt>
      <trkpt lat="45.37149" lon="5.90596">
        <ele>1612.008629611</ele>
        <time>2016-02-15T10:13:58Z</time>
      </trkpt>
      <trkpt lat="45.37149" lon="5.90596">
        <ele>1612.008629611</ele>
        <time>2016-02-15T10:14:07Z</time>
      </trkpt>
      <trkpt lat="45.37149" lon="5.90596">
        <ele>1612.008629611</ele>
        <time>2016-02-15T10:14:13Z</time>
      </trkpt>
      <trkpt lat="45.37149" lon="5.90596">
        <ele>1612.008629611</ele>
        <time>2016-02-15T10:14:23Z</time>
      </trkpt>
      <trkpt lat="45.37149" lon="5.90596">
        <ele>1612.008629611</ele>
        <time>2016-02-15T10:14:28Z</time>
      </trkpt>
      <trkpt lat="45.37149" lon="5.90596">
        <ele>1612.008629611</ele>
        <time>2016-02-15T10:14:38Z</time>
      </trkpt>
      <trkpt lat="45.37146" lon="5.90599">
        <ele>1612.008629611</ele>
        <time>2016-02-15T10:14:43Z</time>
      </trkpt>
      <trkpt lat="45.37144" lon="5.90602">
        <ele>1612.008629611</ele>
        <time>2016-02-15T10:14:53Z</time>
      </trkpt>
      <trkpt lat="45.37144" lon="5.90602">
        <ele>1612.008629611</ele>
        <time>2016-02-15T10:14:58Z</time>
      </trkpt>
      <trkpt lat="45.37138" lon="5.9061">
        <ele>1615.168235077</ele>
        <time>2016-02-15T10:15:08Z</time>
      </trkpt>
      <trkpt lat="45.37141" lon="5.90618">
        <ele>1616.485037585</ele>
        <time>2016-02-15T10:15:13Z</time>
      </trkpt>
      <trkpt lat="45.37135" lon="5.90665">
        <ele>1617.801840093</ele>
        <time>2016-02-15T10:15:43Z</time>
      </trkpt>
      <trkpt lat="45.37151" lon="5.90606">
        <ele>1619.118642602</ele>
        <time>2016-02-15T10:15:48Z</time>
      </trkpt>
      <trkpt lat="45.37152" lon="5.90532">
        <ele>1620.43544511</ele>
        <time>2016-02-15T10:16:27Z</time>
      </trkpt>
      <trkpt lat="45.37154" lon="5.90561">
        <ele>1621.752247619</ele>
        <time>2016-02-15T10:16:33Z</time>
      </trkpt>
      <trkpt lat="45.37134" lon="5.90561">
        <ele>1623.069050127</ele>
        <time>2016-02-15T10:16:43Z</time>
      </trkpt>
      <trkpt lat="45.37134" lon="5.90561">
        <ele>1623.069050127</ele>
        <time>2016-02-15T10:16:48Z</time>
      </trkpt>
      <trkpt lat="45.37134" lon="5.90561">
        <ele>1623.069050127</ele>
        <time>2016-02-15T10:16:58Z</time>
      </trkpt>
      <trkpt lat="45.37134" lon="5.90561">
        <ele>1623.069050127</ele>
        <time>2016-02-15T10:17:03Z</time>
      </trkpt>
      <trkpt lat="45.37134" lon="5.90561">
        <ele>1623.069050127</ele>
        <time>2016-02-15T10:17:13Z</time>
      </trkpt>
      <trkpt lat="45.37134" lon="5.90561">
        <ele>1623.069050127</ele>
        <time>2016-02-15T10:17:18Z</time>
      </trkpt>
      <trkpt lat="45.37134" lon="5.90561">
        <ele>1623.069050127</ele>
        <time>2016-02-15T10:17:33Z</time>
      </trkpt>
      <trkpt lat="45.37134" lon="5.90561">
        <ele>1623.069050127</ele>
        <time>2016-02-15T10:17:38Z</time>
      </trkpt>
      <trkpt lat="45.37133" lon="5.90561">
        <ele>1623.069050127</ele>
        <time>2016-02-15T10:19:11Z</time>
      </trkpt>
      <trkpt lat="45.37132" lon="5.9056">
        <ele>1623.069050127</ele>
        <time>2016-02-15T10:19:13Z</time>
      </trkpt>
      <trkpt lat="45.37134" lon="5.90561">
        <ele>1623.069050127</ele>
        <time>2016-02-15T10:20:32Z</time>
      </trkpt>
      <trkpt lat="45.37134" lon="5.90561">
        <ele>1623.069050127</ele>
        <time>2016-02-15T10:20:32Z</time>
      </trkpt>
      <trkpt lat="45.37134" lon="5.90561">
        <ele>1623.069050127</ele>
        <time>2016-02-15T10:21:23Z</time>
      </trkpt>
      <trkpt lat="45.37133" lon="5.90561">
        <ele>1623.069050127</ele>
        <time>2016-02-15T10:22:14Z</time>
      </trkpt>
      <trkpt lat="45.37133" lon="5.90563">
        <ele>1623.069050127</ele>
        <time>2016-02-15T10:23:20Z</time>
      </trkpt>
      <trkpt lat="45.37133" lon="5.90564">
        <ele>1623.069050127</ele>
        <time>2016-02-15T10:23:21Z</time>
      </trkpt>
      <trkpt lat="45.37133" lon="5.90564">
        <ele>1626.905307852</ele>
        <time>2016-02-15T10:23:22Z</time>
      </trkpt>
      <trkpt lat="45.37133" lon="5.90569">
        <ele>1630.741565578</ele>
        <time>2016-02-15T10:23:52Z</time>
      </trkpt>
      <trkpt lat="45.37133" lon="5.90569">
        <ele>1630.741565578</ele>
        <time>2016-02-15T10:23:53Z</time>
      </trkpt>
      <trkpt lat="45.37133" lon="5.9057">
        <ele>1630.741565578</ele>
        <time>2016-02-15T10:24:09Z</time>
      </trkpt>
      <trkpt lat="45.37133" lon="5.9057">
        <ele>1630.741565578</ele>
        <time>2016-02-15T10:24:12Z</time>
      </trkpt>
      <trkpt lat="45.37134" lon="5.9057">
        <ele>1630.741565578</ele>
        <time>2016-02-15T10:24:22Z</time>
      </trkpt>
      <trkpt lat="45.37135" lon="5.90569">
        <ele>1630.741565578</ele>
        <time>2016-02-15T10:24:31Z</time>
      </trkpt>
      <trkpt lat="45.37136" lon="5.90569">
        <ele>1630.741565578</ele>
        <time>2016-02-15T10:24:44Z</time>
      </trkpt>
      <trkpt lat="45.37158" lon="5.90608">
        <ele>1637.184485034</ele>
        <time>2016-02-15T10:24:45Z</time>
      </trkpt>
      <trkpt lat="45.37156" lon="5.90605">
        <ele>1637.184485034</ele>
        <time>2016-02-15T10:24:54Z</time>
      </trkpt>
      <trkpt lat="45.37156" lon="5.90607">
        <ele>1637.184485034</ele>
        <time>2016-02-15T10:24:55Z</time>
      </trkpt>
      <trkpt lat="45.37156" lon="5.90607">
        <ele>1637.184485034</ele>
        <time>2016-02-15T10:25:00Z</time>
      </trkpt>
      <trkpt lat="45.37156" lon="5.90607">
        <ele>1637.184485034</ele>
        <time>2016-02-15T10:25:09Z</time>
      </trkpt>
      <trkpt lat="45.37156" lon="5.90607">
        <ele>1637.184485034</ele>
        <time>2016-02-15T10:25:46Z</time>
      </trkpt>
      <trkpt lat="45.37156" lon="5.90607">
        <ele>1637.184485034</ele>
        <time>2016-02-15T10:26:30Z</time>
      </trkpt>
      <trkpt lat="45.37156" lon="5.90607">
        <ele>1637.184485034</ele>
        <time>2016-02-15T10:26:32Z</time>
      </trkpt>
      <trkpt lat="45.37156" lon="5.90607">
        <ele>1637.184485034</ele>
        <time>2016-02-15T10:27:01Z</time>
      </trkpt>
      <trkpt lat="45.37156" lon="5.90607">
        <ele>1637.184485034</ele>
        <time>2016-02-15T10:27:02Z</time>
      </trkpt>
      <trkpt lat="45.37156" lon="5.90607">
        <ele>1637.184485034</ele>
        <time>2016-02-15T10:27:03Z</time>
      </trkpt>
      <trkpt lat="45.37156" lon="5.90607">
        <ele>1637.184485034</ele>
        <time>2016-02-15T10:27:33Z</time>
      </trkpt>
      <trkpt lat="45.37156" lon="5.90607">
        <ele>1637.184485034</ele>
        <time>2016-02-15T10:27:33Z</time>
      </trkpt>
      <trkpt lat="45.37156" lon="5.90607">
        <ele>1637.184485034</ele>
        <time>2016-02-15T10:27:44Z</time>
      </trkpt>
      <trkpt lat="45.37156" lon="5.90607">
        <ele>1637.184485034</ele>
        <time>2016-02-15T10:27:47Z</time>
      </trkpt>
      <trkpt lat="45.37156" lon="5.90607">
        <ele>1637.184485034</ele>
        <time>2016-02-15T10:28:00Z</time>
      </trkpt>
      <trkpt lat="45.37156" lon="5.90607">
        <ele>1637.184485034</ele>
        <time>2016-02-15T10:28:02Z</time>
      </trkpt>
      <trkpt lat="45.37157" lon="5.90607">
        <ele>1637.184485034</ele>
        <time>2016-02-15T10:28:31Z</time>
      </trkpt>
      <trkpt lat="45.37157" lon="5.90607">
        <ele>1637.184485034</ele>
        <time>2016-02-15T10:28:31Z</time>
      </trkpt>
      <trkpt lat="45.37157" lon="5.90607">
        <ele>1637.184485034</ele>
        <time>2016-02-15T10:29:04Z</time>
      </trkpt>
      <trkpt lat="45.37162" lon="5.90616">
        <ele>1642.626173279</ele>
        <time>2016-02-15T10:29:10Z</time>
      </trkpt>
      <trkpt lat="45.37166" lon="5.90613">
        <ele>1642.626173279</ele>
        <time>2016-02-15T10:29:18Z</time>
      </trkpt>
      <trkpt lat="45.37167" lon="5.90612">
        <ele>1642.626173279</ele>
        <time>2016-02-15T10:29:23Z</time>
      </trkpt>
      <trkpt lat="45.37168" lon="5.90611">
        <ele>1642.626173279</ele>
        <time>2016-02-15T10:29:33Z</time>
      </trkpt>
      <trkpt lat="45.37168" lon="5.90611">
        <ele>1642.626173279</ele>
        <time>2016-02-15T10:29:38Z</time>
      </trkpt>
      <trkpt lat="45.37168" lon="5.9061">
        <ele>1642.626173279</ele>
        <time>2016-02-15T10:29:48Z</time>
      </trkpt>
      <trkpt lat="45.37168" lon="5.9061">
        <ele>1642.626173279</ele>
        <time>2016-02-15T10:29:53Z</time>
      </trkpt>
      <trkpt lat="45.37168" lon="5.9061">
        <ele>1642.626173279</ele>
        <time>2016-02-15T10:30:08Z</time>
      </trkpt>
      <trkpt lat="45.37168" lon="5.9061">
        <ele>1642.626173279</ele>
        <time>2016-02-15T10:30:13Z</time>
      </trkpt>
      <trkpt lat="45.37168" lon="5.9061">
        <ele>1642.626173279</ele>
        <time>2016-02-15T10:30:23Z</time>
      </trkpt>
      <trkpt lat="45.37168" lon="5.9061">
        <ele>1642.626173279</ele>
        <time>2016-02-15T10:30:28Z</time>
      </trkpt>
      <trkpt lat="45.37169" lon="5.90611">
        <ele>1647.424942485</ele>
        <time>2016-02-15T10:30:38Z</time>
      </trkpt>
      <trkpt lat="45.37171" lon="5.90612">
        <ele>1647.424942485</ele>
        <time>2016-02-15T10:30:43Z</time>
      </trkpt>
      <trkpt lat="45.37173" lon="5.90618">
        <ele>1647.424942485</ele>
        <time>2016-02-15T10:30:53Z</time>
      </trkpt>
      <trkpt lat="45.37173" lon="5.90617">
        <ele>1647.424942485</ele>
        <time>2016-02-15T10:30:58Z</time>
      </trkpt>
      <trkpt lat="45.37174" lon="5.90617">
        <ele>1647.424942485</ele>
        <time>2016-02-15T10:31:07Z</time>
      </trkpt>
      <trkpt lat="45.37174" lon="5.90617">
        <ele>1647.424942485</ele>
        <time>2016-02-15T10:31:13Z</time>
      </trkpt>
      <trkpt lat="45.37174" lon="5.90617">
        <ele>1647.424942485</ele>
        <time>2016-02-15T10:31:28Z</time>
      </trkpt>
      <trkpt lat="45.37174" lon="5.90617">
        <ele>1647.424942485</ele>
        <time>2016-02-15T10:31:33Z</time>
      </trkpt>
      <trkpt lat="45.37174" lon="5.90617">
        <ele>1647.424942485</ele>
        <time>2016-02-15T10:31:43Z</time>
      </trkpt>
      <trkpt lat="45.37174" lon="5.90617">
        <ele>1647.424942485</ele>
        <time>2016-02-15T10:31:48Z</time>
      </trkpt>
      <trkpt lat="45.37174" lon="5.90617">
        <ele>1647.424942485</ele>
        <time>2016-02-15T10:31:58Z</time>
      </trkpt>
      <trkpt lat="45.37174" lon="5.90617">
        <ele>1647.424942485</ele>
        <time>2016-02-15T10:32:03Z</time>
      </trkpt>
      <trkpt lat="45.37174" lon="5.90617">
        <ele>1647.424942485</ele>
        <time>2016-02-15T10:32:12Z</time>
      </trkpt>
      <trkpt lat="45.37174" lon="5.90617">
        <ele>1647.424942485</ele>
        <time>2016-02-15T10:32:17Z</time>
      </trkpt>
      <trkpt lat="45.37179" lon="5.90616">
        <ele>1651.914418037</ele>
        <time>2016-02-15T10:32:28Z</time>
      </trkpt>
      <trkpt lat="45.3718" lon="5.90617">
        <ele>1651.914418037</ele>
        <time>2016-02-15T10:32:33Z</time>
      </trkpt>
      <trkpt lat="45.37181" lon="5.90619">
        <ele>1651.914418037</ele>
        <time>2016-02-15T10:32:43Z</time>
      </trkpt>
      <trkpt lat="45.37181" lon="5.90619">
        <ele>1651.914418037</ele>
        <time>2016-02-15T10:32:48Z</time>
      </trkpt>
      <trkpt lat="45.37181" lon="5.90619">
        <ele>1651.914418037</ele>
        <time>2016-02-15T10:32:58Z</time>
      </trkpt>
      <trkpt lat="45.37181" lon="5.90619">
        <ele>1651.914418037</ele>
        <time>2016-02-15T10:33:03Z</time>
      </trkpt>
      <trkpt lat="45.37181" lon="5.90619">
        <ele>1651.914418037</ele>
        <time>2016-02-15T10:33:13Z</time>
      </trkpt>
      <trkpt lat="45.37181" lon="5.90619">
        <ele>1651.914418037</ele>
        <time>2016-02-15T10:33:18Z</time>
      </trkpt>
      <trkpt lat="45.37181" lon="5.90619">
        <ele>1651.914418037</ele>
        <time>2016-02-15T10:33:28Z</time>
      </trkpt>
      <trkpt lat="45.37181" lon="5.90619">
        <ele>1651.914418037</ele>
        <time>2016-02-15T10:33:33Z</time>
      </trkpt>
      <trkpt lat="45.37181" lon="5.90619">
        <ele>1651.914418037</ele>
        <time>2016-02-15T10:33:43Z</time>
      </trkpt>
      <trkpt lat="45.37181" lon="5.90619">
        <ele>1651.914418037</ele>
        <time>2016-02-15T10:33:48Z</time>
      </trkpt>
      <trkpt lat="45.37181" lon="5.90619">
        <ele>1651.914418037</ele>
        <time>2016-02-15T10:33:58Z</time>
      </trkpt>
      <trkpt lat="45.37181" lon="5.90619">
        <ele>1651.914418037</ele>
        <time>2016-02-15T10:34:03Z</time>
      </trkpt>
      <trkpt lat="45.37182" lon="5.90619">
        <ele>1651.914418037</ele>
        <time>2016-02-15T10:34:18Z</time>
      </trkpt>
      <trkpt lat="45.37201" lon="5.90608">
        <ele>1654.819211173</ele>
        <time>2016-02-15T10:34:34Z</time>
      </trkpt>
      <trkpt lat="45.37198" lon="5.90609">
        <ele>1654.819211173</ele>
        <time>2016-02-15T10:34:38Z</time>
      </trkpt>
      <trkpt lat="45.37199" lon="5.90611">
        <ele>1654.819211173</ele>
        <time>2016-02-15T10:34:48Z</time>
      </trkpt>
      <trkpt lat="45.372" lon="5.9061">
        <ele>1654.819211173</ele>
        <time>2016-02-15T10:34:53Z</time>
      </trkpt>
      <trkpt lat="45.372" lon="5.90609">
        <ele>1654.819211173</ele>
        <time>2016-02-15T10:35:03Z</time>
      </trkpt>
      <trkpt lat="45.37201" lon="5.9061">
        <ele>1654.819211173</ele>
        <time>2016-02-15T10:35:08Z</time>
      </trkpt>
      <trkpt lat="45.37201" lon="5.90611">
        <ele>1657.700042146</ele>
        <time>2016-02-15T10:35:18Z</time>
      </trkpt>
      <trkpt lat="45.37201" lon="5.90612">
        <ele>1657.700042146</ele>
        <time>2016-02-15T10:35:23Z</time>
      </trkpt>
      <trkpt lat="45.37201" lon="5.90612">
        <ele>1657.700042146</ele>
        <time>2016-02-15T10:35:33Z</time>
      </trkpt>
      <trkpt lat="45.37201" lon="5.90612">
        <ele>1657.700042146</ele>
        <time>2016-02-15T10:35:38Z</time>
      </trkpt>
      <trkpt lat="45.37201" lon="5.90612">
        <ele>1657.700042146</ele>
        <time>2016-02-15T10:35:48Z</time>
      </trkpt>
      <trkpt lat="45.37201" lon="5.90612">
        <ele>1657.700042146</ele>
        <time>2016-02-15T10:35:53Z</time>
      </trkpt>
      <trkpt lat="45.37201" lon="5.90612">
        <ele>1657.700042146</ele>
        <time>2016-02-15T10:36:08Z</time>
      </trkpt>
      <trkpt lat="45.37201" lon="5.90612">
        <ele>1657.700042146</ele>
        <time>2016-02-15T10:36:13Z</time>
      </trkpt>
      <trkpt lat="45.37201" lon="5.90612">
        <ele>1657.700042146</ele>
        <time>2016-02-15T10:36:23Z</time>
      </trkpt>
      <trkpt lat="45.37204" lon="5.90612">
        <ele>1657.700042146</ele>
        <time>2016-02-15T10:36:38Z</time>
      </trkpt>
      <trkpt lat="45.37204" lon="5.90613">
        <ele>1657.700042146</ele>
        <time>2016-02-15T10:36:42Z</time>
      </trkpt>
      <trkpt lat="45.37206" lon="5.90614">
        <ele>1657.700042146</ele>
        <time>2016-02-15T10:36:53Z</time>
      </trkpt>
      <trkpt lat="45.37206" lon="5.90616">
        <ele>1657.700042146</ele>
        <time>2016-02-15T10:36:57Z</time>
      </trkpt>
      <trkpt lat="45.37209" lon="5.90616">
        <ele>1660.273581634</ele>
        <time>2016-02-15T10:37:07Z</time>
      </trkpt>
      <trkpt lat="45.37209" lon="5.90615">
        <ele>1660.273581634</ele>
        <time>2016-02-15T10:37:13Z</time>
      </trkpt>
      <trkpt lat="45.37209" lon="5.90616">
        <ele>1660.273581634</ele>
        <time>2016-02-15T10:37:23Z</time>
      </trkpt>
      <trkpt lat="45.3721" lon="5.90616">
        <ele>1660.273581634</ele>
        <time>2016-02-15T10:37:28Z</time>
      </trkpt>
      <trkpt lat="45.37211" lon="5.90616">
        <ele>1660.273581634</ele>
        <time>2016-02-15T10:37:38Z</time>
      </trkpt>
      <trkpt lat="45.37211" lon="5.90616">
        <ele>1660.273581634</ele>
        <time>2016-02-15T10:37:43Z</time>
      </trkpt>
      <trkpt lat="45.37211" lon="5.90616">
        <ele>1660.273581634</ele>
        <time>2016-02-15T10:37:53Z</time>
      </trkpt>
      <trkpt lat="45.37211" lon="5.90616">
        <ele>1660.273581634</ele>
        <time>2016-02-15T10:37:58Z</time>
      </trkpt>
      <trkpt lat="45.37219" lon="5.90626">
        <ele>1662.854489668</ele>
        <time>2016-02-15T10:38:08Z</time>
      </trkpt>
      <trkpt lat="45.37218" lon="5.90622">
        <ele>1662.854489668</ele>
        <time>2016-02-15T10:38:13Z</time>
      </trkpt>
      <trkpt lat="45.37218" lon="5.90621">
        <ele>1662.854489668</ele>
        <time>2016-02-15T10:38:23Z</time>
      </trkpt>
      <trkpt lat="45.37218" lon="5.90621">
        <ele>1662.854489668</ele>
        <time>2016-02-15T10:38:29Z</time>
      </trkpt>
      <trkpt lat="45.37218" lon="5.90621">
        <ele>1662.854489668</ele>
        <time>2016-02-15T10:38:38Z</time>
      </trkpt>
      <trkpt lat="45.37218" lon="5.90621">
        <ele>1662.854489668</ele>
        <time>2016-02-15T10:38:44Z</time>
      </trkpt>
      <trkpt lat="45.37218" lon="5.90621">
        <ele>1662.854489668</ele>
        <time>2016-02-15T10:38:58Z</time>
      </trkpt>
      <trkpt lat="45.37218" lon="5.90621">
        <ele>1662.854489668</ele>
        <time>2016-02-15T10:39:03Z</time>
      </trkpt>
      <trkpt lat="45.37218" lon="5.90621">
        <ele>1662.854489668</ele>
        <time>2016-02-15T10:39:13Z</time>
      </trkpt>
      <trkpt lat="45.3722" lon="5.90623">
        <ele>1662.854489668</ele>
        <time>2016-02-15T10:39:18Z</time>
      </trkpt>
      <trkpt lat="45.37221" lon="5.90624">
        <ele>1662.854489668</ele>
        <time>2016-02-15T10:39:28Z</time>
      </trkpt>
      <trkpt lat="45.37221" lon="5.90625">
        <ele>1662.854489668</ele>
        <time>2016-02-15T10:39:33Z</time>
      </trkpt>
      <trkpt lat="45.37221" lon="5.90625">
        <ele>1662.854489668</ele>
        <time>2016-02-15T10:39:44Z</time>
      </trkpt>
      <trkpt lat="45.37221" lon="5.90626">
        <ele>1662.854489668</ele>
        <time>2016-02-15T10:39:48Z</time>
      </trkpt>
      <trkpt lat="45.37221" lon="5.90626">
        <ele>1662.854489668</ele>
        <time>2016-02-15T10:39:58Z</time>
      </trkpt>
      <trkpt lat="45.37221" lon="5.90626">
        <ele>1662.854489668</ele>
        <time>2016-02-15T10:40:03Z</time>
      </trkpt>
      <trkpt lat="45.37221" lon="5.90626">
        <ele>1662.854489668</ele>
        <time>2016-02-15T10:40:13Z</time>
      </trkpt>
      <trkpt lat="45.37221" lon="5.90626">
        <ele>1662.854489668</ele>
        <time>2016-02-15T10:40:18Z</time>
      </trkpt>
      <trkpt lat="45.37221" lon="5.90626">
        <ele>1662.854489668</ele>
        <time>2016-02-15T10:40:28Z</time>
      </trkpt>
      <trkpt lat="45.37221" lon="5.90626">
        <ele>1662.854489668</ele>
        <time>2016-02-15T10:40:33Z</time>
      </trkpt>
      <trkpt lat="45.37221" lon="5.90626">
        <ele>1662.854489668</ele>
        <time>2016-02-15T10:40:43Z</time>
      </trkpt>
      <trkpt lat="45.37221" lon="5.90626">
        <ele>1662.854489668</ele>
        <time>2016-02-15T10:40:48Z</time>
      </trkpt>
      <trkpt lat="45.37221" lon="5.90626">
        <ele>1662.854489668</ele>
        <time>2016-02-15T10:40:58Z</time>
      </trkpt>
      <trkpt lat="45.37221" lon="5.90626">
        <ele>1662.854489668</ele>
        <time>2016-02-15T10:41:03Z</time>
      </trkpt>
      <trkpt lat="45.37221" lon="5.90626">
        <ele>1662.854489668</ele>
        <time>2016-02-15T10:41:18Z</time>
      </trkpt>
      <trkpt lat="45.37221" lon="5.90626">
        <ele>1662.854489668</ele>
        <time>2016-02-15T10:41:23Z</time>
      </trkpt>
      <trkpt lat="45.37221" lon="5.90626">
        <ele>1662.854489668</ele>
        <time>2016-02-15T10:41:33Z</time>
      </trkpt>
      <trkpt lat="45.37221" lon="5.90626">
        <ele>1662.854489668</ele>
        <time>2016-02-15T10:41:37Z</time>
      </trkpt>
      <trkpt lat="45.37222" lon="5.90626">
        <ele>1662.854489668</ele>
        <time>2016-02-15T10:41:48Z</time>
      </trkpt>
      <trkpt lat="45.37222" lon="5.90626">
        <ele>1662.854489668</ele>
        <time>2016-02-15T10:41:53Z</time>
      </trkpt>
      <trkpt lat="45.37222" lon="5.90626">
        <ele>1662.854489668</ele>
        <time>2016-02-15T10:42:03Z</time>
      </trkpt>
      <trkpt lat="45.37222" lon="5.90626">
        <ele>1662.854489668</ele>
        <time>2016-02-15T10:42:08Z</time>
      </trkpt>
      <trkpt lat="45.37222" lon="5.90626">
        <ele>1662.854489668</ele>
        <time>2016-02-15T10:42:18Z</time>
      </trkpt>
      <trkpt lat="45.37222" lon="5.90625">
        <ele>1662.854489668</ele>
        <time>2016-02-15T10:42:23Z</time>
      </trkpt>
      <trkpt lat="45.37222" lon="5.90625">
        <ele>1662.854489668</ele>
        <time>2016-02-15T10:42:38Z</time>
      </trkpt>
      <trkpt lat="45.37222" lon="5.90625">
        <ele>1662.854489668</ele>
        <time>2016-02-15T10:42:53Z</time>
      </trkpt>
      <trkpt lat="45.37222" lon="5.90625">
        <ele>1662.854489668</ele>
        <time>2016-02-15T10:42:58Z</time>
      </trkpt>
      <trkpt lat="45.37222" lon="5.90625">
        <ele>1662.854489668</ele>
        <time>2016-02-15T10:43:08Z</time>
      </trkpt>
      <trkpt lat="45.37222" lon="5.90625">
        <ele>1662.854489668</ele>
        <time>2016-02-15T10:43:14Z</time>
      </trkpt>
      <trkpt lat="45.37222" lon="5.90625">
        <ele>1662.854489668</ele>
        <time>2016-02-15T10:43:23Z</time>
      </trkpt>
      <trkpt lat="45.37222" lon="5.90625">
        <ele>1664.869491256</ele>
        <time>2016-02-15T10:43:28Z</time>
      </trkpt>
      <trkpt lat="45.37222" lon="5.90626">
        <ele>1664.869491256</ele>
        <time>2016-02-15T10:43:39Z</time>
      </trkpt>
      <trkpt lat="45.37222" lon="5.90626">
        <ele>1664.869491256</ele>
        <time>2016-02-15T10:43:43Z</time>
      </trkpt>
      <trkpt lat="45.37222" lon="5.90626">
        <ele>1664.869491256</ele>
        <time>2016-02-15T10:43:53Z</time>
      </trkpt>
      <trkpt lat="45.37222" lon="5.90626">
        <ele>1664.869491256</ele>
        <time>2016-02-15T10:43:58Z</time>
      </trkpt>
      <trkpt lat="45.37222" lon="5.90626">
        <ele>1664.869491256</ele>
        <time>2016-02-15T10:44:08Z</time>
      </trkpt>
      <trkpt lat="45.37222" lon="5.90626">
        <ele>1664.869491256</ele>
        <time>2016-02-15T10:44:13Z</time>
      </trkpt>
      <trkpt lat="45.37225" lon="5.9062">
        <ele>1664.869491256</ele>
        <time>2016-02-15T10:44:29Z</time>
      </trkpt>
      <trkpt lat="45.37227" lon="5.90619">
        <ele>1664.869491256</ele>
        <time>2016-02-15T10:44:38Z</time>
      </trkpt>
      <trkpt lat="45.37227" lon="5.90618">
        <ele>1664.869491256</ele>
        <time>2016-02-15T10:44:43Z</time>
      </trkpt>
      <trkpt lat="45.37227" lon="5.90618">
        <ele>1664.869491256</ele>
        <time>2016-02-15T10:44:58Z</time>
      </trkpt>
      <trkpt lat="45.37227" lon="5.90618">
        <ele>1664.869491256</ele>
        <time>2016-02-15T10:45:03Z</time>
      </trkpt>
      <trkpt lat="45.37227" lon="5.90618">
        <ele>1664.869491256</ele>
        <time>2016-02-15T10:45:13Z</time>
      </trkpt>
      <trkpt lat="45.37227" lon="5.90618">
        <ele>1664.869491256</ele>
        <time>2016-02-15T10:45:18Z</time>
      </trkpt>
      <trkpt lat="45.37227" lon="5.90618">
        <ele>1664.869491256</ele>
        <time>2016-02-15T10:45:28Z</time>
      </trkpt>
      <trkpt lat="45.37227" lon="5.90618">
        <ele>1664.869491256</ele>
        <time>2016-02-15T10:45:33Z</time>
      </trkpt>
      <trkpt lat="45.37227" lon="5.90618">
        <ele>1664.869491256</ele>
        <time>2016-02-15T10:45:43Z</time>
      </trkpt>
      <trkpt lat="45.37227" lon="5.90618">
        <ele>1664.869491256</ele>
        <time>2016-02-15T10:45:48Z</time>
      </trkpt>
      <trkpt lat="45.37227" lon="5.90618">
        <ele>1664.869491256</ele>
        <time>2016-02-15T10:46:02Z</time>
      </trkpt>
      <trkpt lat="45.37227" lon="5.90618">
        <ele>1664.869491256</ele>
        <time>2016-02-15T10:46:08Z</time>
      </trkpt>
      <trkpt lat="45.37227" lon="5.90618">
        <ele>1664.869491256</ele>
        <time>2016-02-15T10:46:18Z</time>
      </trkpt>
      <trkpt lat="45.37227" lon="5.90618">
        <ele>1664.869491256</ele>
        <time>2016-02-15T10:46:28Z</time>
      </trkpt>
      <trkpt lat="45.37227" lon="5.90618">
        <ele>1664.869491256</ele>
        <time>2016-02-15T10:46:33Z</time>
      </trkpt>
      <trkpt lat="45.37227" lon="5.90618">
        <ele>1664.869491256</ele>
        <time>2016-02-15T10:46:48Z</time>
      </trkpt>
      <trkpt lat="45.37227" lon="5.90618">
        <ele>1664.869491256</ele>
        <time>2016-02-15T10:46:52Z</time>
      </trkpt>
      <trkpt lat="45.37227" lon="5.90618">
        <ele>1664.869491256</ele>
        <time>2016-02-15T10:47:03Z</time>
      </trkpt>
      <trkpt lat="45.37227" lon="5.90618">
        <ele>1664.869491256</ele>
        <time>2016-02-15T10:47:08Z</time>
      </trkpt>
      <trkpt lat="45.37227" lon="5.90618">
        <ele>1664.869491256</ele>
        <time>2016-02-15T10:47:18Z</time>
      </trkpt>
      <trkpt lat="45.37227" lon="5.90618">
        <ele>1664.869491256</ele>
        <time>2016-02-15T10:47:23Z</time>
      </trkpt>
      <trkpt lat="45.37227" lon="5.90618">
        <ele>1664.869491256</ele>
        <time>2016-02-15T10:47:33Z</time>
      </trkpt>
      <trkpt lat="45.37227" lon="5.90618">
        <ele>1664.869491256</ele>
        <time>2016-02-15T10:47:38Z</time>
      </trkpt>
      <trkpt lat="45.37228" lon="5.90618">
        <ele>1664.869491256</ele>
        <time>2016-02-15T10:47:48Z</time>
      </trkpt>
      <trkpt lat="45.37228" lon="5.90618">
        <ele>1664.869491256</ele>
        <time>2016-02-15T10:47:53Z</time>
      </trkpt>
      <trkpt lat="45.37228" lon="5.90617">
        <ele>1664.869491256</ele>
        <time>2016-02-15T10:48:08Z</time>
      </trkpt>
      <trkpt lat="45.37228" lon="5.90617">
        <ele>1664.869491256</ele>
        <time>2016-02-15T10:48:18Z</time>
      </trkpt>
      <trkpt lat="45.37228" lon="5.90617">
        <ele>1664.869491256</ele>
        <time>2016-02-15T10:48:23Z</time>
      </trkpt>
      <trkpt lat="45.37228" lon="5.90617">
        <ele>1664.869491256</ele>
        <time>2016-02-15T10:48:38Z</time>
      </trkpt>
      <trkpt lat="45.37228" lon="5.90617">
        <ele>1664.869491256</ele>
        <time>2016-02-15T10:48:42Z</time>
      </trkpt>
      <trkpt lat="45.37228" lon="5.90617">
        <ele>1664.869491256</ele>
        <time>2016-02-15T10:48:53Z</time>
      </trkpt>
      <trkpt lat="45.37228" lon="5.90617">
        <ele>1664.869491256</ele>
        <time>2016-02-15T10:48:58Z</time>
      </trkpt>
      <trkpt lat="45.37228" lon="5.90617">
        <ele>1664.869491256</ele>
        <time>2016-02-15T10:49:08Z</time>
      </trkpt>
      <trkpt lat="45.37228" lon="5.90617">
        <ele>1664.869491256</ele>
        <time>2016-02-15T10:49:13Z</time>
      </trkpt>
      <trkpt lat="45.37228" lon="5.90617">
        <ele>1664.869491256</ele>
        <time>2016-02-15T10:49:29Z</time>
      </trkpt>
      <trkpt lat="45.37228" lon="5.90617">
        <ele>1664.869491256</ele>
        <time>2016-02-15T10:49:30Z</time>
      </trkpt>
      <trkpt lat="45.37228" lon="5.90617">
        <ele>1664.869491256</ele>
        <time>2016-02-15T10:49:42Z</time>
      </trkpt>
      <trkpt lat="45.37228" lon="5.90616">
        <ele>1664.869491256</ele>
        <time>2016-02-15T10:50:08Z</time>
      </trkpt>
      <trkpt lat="45.37228" lon="5.90616">
        <ele>1664.869491256</ele>
        <time>2016-02-15T10:50:12Z</time>
      </trkpt>
      <trkpt lat="45.37228" lon="5.90616">
        <ele>1664.869491256</ele>
        <time>2016-02-15T10:50:17Z</time>
      </trkpt>
      <trkpt lat="45.37228" lon="5.90616">
        <ele>1664.869491256</ele>
        <time>2016-02-15T10:50:26Z</time>
      </trkpt>
      <trkpt lat="45.37228" lon="5.90616">
        <ele>1664.869491256</ele>
        <time>2016-02-15T10:50:27Z</time>
      </trkpt>
      <trkpt lat="45.37229" lon="5.90615">
        <ele>1667.085877849</ele>
        <time>2016-02-15T10:51:11Z</time>
      </trkpt>
      <trkpt lat="45.37229" lon="5.90615">
        <ele>1667.085877849</ele>
        <time>2016-02-15T10:51:18Z</time>
      </trkpt>
      <trkpt lat="45.37229" lon="5.90615">
        <ele>1667.085877849</ele>
        <time>2016-02-15T10:51:20Z</time>
      </trkpt>
      <trkpt lat="45.37229" lon="5.90615">
        <ele>1667.085877849</ele>
        <time>2016-02-15T10:51:37Z</time>
      </trkpt>
      <trkpt lat="45.37229" lon="5.90614">
        <ele>1667.085877849</ele>
        <time>2016-02-15T10:52:49Z</time>
      </trkpt>
      <trkpt lat="45.3723" lon="5.90614">
        <ele>1667.085877849</ele>
        <time>2016-02-15T10:53:39Z</time>
      </trkpt>
      <trkpt lat="45.3723" lon="5.90614">
        <ele>1667.085877849</ele>
        <time>2016-02-15T10:53:40Z</time>
      </trkpt>
      <trkpt lat="45.3723" lon="5.90613">
        <ele>1667.085877849</ele>
        <time>2016-02-15T10:53:47Z</time>
      </trkpt>
      <trkpt lat="45.3723" lon="5.90613">
        <ele>1667.085877849</ele>
        <time>2016-02-15T10:54:22Z</time>
      </trkpt>
      <trkpt lat="45.3723" lon="5.90613">
        <ele>1667.085877849</ele>
        <time>2016-02-15T10:54:23Z</time>
      </trkpt>
      <trkpt lat="45.3723" lon="5.90613">
        <ele>1667.085877849</ele>
        <time>2016-02-15T10:54:27Z</time>
      </trkpt>
      <trkpt lat="45.3723" lon="5.90613">
        <ele>1667.085877849</ele>
        <time>2016-02-15T10:54:35Z</time>
      </trkpt>
      <trkpt lat="45.3723" lon="5.90612">
        <ele>1667.085877849</ele>
        <time>2016-02-15T10:54:37Z</time>
      </trkpt>
      <trkpt lat="45.3723" lon="5.90612">
        <ele>1667.085877849</ele>
        <time>2016-02-15T10:55:09Z</time>
      </trkpt>
      <trkpt lat="45.3723" lon="5.90612">
        <ele>1667.085877849</ele>
        <time>2016-02-15T10:55:28Z</time>
      </trkpt>
      <trkpt lat="45.3723" lon="5.90612">
        <ele>1667.085877849</ele>
        <time>2016-02-15T10:55:28Z</time>
      </trkpt>
      <trkpt lat="45.3723" lon="5.90611">
        <ele>1667.085877849</ele>
        <time>2016-02-15T10:55:49Z</time>
      </trkpt>
      <trkpt lat="45.3723" lon="5.90611">
        <ele>1667.085877849</ele>
        <time>2016-02-15T10:56:07Z</time>
      </trkpt>
      <trkpt lat="45.37231" lon="5.90611">
        <ele>1667.085877849</ele>
        <time>2016-02-15T10:56:21Z</time>
      </trkpt>
      <trkpt lat="45.37231" lon="5.90611">
        <ele>1667.085877849</ele>
        <time>2016-02-15T10:56:21Z</time>
      </trkpt>
      <trkpt lat="45.37231" lon="5.90611">
        <ele>1667.085877849</ele>
        <time>2016-02-15T10:56:32Z</time>
      </trkpt>
      <trkpt lat="45.37231" lon="5.90611">
        <ele>1667.085877849</ele>
        <time>2016-02-15T10:56:32Z</time>
      </trkpt>
      <trkpt lat="45.37231" lon="5.90609">
        <ele>1667.085877849</ele>
        <time>2016-02-15T10:57:40Z</time>
      </trkpt>
      <trkpt lat="45.37231" lon="5.90609">
        <ele>1667.085877849</ele>
        <time>2016-02-15T10:57:42Z</time>
      </trkpt>
      <trkpt lat="45.37231" lon="5.90609">
        <ele>1667.085877849</ele>
        <time>2016-02-15T10:57:55Z</time>
      </trkpt>
      <trkpt lat="45.37231" lon="5.90609">
        <ele>1667.085877849</ele>
        <time>2016-02-15T10:57:57Z</time>
      </trkpt>
      <trkpt lat="45.37232" lon="5.90597">
        <ele>1670.069764028</ele>
        <time>2016-02-15T10:58:08Z</time>
      </trkpt>
      <trkpt lat="45.37231" lon="5.90595">
        <ele>1670.069764028</ele>
        <time>2016-02-15T10:58:13Z</time>
      </trkpt>
      <trkpt lat="45.37231" lon="5.90594">
        <ele>1670.069764028</ele>
        <time>2016-02-15T10:58:24Z</time>
      </trkpt>
      <trkpt lat="45.37231" lon="5.90594">
        <ele>1670.069764028</ele>
        <time>2016-02-15T10:58:28Z</time>
      </trkpt>
      <trkpt lat="45.37231" lon="5.90594">
        <ele>1670.069764028</ele>
        <time>2016-02-15T10:58:38Z</time>
      </trkpt>
      <trkpt lat="45.37231" lon="5.90594">
        <ele>1670.069764028</ele>
        <time>2016-02-15T10:58:43Z</time>
      </trkpt>
      <trkpt lat="45.37231" lon="5.90594">
        <ele>1670.069764028</ele>
        <time>2016-02-15T10:58:53Z</time>
      </trkpt>
      <trkpt lat="45.37231" lon="5.90594">
        <ele>1670.069764028</ele>
        <time>2016-02-15T10:58:58Z</time>
      </trkpt>
      <trkpt lat="45.37231" lon="5.90594">
        <ele>1670.069764028</ele>
        <time>2016-02-15T10:59:08Z</time>
      </trkpt>
      <trkpt lat="45.37231" lon="5.90594">
        <ele>1670.069764028</ele>
        <time>2016-02-15T10:59:13Z</time>
      </trkpt>
      <trkpt lat="45.37231" lon="5.90594">
        <ele>1670.069764028</ele>
        <time>2016-02-15T10:59:29Z</time>
      </trkpt>
      <trkpt lat="45.37234" lon="5.90592">
        <ele>1670.069764028</ele>
        <time>2016-02-15T10:59:43Z</time>
      </trkpt>
      <trkpt lat="45.37234" lon="5.90593">
        <ele>1670.069764028</ele>
        <time>2016-02-15T10:59:48Z</time>
      </trkpt>
      <trkpt lat="45.37234" lon="5.90592">
        <ele>1670.069764028</ele>
        <time>2016-02-15T10:59:57Z</time>
      </trkpt>
      <trkpt lat="45.37234" lon="5.90592">
        <ele>1670.069764028</ele>
        <time>2016-02-15T11:00:02Z</time>
      </trkpt>
      <trkpt lat="45.37234" lon="5.90592">
        <ele>1670.069764028</ele>
        <time>2016-02-15T11:00:12Z</time>
      </trkpt>
      <trkpt lat="45.37234" lon="5.90592">
        <ele>1670.069764028</ele>
        <time>2016-02-15T11:00:18Z</time>
      </trkpt>
      <trkpt lat="45.37234" lon="5.90592">
        <ele>1670.069764028</ele>
        <time>2016-02-15T11:00:27Z</time>
      </trkpt>
      <trkpt lat="45.37234" lon="5.90592">
        <ele>1670.069764028</ele>
        <time>2016-02-15T11:00:33Z</time>
      </trkpt>
      <trkpt lat="45.37234" lon="5.90592">
        <ele>1670.069764028</ele>
        <time>2016-02-15T11:00:44Z</time>
      </trkpt>
      <trkpt lat="45.37234" lon="5.90592">
        <ele>1670.069764028</ele>
        <time>2016-02-15T11:00:48Z</time>
      </trkpt>
      <trkpt lat="45.37234" lon="5.90592">
        <ele>1670.069764028</ele>
        <time>2016-02-15T11:00:58Z</time>
      </trkpt>
      <trkpt lat="45.37234" lon="5.90592">
        <ele>1670.069764028</ele>
        <time>2016-02-15T11:01:03Z</time>
      </trkpt>
      <trkpt lat="45.37234" lon="5.90591">
        <ele>1670.069764028</ele>
        <time>2016-02-15T11:01:18Z</time>
      </trkpt>
      <trkpt lat="45.37234" lon="5.90591">
        <ele>1670.069764028</ele>
        <time>2016-02-15T11:01:23Z</time>
      </trkpt>
      <trkpt lat="45.37234" lon="5.90591">
        <ele>1670.069764028</ele>
        <time>2016-02-15T11:01:33Z</time>
      </trkpt>
      <trkpt lat="45.37234" lon="5.90591">
        <ele>1670.069764028</ele>
        <time>2016-02-15T11:01:38Z</time>
      </trkpt>
      <trkpt lat="45.37234" lon="5.9059">
        <ele>1670.069764028</ele>
        <time>2016-02-15T11:01:49Z</time>
      </trkpt>
      <trkpt lat="45.37234" lon="5.9059">
        <ele>1670.069764028</ele>
        <time>2016-02-15T11:01:53Z</time>
      </trkpt>
      <trkpt lat="45.37234" lon="5.9059">
        <ele>1670.069764028</ele>
        <time>2016-02-15T11:02:03Z</time>
      </trkpt>
      <trkpt lat="45.37234" lon="5.9059">
        <ele>1670.069764028</ele>
        <time>2016-02-15T11:02:08Z</time>
      </trkpt>
      <trkpt lat="45.37234" lon="5.9059">
        <ele>1670.069764028</ele>
        <time>2016-02-15T11:02:17Z</time>
      </trkpt>
      <trkpt lat="45.37234" lon="5.9059">
        <ele>1670.069764028</ele>
        <time>2016-02-15T11:02:22Z</time>
      </trkpt>
      <trkpt lat="45.37234" lon="5.90589">
        <ele>1670.069764028</ele>
        <time>2016-02-15T11:02:33Z</time>
      </trkpt>
      <trkpt lat="45.37234" lon="5.90589">
        <ele>1670.069764028</ele>
        <time>2016-02-15T11:02:38Z</time>
      </trkpt>
      <trkpt lat="45.37234" lon="5.90589">
        <ele>1670.069764028</ele>
        <time>2016-02-15T11:02:47Z</time>
      </trkpt>
      <trkpt lat="45.37234" lon="5.90589">
        <ele>1670.069764028</ele>
        <time>2016-02-15T11:02:53Z</time>
      </trkpt>
      <trkpt lat="45.37234" lon="5.90589">
        <ele>1670.069764028</ele>
        <time>2016-02-15T11:03:03Z</time>
      </trkpt>
      <trkpt lat="45.37234" lon="5.90589">
        <ele>1670.069764028</ele>
        <time>2016-02-15T11:03:08Z</time>
      </trkpt>
      <trkpt lat="45.37234" lon="5.90589">
        <ele>1675.640393882</ele>
        <time>2016-02-15T11:03:18Z</time>
      </trkpt>
      <trkpt lat="45.37234" lon="5.90589">
        <ele>1675.640393882</ele>
        <time>2016-02-15T11:03:23Z</time>
      </trkpt>
      <trkpt lat="45.37234" lon="5.90588">
        <ele>1675.640393882</ele>
        <time>2016-02-15T11:03:33Z</time>
      </trkpt>
      <trkpt lat="45.37234" lon="5.90588">
        <ele>1675.640393882</ele>
        <time>2016-02-15T11:03:38Z</time>
      </trkpt>
      <trkpt lat="45.37234" lon="5.90588">
        <ele>1675.640393882</ele>
        <time>2016-02-15T11:03:48Z</time>
      </trkpt>
      <trkpt lat="45.37234" lon="5.90588">
        <ele>1675.640393882</ele>
        <time>2016-02-15T11:03:53Z</time>
      </trkpt>
      <trkpt lat="45.37234" lon="5.90588">
        <ele>1675.640393882</ele>
        <time>2016-02-15T11:04:08Z</time>
      </trkpt>
      <trkpt lat="45.37234" lon="5.90588">
        <ele>1675.640393882</ele>
        <time>2016-02-15T11:04:13Z</time>
      </trkpt>
      <trkpt lat="45.37234" lon="5.90587">
        <ele>1675.640393882</ele>
        <time>2016-02-15T11:04:23Z</time>
      </trkpt>
      <trkpt lat="45.37234" lon="5.90587">
        <ele>1675.640393882</ele>
        <time>2016-02-15T11:04:29Z</time>
      </trkpt>
      <trkpt lat="45.37234" lon="5.90587">
        <ele>1675.640393882</ele>
        <time>2016-02-15T11:04:44Z</time>
      </trkpt>
      <trkpt lat="45.37234" lon="5.90587">
        <ele>1675.640393882</ele>
        <time>2016-02-15T11:04:45Z</time>
      </trkpt>
      <trkpt lat="45.37234" lon="5.90587">
        <ele>1675.640393882</ele>
        <time>2016-02-15T11:05:10Z</time>
      </trkpt>
      <trkpt lat="45.37235" lon="5.90587">
        <ele>1675.640393882</ele>
        <time>2016-02-15T11:13:46Z</time>
      </trkpt>
      <trkpt lat="45.37235" lon="5.90575">
        <ele>1681.296765007</ele>
        <time>2016-02-15T11:19:02Z</time>
      </trkpt>
      <trkpt lat="45.37233" lon="5.90579">
        <ele>1681.296765007</ele>
        <time>2016-02-15T11:19:02Z</time>
      </trkpt>
      <trkpt lat="45.37234" lon="5.9058">
        <ele>1681.296765007</ele>
        <time>2016-02-15T11:19:08Z</time>
      </trkpt>
      <trkpt lat="45.37238" lon="5.90577">
        <ele>1688.468143733</ele>
        <time>2016-02-15T11:19:17Z</time>
      </trkpt>
      <trkpt lat="45.37235" lon="5.90582">
        <ele>1688.468143733</ele>
        <time>2016-02-15T11:19:22Z</time>
      </trkpt>
      <trkpt lat="45.37234" lon="5.90583">
        <ele>1688.468143733</ele>
        <time>2016-02-15T11:19:38Z</time>
      </trkpt>
      <trkpt lat="45.37234" lon="5.90584">
        <ele>1688.468143733</ele>
        <time>2016-02-15T11:19:43Z</time>
      </trkpt>
      <trkpt lat="45.37234" lon="5.90586">
        <ele>1688.468143733</ele>
        <time>2016-02-15T11:19:54Z</time>
      </trkpt>
      <trkpt lat="45.37234" lon="5.90586">
        <ele>1688.468143733</ele>
        <time>2016-02-15T11:19:58Z</time>
      </trkpt>
      <trkpt lat="45.37232" lon="5.90587">
        <ele>1695.736360288</ele>
        <time>2016-02-15T11:20:09Z</time>
      </trkpt>
      <trkpt lat="45.37233" lon="5.90584">
        <ele>1695.736360288</ele>
        <time>2016-02-15T11:20:13Z</time>
      </trkpt>
      <trkpt lat="45.37234" lon="5.90583">
        <ele>1695.736360288</ele>
        <time>2016-02-15T11:20:23Z</time>
      </trkpt>
      <trkpt lat="45.37234" lon="5.90584">
        <ele>1695.736360288</ele>
        <time>2016-02-15T11:20:28Z</time>
      </trkpt>
      <trkpt lat="45.37233" lon="5.90586">
        <ele>1695.736360288</ele>
        <time>2016-02-15T11:20:38Z</time>
      </trkpt>
      <trkpt lat="45.37233" lon="5.90585">
        <ele>1695.736360288</ele>
        <time>2016-02-15T11:20:44Z</time>
      </trkpt>
      <trkpt lat="45.37232" lon="5.90586">
        <ele>1695.736360288</ele>
        <time>2016-02-15T11:20:53Z</time>
      </trkpt>
      <trkpt lat="45.37233" lon="5.90586">
        <ele>1695.736360288</ele>
        <time>2016-02-15T11:20:58Z</time>
      </trkpt>
      <trkpt lat="45.37233" lon="5.90593">
        <ele>1698.328424498</ele>
        <time>2016-02-15T11:21:08Z</time>
      </trkpt>
      <trkpt lat="45.37233" lon="5.90592">
        <ele>1698.328424498</ele>
        <time>2016-02-15T11:21:13Z</time>
      </trkpt>
      <trkpt lat="45.37233" lon="5.90593">
        <ele>1698.328424498</ele>
        <time>2016-02-15T11:21:23Z</time>
      </trkpt>
      <trkpt lat="45.37233" lon="5.90593">
        <ele>1698.328424498</ele>
        <time>2016-02-15T11:21:28Z</time>
      </trkpt>
      <trkpt lat="45.37233" lon="5.90593">
        <ele>1698.328424498</ele>
        <time>2016-02-15T11:21:38Z</time>
      </trkpt>
      <trkpt lat="45.37233" lon="5.90593">
        <ele>1698.328424498</ele>
        <time>2016-02-15T11:21:43Z</time>
      </trkpt>
      <trkpt lat="45.37233" lon="5.90593">
        <ele>1698.328424498</ele>
        <time>2016-02-15T11:21:53Z</time>
      </trkpt>
      <trkpt lat="45.37233" lon="5.90593">
        <ele>1698.328424498</ele>
        <time>2016-02-15T11:21:58Z</time>
      </trkpt>
      <trkpt lat="45.37233" lon="5.90593">
        <ele>1698.328424498</ele>
        <time>2016-02-15T11:22:08Z</time>
      </trkpt>
      <trkpt lat="45.37233" lon="5.90593">
        <ele>1698.328424498</ele>
        <time>2016-02-15T11:22:13Z</time>
      </trkpt>
      <trkpt lat="45.37233" lon="5.90593">
        <ele>1698.328424498</ele>
        <time>2016-02-15T11:22:24Z</time>
      </trkpt>
      <trkpt lat="45.37233" lon="5.90593">
        <ele>1698.328424498</ele>
        <time>2016-02-15T11:22:28Z</time>
      </trkpt>
      <trkpt lat="45.37233" lon="5.90593">
        <ele>1698.328424498</ele>
        <time>2016-02-15T11:22:32Z</time>
      </trkpt>
      <trkpt lat="45.37233" lon="5.90593">
        <ele>1698.328424498</ele>
        <time>2016-02-15T11:22:43Z</time>
      </trkpt>
      <trkpt lat="45.37233" lon="5.90593">
        <ele>1698.328424498</ele>
        <time>2016-02-15T11:22:48Z</time>
      </trkpt>
      <trkpt lat="45.37233" lon="5.90593">
        <ele>1698.328424498</ele>
        <time>2016-02-15T11:22:58Z</time>
      </trkpt>
      <trkpt lat="45.37233" lon="5.90593">
        <ele>1698.328424498</ele>
        <time>2016-02-15T11:23:02Z</time>
      </trkpt>
      <trkpt lat="45.37233" lon="5.90593">
        <ele>1698.328424498</ele>
        <time>2016-02-15T11:23:12Z</time>
      </trkpt>
      <trkpt lat="45.37233" lon="5.90593">
        <ele>1698.328424498</ele>
        <time>2016-02-15T11:23:18Z</time>
      </trkpt>
      <trkpt lat="45.37233" lon="5.90593">
        <ele>1698.328424498</ele>
        <time>2016-02-15T11:23:28Z</time>
      </trkpt>
      <trkpt lat="45.37233" lon="5.90593">
        <ele>1698.328424498</ele>
        <time>2016-02-15T11:23:33Z</time>
      </trkpt>
      <trkpt lat="45.37233" lon="5.90593">
        <ele>1698.328424498</ele>
        <time>2016-02-15T11:23:44Z</time>
      </trkpt>
      <trkpt lat="45.37232" lon="5.90594">
        <ele>1698.328424498</ele>
        <time>2016-02-15T11:23:48Z</time>
      </trkpt>
      <trkpt lat="45.37232" lon="5.90595">
        <ele>1698.328424498</ele>
        <time>2016-02-15T11:23:59Z</time>
      </trkpt>
      <trkpt lat="45.37232" lon="5.90595">
        <ele>1698.328424498</ele>
        <time>2016-02-15T11:24:03Z</time>
      </trkpt>
      <trkpt lat="45.37232" lon="5.90595">
        <ele>1698.328424498</ele>
        <time>2016-02-15T11:24:18Z</time>
      </trkpt>
      <trkpt lat="45.37232" lon="5.90595">
        <ele>1698.328424498</ele>
        <time>2016-02-15T11:24:23Z</time>
      </trkpt>
      <trkpt lat="45.37232" lon="5.90595">
        <ele>1698.328424498</ele>
        <time>2016-02-15T11:24:33Z</time>
      </trkpt>
      <trkpt lat="45.37232" lon="5.90595">
        <ele>1698.328424498</ele>
        <time>2016-02-15T11:24:37Z</time>
      </trkpt>
      <trkpt lat="45.37232" lon="5.90595">
        <ele>1698.328424498</ele>
        <time>2016-02-15T11:24:48Z</time>
      </trkpt>
      <trkpt lat="45.37232" lon="5.90595">
        <ele>1698.328424498</ele>
        <time>2016-02-15T11:24:53Z</time>
      </trkpt>
      <trkpt lat="45.37232" lon="5.90595">
        <ele>1698.328424498</ele>
        <time>2016-02-15T11:25:03Z</time>
      </trkpt>
      <trkpt lat="45.37232" lon="5.90595">
        <ele>1698.328424498</ele>
        <time>2016-02-15T11:25:08Z</time>
      </trkpt>
      <trkpt lat="45.37232" lon="5.90595">
        <ele>1698.328424498</ele>
        <time>2016-02-15T11:25:18Z</time>
      </trkpt>
      <trkpt lat="45.37232" lon="5.90602">
        <ele>1698.328424498</ele>
        <time>2016-02-15T11:25:23Z</time>
      </trkpt>
      <trkpt lat="45.37235" lon="5.90603">
        <ele>1699.328830004</ele>
        <time>2016-02-15T11:25:33Z</time>
      </trkpt>
      <trkpt lat="45.37234" lon="5.90606">
        <ele>1699.328830004</ele>
        <time>2016-02-15T11:25:38Z</time>
      </trkpt>
      <trkpt lat="45.37234" lon="5.90611">
        <ele>1699.328830004</ele>
        <time>2016-02-15T11:25:48Z</time>
      </trkpt>
      <trkpt lat="45.37234" lon="5.90611">
        <ele>1699.328830004</ele>
        <time>2016-02-15T11:25:53Z</time>
      </trkpt>
      <trkpt lat="45.37234" lon="5.90611">
        <ele>1699.328830004</ele>
        <time>2016-02-15T11:26:03Z</time>
      </trkpt>
      <trkpt lat="45.37234" lon="5.90612">
        <ele>1699.328830004</ele>
        <time>2016-02-15T11:26:08Z</time>
      </trkpt>
      <trkpt lat="45.37233" lon="5.90614">
        <ele>1699.328830004</ele>
        <time>2016-02-15T11:26:23Z</time>
      </trkpt>
      <trkpt lat="45.37233" lon="5.90614">
        <ele>1699.328830004</ele>
        <time>2016-02-15T11:26:28Z</time>
      </trkpt>
      <trkpt lat="45.37233" lon="5.90614">
        <ele>1699.328830004</ele>
        <time>2016-02-15T11:26:38Z</time>
      </trkpt>
      <trkpt lat="45.37233" lon="5.90614">
        <ele>1699.328830004</ele>
        <time>2016-02-15T11:26:43Z</time>
      </trkpt>
      <trkpt lat="45.37233" lon="5.90614">
        <ele>1699.328830004</ele>
        <time>2016-02-15T11:26:53Z</time>
      </trkpt>
      <trkpt lat="45.37233" lon="5.90614">
        <ele>1699.328830004</ele>
        <time>2016-02-15T11:26:58Z</time>
      </trkpt>
      <trkpt lat="45.37233" lon="5.90614">
        <ele>1699.328830004</ele>
        <time>2016-02-15T11:27:08Z</time>
      </trkpt>
      <trkpt lat="45.37233" lon="5.90614">
        <ele>1699.328830004</ele>
        <time>2016-02-15T11:27:12Z</time>
      </trkpt>
      <trkpt lat="45.37233" lon="5.90614">
        <ele>1699.328830004</ele>
        <time>2016-02-15T11:27:22Z</time>
      </trkpt>
      <trkpt lat="45.37233" lon="5.90614">
        <ele>1699.328830004</ele>
        <time>2016-02-15T11:27:28Z</time>
      </trkpt>
      <trkpt lat="45.37233" lon="5.90614">
        <ele>1699.328830004</ele>
        <time>2016-02-15T11:27:38Z</time>
      </trkpt>
      <trkpt lat="45.37233" lon="5.90614">
        <ele>1699.328830004</ele>
        <time>2016-02-15T11:27:43Z</time>
      </trkpt>
      <trkpt lat="45.37233" lon="5.90614">
        <ele>1699.328830004</ele>
        <time>2016-02-15T11:27:53Z</time>
      </trkpt>
      <trkpt lat="45.37233" lon="5.90614">
        <ele>1699.328830004</ele>
        <time>2016-02-15T11:27:58Z</time>
      </trkpt>
      <trkpt lat="45.37233" lon="5.90614">
        <ele>1699.328830004</ele>
        <time>2016-02-15T11:28:08Z</time>
      </trkpt>
      <trkpt lat="45.37233" lon="5.90614">
        <ele>1699.328830004</ele>
        <time>2016-02-15T11:28:13Z</time>
      </trkpt>
      <trkpt lat="45.37232" lon="5.90617">
        <ele>1700.302913488</ele>
        <time>2016-02-15T11:28:23Z</time>
      </trkpt>
      <trkpt lat="45.37235" lon="5.90612">
        <ele>1700.302913488</ele>
        <time>2016-02-15T11:28:28Z</time>
      </trkpt>
      <trkpt lat="45.37235" lon="5.90611">
        <ele>1700.302913488</ele>
        <time>2016-02-15T11:28:43Z</time>
      </trkpt>
      <trkpt lat="45.37232" lon="5.9061">
        <ele>1700.302913488</ele>
        <time>2016-02-15T11:28:48Z</time>
      </trkpt>
      <trkpt lat="45.37234" lon="5.90611">
        <ele>1698.954156375</ele>
        <time>2016-02-15T11:28:58Z</time>
      </trkpt>
      <trkpt lat="45.37233" lon="5.90613">
        <ele>1698.954156375</ele>
        <time>2016-02-15T11:29:03Z</time>
      </trkpt>
      <trkpt lat="45.37233" lon="5.90613">
        <ele>1698.954156375</ele>
        <time>2016-02-15T11:29:14Z</time>
      </trkpt>
      <trkpt lat="45.37231" lon="5.90615">
        <ele>1698.954156375</ele>
        <time>2016-02-15T11:29:18Z</time>
      </trkpt>
      <trkpt lat="45.37229" lon="5.90619">
        <ele>1698.954156375</ele>
        <time>2016-02-15T11:29:29Z</time>
      </trkpt>
      <trkpt lat="45.37229" lon="5.90621">
        <ele>1698.954156375</ele>
        <time>2016-02-15T11:29:33Z</time>
      </trkpt>
      <trkpt lat="45.37229" lon="5.9062">
        <ele>1697.196301072</ele>
        <time>2016-02-15T11:29:44Z</time>
      </trkpt>
      <trkpt lat="45.37229" lon="5.9062">
        <ele>1697.196301072</ele>
        <time>2016-02-15T11:29:48Z</time>
      </trkpt>
      <trkpt lat="45.37229" lon="5.90619">
        <ele>1697.196301072</ele>
        <time>2016-02-15T11:29:58Z</time>
      </trkpt>
      <trkpt lat="45.37229" lon="5.90619">
        <ele>1697.196301072</ele>
        <time>2016-02-15T11:30:03Z</time>
      </trkpt>
      <trkpt lat="45.37229" lon="5.90619">
        <ele>1697.196301072</ele>
        <time>2016-02-15T11:30:13Z</time>
      </trkpt>
      <trkpt lat="45.37229" lon="5.90619">
        <ele>1697.196301072</ele>
        <time>2016-02-15T11:30:18Z</time>
      </trkpt>
      <trkpt lat="45.37229" lon="5.90619">
        <ele>1697.196301072</ele>
        <time>2016-02-15T11:30:28Z</time>
      </trkpt>
      <trkpt lat="45.37229" lon="5.90619">
        <ele>1697.196301072</ele>
        <time>2016-02-15T11:30:33Z</time>
      </trkpt>
      <trkpt lat="45.37229" lon="5.90619">
        <ele>1697.196301072</ele>
        <time>2016-02-15T11:30:49Z</time>
      </trkpt>
      <trkpt lat="45.37229" lon="5.90619">
        <ele>1697.196301072</ele>
        <time>2016-02-15T11:31:03Z</time>
      </trkpt>
      <trkpt lat="45.37229" lon="5.90617">
        <ele>1697.196301072</ele>
        <time>2016-02-15T11:31:08Z</time>
      </trkpt>
      <trkpt lat="45.37227" lon="5.90628">
        <ele>1695.218329531</ele>
        <time>2016-02-15T11:31:18Z</time>
      </trkpt>
      <trkpt lat="45.37227" lon="5.90629">
        <ele>1695.218329531</ele>
        <time>2016-02-15T11:31:23Z</time>
      </trkpt>
      <trkpt lat="45.37227" lon="5.90629">
        <ele>1695.218329531</ele>
        <time>2016-02-15T11:31:34Z</time>
      </trkpt>
      <trkpt lat="45.37227" lon="5.9063">
        <ele>1695.218329531</ele>
        <time>2016-02-15T11:31:38Z</time>
      </trkpt>
      <trkpt lat="45.37227" lon="5.9063">
        <ele>1695.218329531</ele>
        <time>2016-02-15T11:31:48Z</time>
      </trkpt>
      <trkpt lat="45.37227" lon="5.9063">
        <ele>1695.218329531</ele>
        <time>2016-02-15T11:31:53Z</time>
      </trkpt>
      <trkpt lat="45.37227" lon="5.90629">
        <ele>1695.218329531</ele>
        <time>2016-02-15T11:32:03Z</time>
      </trkpt>
      <trkpt lat="45.37227" lon="5.90629">
        <ele>1695.218329531</ele>
        <time>2016-02-15T11:32:08Z</time>
      </trkpt>
      <trkpt lat="45.37227" lon="5.90629">
        <ele>1695.218329531</ele>
        <time>2016-02-15T11:32:17Z</time>
      </trkpt>
      <trkpt lat="45.37227" lon="5.90629">
        <ele>1695.218329531</ele>
        <time>2016-02-15T11:32:23Z</time>
      </trkpt>
      <trkpt lat="45.37227" lon="5.90629">
        <ele>1695.218329531</ele>
        <time>2016-02-15T11:32:33Z</time>
      </trkpt>
      <trkpt lat="45.37227" lon="5.90629">
        <ele>1695.218329531</ele>
        <time>2016-02-15T11:32:38Z</time>
      </trkpt>
      <trkpt lat="45.37227" lon="5.90629">
        <ele>1695.218329531</ele>
        <time>2016-02-15T11:32:48Z</time>
      </trkpt>
      <trkpt lat="45.37227" lon="5.90629">
        <ele>1695.218329531</ele>
        <time>2016-02-15T11:32:53Z</time>
      </trkpt>
      <trkpt lat="45.37227" lon="5.90629">
        <ele>1695.218329531</ele>
        <time>2016-02-15T11:33:03Z</time>
      </trkpt>
      <trkpt lat="45.37227" lon="5.90629">
        <ele>1695.218329531</ele>
        <time>2016-02-15T11:33:08Z</time>
      </trkpt>
      <trkpt lat="45.37227" lon="5.90629">
        <ele>1695.218329531</ele>
        <time>2016-02-15T11:33:18Z</time>
      </trkpt>
      <trkpt lat="45.37227" lon="5.90629">
        <ele>1695.218329531</ele>
        <time>2016-02-15T11:33:23Z</time>
      </trkpt>
      <trkpt lat="45.37227" lon="5.90629">
        <ele>1695.218329531</ele>
        <time>2016-02-15T11:33:33Z</time>
      </trkpt>
      <trkpt lat="45.37227" lon="5.90629">
        <ele>1695.218329531</ele>
        <time>2016-02-15T11:33:38Z</time>
      </trkpt>
      <trkpt lat="45.37227" lon="5.90629">
        <ele>1695.218329531</ele>
        <time>2016-02-15T11:33:43Z</time>
      </trkpt>
      <trkpt lat="45.37227" lon="5.90629">
        <ele>1695.218329531</ele>
        <time>2016-02-15T11:33:53Z</time>
      </trkpt>
      <trkpt lat="45.37227" lon="5.90629">
        <ele>1695.218329531</ele>
        <time>2016-02-15T11:33:59Z</time>
      </trkpt>
      <trkpt lat="45.37227" lon="5.90629">
        <ele>1695.218329531</ele>
        <time>2016-02-15T11:34:08Z</time>
      </trkpt>
      <trkpt lat="45.37227" lon="5.90629">
        <ele>1695.218329531</ele>
        <time>2016-02-15T11:34:13Z</time>
      </trkpt>
      <trkpt lat="45.37227" lon="5.90629">
        <ele>1695.218329531</ele>
        <time>2016-02-15T11:34:23Z</time>
      </trkpt>
      <trkpt lat="45.37225" lon="5.90629">
        <ele>1695.218329531</ele>
        <time>2016-02-15T11:34:28Z</time>
      </trkpt>
      <trkpt lat="45.37219" lon="5.90631">
        <ele>1692.47526608</ele>
        <time>2016-02-15T11:34:38Z</time>
      </trkpt>
      <trkpt lat="45.37214" lon="5.90632">
        <ele>1692.47526608</ele>
        <time>2016-02-15T11:34:43Z</time>
      </trkpt>
      <trkpt lat="45.37209" lon="5.90634">
        <ele>1689.76114311</ele>
        <time>2016-02-15T11:34:53Z</time>
      </trkpt>
      <trkpt lat="45.37206" lon="5.9064">
        <ele>1689.76114311</ele>
        <time>2016-02-15T11:34:58Z</time>
      </trkpt>
      <trkpt lat="45.3721" lon="5.90629">
        <ele>1686.946705551</ele>
        <time>2016-02-15T11:35:08Z</time>
      </trkpt>
      <trkpt lat="45.37212" lon="5.90614">
        <ele>1684.05634159</ele>
        <time>2016-02-15T11:35:13Z</time>
      </trkpt>
      <trkpt lat="45.37206" lon="5.9062">
        <ele>1684.05634159</ele>
        <time>2016-02-15T11:35:23Z</time>
      </trkpt>
      <trkpt lat="45.37205" lon="5.9062">
        <ele>1684.05634159</ele>
        <time>2016-02-15T11:35:28Z</time>
      </trkpt>
      <trkpt lat="45.37196" lon="5.9063">
        <ele>1680.680249061</ele>
        <time>2016-02-15T11:35:33Z</time>
      </trkpt>
      <trkpt lat="45.37194" lon="5.90628">
        <ele>1680.680249061</ele>
        <time>2016-02-15T11:35:43Z</time>
      </trkpt>
      <trkpt lat="45.37196" lon="5.90623">
        <ele>1680.680249061</ele>
        <time>2016-02-15T11:35:48Z</time>
      </trkpt>
      <trkpt lat="45.37196" lon="5.90622">
        <ele>1680.680249061</ele>
        <time>2016-02-15T11:36:12Z</time>
      </trkpt>
      <trkpt lat="45.37196" lon="5.90622">
        <ele>1680.680249061</ele>
        <time>2016-02-15T11:36:12Z</time>
      </trkpt>
      <trkpt lat="45.37191" lon="5.90623">
        <ele>1677.448561959</ele>
        <time>2016-02-15T11:36:27Z</time>
      </trkpt>
      <trkpt lat="45.3719" lon="5.90622">
        <ele>1677.448561959</ele>
        <time>2016-02-15T11:36:32Z</time>
      </trkpt>
      <trkpt lat="45.3719" lon="5.90623">
        <ele>1677.448561959</ele>
        <time>2016-02-15T11:36:48Z</time>
      </trkpt>
      <trkpt lat="45.37188" lon="5.90617">
        <ele>1677.448561959</ele>
        <time>2016-02-15T11:37:19Z</time>
      </trkpt>
      <trkpt lat="45.37179" lon="5.90611">
        <ele>1674.36793735</ele>
        <time>2016-02-15T11:37:32Z</time>
      </trkpt>
      <trkpt lat="45.37178" lon="5.90611">
        <ele>1674.36793735</ele>
        <time>2016-02-15T11:37:32Z</time>
      </trkpt>
      <trkpt lat="45.37176" lon="5.90612">
        <ele>1674.36793735</ele>
        <time>2016-02-15T11:37:47Z</time>
      </trkpt>
      <trkpt lat="45.37175" lon="5.90608">
        <ele>1674.36793735</ele>
        <time>2016-02-15T11:37:54Z</time>
      </trkpt>
      <trkpt lat="45.37167" lon="5.90609">
        <ele>1671.15553343</ele>
        <time>2016-02-15T11:38:03Z</time>
      </trkpt>
      <trkpt lat="45.37164" lon="5.9061">
        <ele>1671.15553343</ele>
        <time>2016-02-15T11:38:08Z</time>
      </trkpt>
      <trkpt lat="45.37152" lon="5.90616">
        <ele>1667.693379443</ele>
        <time>2016-02-15T11:38:18Z</time>
      </trkpt>
      <trkpt lat="45.37151" lon="5.90614">
        <ele>1667.693379443</ele>
        <time>2016-02-15T11:38:23Z</time>
      </trkpt>
      <trkpt lat="45.37154" lon="5.90612">
        <ele>1667.693379443</ele>
        <time>2016-02-15T11:38:33Z</time>
      </trkpt>
      <trkpt lat="45.37154" lon="5.90612">
        <ele>1667.693379443</ele>
        <time>2016-02-15T11:38:38Z</time>
      </trkpt>
      <trkpt lat="45.37154" lon="5.90612">
        <ele>1667.693379443</ele>
        <time>2016-02-15T11:38:48Z</time>
      </trkpt>
      <trkpt lat="45.37154" lon="5.90612">
        <ele>1667.693379443</ele>
        <time>2016-02-15T11:38:53Z</time>
      </trkpt>
      <trkpt lat="45.37154" lon="5.90612">
        <ele>1667.693379443</ele>
        <time>2016-02-15T11:39:03Z</time>
      </trkpt>
      <trkpt lat="45.37154" lon="5.90612">
        <ele>1667.693379443</ele>
        <time>2016-02-15T11:39:08Z</time>
      </trkpt>
      <trkpt lat="45.37154" lon="5.90612">
        <ele>1667.693379443</ele>
        <time>2016-02-15T11:39:18Z</time>
      </trkpt>
      <trkpt lat="45.37154" lon="5.90612">
        <ele>1667.693379443</ele>
        <time>2016-02-15T11:39:23Z</time>
      </trkpt>
      <trkpt lat="45.37154" lon="5.90612">
        <ele>1667.693379443</ele>
        <time>2016-02-15T11:39:33Z</time>
      </trkpt>
      <trkpt lat="45.37154" lon="5.90612">
        <ele>1667.693379443</ele>
        <time>2016-02-15T11:39:38Z</time>
      </trkpt>
      <trkpt lat="45.37154" lon="5.90612">
        <ele>1667.693379443</ele>
        <time>2016-02-15T11:39:48Z</time>
      </trkpt>
      <trkpt lat="45.37154" lon="5.90612">
        <ele>1667.693379443</ele>
        <time>2016-02-15T11:39:53Z</time>
      </trkpt>
      <trkpt lat="45.37154" lon="5.90612">
        <ele>1667.693379443</ele>
        <time>2016-02-15T11:40:03Z</time>
      </trkpt>
      <trkpt lat="45.37154" lon="5.90612">
        <ele>1667.693379443</ele>
        <time>2016-02-15T11:40:08Z</time>
      </trkpt>
      <trkpt lat="45.37154" lon="5.90612">
        <ele>1667.693379443</ele>
        <time>2016-02-15T11:40:18Z</time>
      </trkpt>
      <trkpt lat="45.37154" lon="5.90612">
        <ele>1667.693379443</ele>
        <time>2016-02-15T11:40:23Z</time>
      </trkpt>
      <trkpt lat="45.37154" lon="5.90612">
        <ele>1667.693379443</ele>
        <time>2016-02-15T11:40:38Z</time>
      </trkpt>
      <trkpt lat="45.37154" lon="5.90612">
        <ele>1667.693379443</ele>
        <time>2016-02-15T11:40:53Z</time>
      </trkpt>
      <trkpt lat="45.37154" lon="5.90612">
        <ele>1667.693379443</ele>
        <time>2016-02-15T11:40:57Z</time>
      </trkpt>
      <trkpt lat="45.37152" lon="5.90614">
        <ele>1667.693379443</ele>
        <time>2016-02-15T11:41:08Z</time>
      </trkpt>
      <trkpt lat="45.37151" lon="5.90614">
        <ele>1665.169465831</ele>
        <time>2016-02-15T11:41:12Z</time>
      </trkpt>
      <trkpt lat="45.37151" lon="5.90612">
        <ele>1665.169465831</ele>
        <time>2016-02-15T11:41:22Z</time>
      </trkpt>
      <trkpt lat="45.37151" lon="5.90612">
        <ele>1665.169465831</ele>
        <time>2016-02-15T11:41:28Z</time>
      </trkpt>
      <trkpt lat="45.37151" lon="5.90612">
        <ele>1665.169465831</ele>
        <time>2016-02-15T11:41:38Z</time>
      </trkpt>
      <trkpt lat="45.37151" lon="5.90612">
        <ele>1665.169465831</ele>
        <time>2016-02-15T11:41:43Z</time>
      </trkpt>
      <trkpt lat="45.37151" lon="5.90612">
        <ele>1665.169465831</ele>
        <time>2016-02-15T11:41:54Z</time>
      </trkpt>
      <trkpt lat="45.37152" lon="5.90603">
        <ele>1665.169465831</ele>
        <time>2016-02-15T11:41:58Z</time>
      </trkpt>
      <trkpt lat="45.37153" lon="5.90592">
        <ele>1662.519791047</ele>
        <time>2016-02-15T11:42:08Z</time>
      </trkpt>
      <trkpt lat="45.37153" lon="5.90592">
        <ele>1662.519791047</ele>
        <time>2016-02-15T11:42:13Z</time>
      </trkpt>
      <trkpt lat="45.37153" lon="5.90589">
        <ele>1662.519791047</ele>
        <time>2016-02-15T11:42:28Z</time>
      </trkpt>
      <trkpt lat="45.37153" lon="5.90586">
        <ele>1662.519791047</ele>
        <time>2016-02-15T11:42:38Z</time>
      </trkpt>
      <trkpt lat="45.37151" lon="5.90592">
        <ele>1660.631879538</ele>
        <time>2016-02-15T11:42:43Z</time>
      </trkpt>
      <trkpt lat="45.3715" lon="5.90595">
        <ele>1660.631879538</ele>
        <time>2016-02-15T11:42:48Z</time>
      </trkpt>
      <trkpt lat="45.3715" lon="5.90596">
        <ele>1660.631879538</ele>
        <time>2016-02-15T11:42:58Z</time>
      </trkpt>
      <trkpt lat="45.3715" lon="5.90596">
        <ele>1660.631879538</ele>
        <time>2016-02-15T11:43:03Z</time>
      </trkpt>
      <trkpt lat="45.37149" lon="5.90596">
        <ele>1660.631879538</ele>
        <time>2016-02-15T11:43:13Z</time>
      </trkpt>
      <trkpt lat="45.37149" lon="5.90596">
        <ele>1660.631879538</ele>
        <time>2016-02-15T11:43:18Z</time>
      </trkpt>
      <trkpt lat="45.37149" lon="5.90596">
        <ele>1660.631879538</ele>
        <time>2016-02-15T11:43:28Z</time>
      </trkpt>
      <trkpt lat="45.3715" lon="5.90596">
        <ele>1660.631879538</ele>
        <time>2016-02-15T11:43:33Z</time>
      </trkpt>
      <trkpt lat="45.3715" lon="5.90596">
        <ele>1660.631879538</ele>
        <time>2016-02-15T11:43:43Z</time>
      </trkpt>
      <trkpt lat="45.3715" lon="5.90596">
        <ele>1660.631879538</ele>
        <time>2016-02-15T11:43:48Z</time>
      </trkpt>
      <trkpt lat="45.37149" lon="5.90596">
        <ele>1660.631879538</ele>
        <time>2016-02-15T11:43:58Z</time>
      </trkpt>
      <trkpt lat="45.37149" lon="5.90596">
        <ele>1660.631879538</ele>
        <time>2016-02-15T11:44:03Z</time>
      </trkpt>
      <trkpt lat="45.37149" lon="5.90596">
        <ele>1660.631879538</ele>
        <time>2016-02-15T11:44:13Z</time>
      </trkpt>
      <trkpt lat="45.37149" lon="5.90595">
        <ele>1660.631879538</ele>
        <time>2016-02-15T11:44:18Z</time>
      </trkpt>
      <trkpt lat="45.37149" lon="5.90595">
        <ele>1660.631879538</ele>
        <time>2016-02-15T11:44:29Z</time>
      </trkpt>
      <trkpt lat="45.37149" lon="5.90596">
        <ele>1660.631879538</ele>
        <time>2016-02-15T11:44:33Z</time>
      </trkpt>
      <trkpt lat="45.37149" lon="5.90596">
        <ele>1660.631879538</ele>
        <time>2016-02-15T11:44:43Z</time>
      </trkpt>
      <trkpt lat="45.37149" lon="5.90596">
        <ele>1660.631879538</ele>
        <time>2016-02-15T11:44:48Z</time>
      </trkpt>
      <trkpt lat="45.37149" lon="5.90596">
        <ele>1660.631879538</ele>
        <time>2016-02-15T11:45:03Z</time>
      </trkpt>
      <trkpt lat="45.37149" lon="5.90596">
        <ele>1660.631879538</ele>
        <time>2016-02-15T11:45:08Z</time>
      </trkpt>
      <trkpt lat="45.37149" lon="5.90596">
        <ele>1660.631879538</ele>
        <time>2016-02-15T11:45:18Z</time>
      </trkpt>
      <trkpt lat="45.37149" lon="5.90596">
        <ele>1660.631879538</ele>
        <time>2016-02-15T11:45:23Z</time>
      </trkpt>
      <trkpt lat="45.37149" lon="5.90596">
        <ele>1660.631879538</ele>
        <time>2016-02-15T11:45:33Z</time>
      </trkpt>
      <trkpt lat="45.37149" lon="5.90596">
        <ele>1660.631879538</ele>
        <time>2016-02-15T11:45:38Z</time>
      </trkpt>
      <trkpt lat="45.37149" lon="5.90596">
        <ele>1660.631879538</ele>
        <time>2016-02-15T11:45:47Z</time>
      </trkpt>
      <trkpt lat="45.37149" lon="5.90596">
        <ele>1660.631879538</ele>
        <time>2016-02-15T11:45:52Z</time>
      </trkpt>
      <trkpt lat="45.37148" lon="5.90597">
        <ele>1660.631879538</ele>
        <time>2016-02-15T11:46:02Z</time>
      </trkpt>
      <trkpt lat="45.37148" lon="5.90597">
        <ele>1660.231029915</ele>
        <time>2016-02-15T11:46:08Z</time>
      </trkpt>
      <trkpt lat="45.37148" lon="5.90596">
        <ele>1659.830180292</ele>
        <time>2016-02-15T11:46:48Z</time>
      </trkpt>
      <trkpt lat="45.37148" lon="5.90596">
        <ele>1659.429330669</ele>
        <time>2016-02-15T11:46:53Z</time>
      </trkpt>
      <trkpt lat="45.37134" lon="5.90609">
        <ele>1659.028481046</ele>
        <time>2016-02-15T11:48:38Z</time>
      </trkpt>
      <trkpt lat="45.37122" lon="5.90632">
        <ele>1658.274944484</ele>
        <time>2016-02-15T11:48:43Z</time>
      </trkpt>
      <trkpt lat="45.37133" lon="5.90606">
        <ele>1655.865931246</ele>
        <time>2016-02-15T11:48:58Z</time>
      </trkpt>
      <trkpt lat="45.37141" lon="5.90592">
        <ele>1653.66357857</ele>
        <time>2016-02-15T11:49:02Z</time>
      </trkpt>
      <trkpt lat="45.37139" lon="5.90595">
        <ele>1653.66357857</ele>
        <time>2016-02-15T11:49:08Z</time>
      </trkpt>
      <trkpt lat="45.37138" lon="5.90596">
        <ele>1653.66357857</ele>
        <time>2016-02-15T11:49:12Z</time>
      </trkpt>
      <trkpt lat="45.37138" lon="5.90597">
        <ele>1653.66357857</ele>
        <time>2016-02-15T11:49:17Z</time>
      </trkpt>
      <trkpt lat="45.37137" lon="5.90598">
        <ele>1653.66357857</ele>
        <time>2016-02-15T11:49:29Z</time>
      </trkpt>
      <trkpt lat="45.37129" lon="5.90616">
        <ele>1651.086443077</ele>
        <time>2016-02-15T11:49:33Z</time>
      </trkpt>
      <trkpt lat="45.37129" lon="5.90614">
        <ele>1651.086443077</ele>
        <time>2016-02-15T11:49:43Z</time>
      </trkpt>
      <trkpt lat="45.37129" lon="5.90612">
        <ele>1651.086443077</ele>
        <time>2016-02-15T11:49:48Z</time>
      </trkpt>
      <trkpt lat="45.37129" lon="5.90612">
        <ele>1651.086443077</ele>
        <time>2016-02-15T11:49:58Z</time>
      </trkpt>
      <trkpt lat="45.37129" lon="5.90612">
        <ele>1651.086443077</ele>
        <time>2016-02-15T11:50:03Z</time>
      </trkpt>
      <trkpt lat="45.37129" lon="5.90612">
        <ele>1651.086443077</ele>
        <time>2016-02-15T11:50:13Z</time>
      </trkpt>
      <trkpt lat="45.37129" lon="5.90612">
        <ele>1651.086443077</ele>
        <time>2016-02-15T11:50:18Z</time>
      </trkpt>
      <trkpt lat="45.37129" lon="5.90612">
        <ele>1651.086443077</ele>
        <time>2016-02-15T11:50:28Z</time>
      </trkpt>
      <trkpt lat="45.37129" lon="5.90612">
        <ele>1651.086443077</ele>
        <time>2016-02-15T11:50:33Z</time>
      </trkpt>
      <trkpt lat="45.37129" lon="5.90612">
        <ele>1651.086443077</ele>
        <time>2016-02-15T11:50:43Z</time>
      </trkpt>
      <trkpt lat="45.37129" lon="5.90612">
        <ele>1651.086443077</ele>
        <time>2016-02-15T11:50:48Z</time>
      </trkpt>
      <trkpt lat="45.37129" lon="5.90612">
        <ele>1651.086443077</ele>
        <time>2016-02-15T11:50:58Z</time>
      </trkpt>
      <trkpt lat="45.37129" lon="5.90612">
        <ele>1651.086443077</ele>
        <time>2016-02-15T11:51:03Z</time>
      </trkpt>
      <trkpt lat="45.37129" lon="5.90612">
        <ele>1651.086443077</ele>
        <time>2016-02-15T11:51:08Z</time>
      </trkpt>
      <trkpt lat="45.37129" lon="5.90612">
        <ele>1651.086443077</ele>
        <time>2016-02-15T11:51:18Z</time>
      </trkpt>
      <trkpt lat="45.37129" lon="5.90612">
        <ele>1651.086443077</ele>
        <time>2016-02-15T11:51:23Z</time>
      </trkpt>
      <trkpt lat="45.37129" lon="5.90612">
        <ele>1651.086443077</ele>
        <time>2016-02-15T11:52:03Z</time>
      </trkpt>
      <trkpt lat="45.37129" lon="5.90612">
        <ele>1651.086443077</ele>
        <time>2016-02-15T11:52:08Z</time>
      </trkpt>
      <trkpt lat="45.37129" lon="5.90612">
        <ele>1651.086443077</ele>
        <time>2016-02-15T11:52:17Z</time>
      </trkpt>
      <trkpt lat="45.37129" lon="5.90612">
        <ele>1651.086443077</ele>
        <time>2016-02-15T11:52:23Z</time>
      </trkpt>
      <trkpt lat="45.37129" lon="5.90612">
        <ele>1651.086443077</ele>
        <time>2016-02-15T11:52:33Z</time>
      </trkpt>
      <trkpt lat="45.37129" lon="5.90612">
        <ele>1651.086443077</ele>
        <time>2016-02-15T11:52:37Z</time>
      </trkpt>
      <trkpt lat="45.37129" lon="5.90612">
        <ele>1651.086443077</ele>
        <time>2016-02-15T11:52:47Z</time>
      </trkpt>
      <trkpt lat="45.37129" lon="5.90612">
        <ele>1651.086443077</ele>
        <time>2016-02-15T11:52:53Z</time>
      </trkpt>
      <trkpt lat="45.37129" lon="5.90612">
        <ele>1651.086443077</ele>
        <time>2016-02-15T11:53:23Z</time>
      </trkpt>
      <trkpt lat="45.3713" lon="5.90612">
        <ele>1651.086443077</ele>
        <time>2016-02-15T11:53:38Z</time>
      </trkpt>
      <trkpt lat="45.3713" lon="5.90612">
        <ele>1651.086443077</ele>
        <time>2016-02-15T11:53:43Z</time>
      </trkpt>
      <trkpt lat="45.3713" lon="5.90611">
        <ele>1651.086443077</ele>
        <time>2016-02-15T11:53:53Z</time>
      </trkpt>
      <trkpt lat="45.3713" lon="5.90611">
        <ele>1651.086443077</ele>
        <time>2016-02-15T11:53:58Z</time>
      </trkpt>
      <trkpt lat="45.3713" lon="5.90611">
        <ele>1651.086443077</ele>
        <time>2016-02-15T11:54:08Z</time>
      </trkpt>
      <trkpt lat="45.3713" lon="5.90611">
        <ele>1651.086443077</ele>
        <time>2016-02-15T11:54:13Z</time>
      </trkpt>
      <trkpt lat="45.3713" lon="5.90611">
        <ele>1651.086443077</ele>
        <time>2016-02-15T11:54:23Z</time>
      </trkpt>
      <trkpt lat="45.3713" lon="5.90611">
        <ele>1651.086443077</ele>
        <time>2016-02-15T11:54:28Z</time>
      </trkpt>
      <trkpt lat="45.3713" lon="5.90611">
        <ele>1651.086443077</ele>
        <time>2016-02-15T11:54:38Z</time>
      </trkpt>
      <trkpt lat="45.3713" lon="5.90611">
        <ele>1651.086443077</ele>
        <time>2016-02-15T11:54:52Z</time>
      </trkpt>
      <trkpt lat="45.3713" lon="5.90611">
        <ele>1651.086443077</ele>
        <time>2016-02-15T11:54:54Z</time>
      </trkpt>
      <trkpt lat="45.3713" lon="5.90611">
        <ele>1651.086443077</ele>
        <time>2016-02-15T11:55:11Z</time>
      </trkpt>
      <trkpt lat="45.3713" lon="5.90611">
        <ele>1651.086443077</ele>
        <time>2016-02-15T11:55:13Z</time>
      </trkpt>
      <trkpt lat="45.3713" lon="5.90611">
        <ele>1651.086443077</ele>
        <time>2016-02-15T11:55:33Z</time>
      </trkpt>
      <trkpt lat="45.3713" lon="5.90611">
        <ele>1651.086443077</ele>
        <time>2016-02-15T11:55:48Z</time>
      </trkpt>
      <trkpt lat="45.3713" lon="5.90611">
        <ele>1651.086443077</ele>
        <time>2016-02-15T11:56:00Z</time>
      </trkpt>
      <trkpt lat="45.3713" lon="5.90611">
        <ele>1651.086443077</ele>
        <time>2016-02-15T11:56:02Z</time>
      </trkpt>
      <trkpt lat="45.3713" lon="5.9061">
        <ele>1651.086443077</ele>
        <time>2016-02-15T11:56:21Z</time>
      </trkpt>
      <trkpt lat="45.3713" lon="5.9061">
        <ele>1651.086443077</ele>
        <time>2016-02-15T11:56:22Z</time>
      </trkpt>
      <trkpt lat="45.3713" lon="5.9061">
        <ele>1651.086443077</ele>
        <time>2016-02-15T11:57:03Z</time>
      </trkpt>
      <trkpt lat="45.3713" lon="5.9061">
        <ele>1651.086443077</ele>
        <time>2016-02-15T11:57:03Z</time>
      </trkpt>
      <trkpt lat="45.3713" lon="5.90609">
        <ele>1651.086443077</ele>
        <time>2016-02-15T11:57:40Z</time>
      </trkpt>
      <trkpt lat="45.3713" lon="5.90609">
        <ele>1651.086443077</ele>
        <time>2016-02-15T11:57:42Z</time>
      </trkpt>
      <trkpt lat="45.3713" lon="5.90609">
        <ele>1651.230141975</ele>
        <time>2016-02-15T11:58:38Z</time>
      </trkpt>
      <trkpt lat="45.3713" lon="5.90609">
        <ele>1651.373840873</ele>
        <time>2016-02-15T11:58:38Z</time>
      </trkpt>
      <trkpt lat="45.37131" lon="5.906">
        <ele>1651.517539771</ele>
        <time>2016-02-15T11:59:01Z</time>
      </trkpt>
      <trkpt lat="45.3713" lon="5.90594">
        <ele>1651.661238669</ele>
        <time>2016-02-15T11:59:03Z</time>
      </trkpt>
      <trkpt lat="45.37125" lon="5.90583">
        <ele>1651.804937567</ele>
        <time>2016-02-15T11:59:13Z</time>
      </trkpt>
      <trkpt lat="45.37125" lon="5.90582">
        <ele>1651.948636465</ele>
        <time>2016-02-15T11:59:18Z</time>
      </trkpt>
      <trkpt lat="45.37126" lon="5.9058">
        <ele>1652.092335363</ele>
        <time>2016-02-15T11:59:22Z</time>
      </trkpt>
      <trkpt lat="45.37126" lon="5.90579">
        <ele>1652.236034261</ele>
        <time>2016-02-15T11:59:32Z</time>
      </trkpt>
      <trkpt lat="45.37126" lon="5.90579">
        <ele>1652.379733159</ele>
        <time>2016-02-15T11:59:38Z</time>
      </trkpt>
      <trkpt lat="45.37127" lon="5.90578">
        <ele>1652.523432058</ele>
        <time>2016-02-15T11:59:48Z</time>
      </trkpt>
      <trkpt lat="45.37127" lon="5.90578">
        <ele>1652.667130956</ele>
        <time>2016-02-15T11:59:53Z</time>
      </trkpt>
      <trkpt lat="45.37127" lon="5.90577">
        <ele>1652.810829854</ele>
        <time>2016-02-15T12:00:08Z</time>
      </trkpt>
      <trkpt lat="45.37127" lon="5.90577">
        <ele>1652.954528752</ele>
        <time>2016-02-15T12:00:13Z</time>
      </trkpt>
      <trkpt lat="45.37127" lon="5.90577">
        <ele>1653.09822765</ele>
        <time>2016-02-15T12:00:23Z</time>
      </trkpt>
      <trkpt lat="45.37127" lon="5.90577">
        <ele>1653.241926548</ele>
        <time>2016-02-15T12:00:28Z</time>
      </trkpt>
      <trkpt lat="45.37127" lon="5.90577">
        <ele>1653.385625446</ele>
        <time>2016-02-15T12:00:39Z</time>
      </trkpt>
      <trkpt lat="45.37127" lon="5.90577">
        <ele>1653.529324344</ele>
        <time>2016-02-15T12:00:43Z</time>
      </trkpt>
      <trkpt lat="45.37127" lon="5.90576">
        <ele>1653.673023242</ele>
        <time>2016-02-15T12:00:53Z</time>
      </trkpt>
      <trkpt lat="45.37127" lon="5.90576">
        <ele>1653.81672214</ele>
        <time>2016-02-15T12:00:58Z</time>
      </trkpt>
      <trkpt lat="45.37127" lon="5.90576">
        <ele>1653.960421038</ele>
        <time>2016-02-15T12:01:08Z</time>
      </trkpt>
      <trkpt lat="45.37127" lon="5.90576">
        <ele>1654.104119937</ele>
        <time>2016-02-15T12:01:14Z</time>
      </trkpt>
      <trkpt lat="45.37127" lon="5.90576">
        <ele>1654.247818835</ele>
        <time>2016-02-15T12:01:23Z</time>
      </trkpt>
      <trkpt lat="45.37127" lon="5.90576">
        <ele>1654.391517733</ele>
        <time>2016-02-15T12:01:28Z</time>
      </trkpt>
      <trkpt lat="45.37127" lon="5.90576">
        <ele>1654.535216631</ele>
        <time>2016-02-15T12:01:38Z</time>
      </trkpt>
      <trkpt lat="45.37127" lon="5.90575">
        <ele>1654.678915529</ele>
        <time>2016-02-15T12:01:43Z</time>
      </trkpt>
      <trkpt lat="45.37127" lon="5.90575">
        <ele>1654.822614427</ele>
        <time>2016-02-15T12:01:58Z</time>
      </trkpt>
      <trkpt lat="45.37127" lon="5.90575">
        <ele>1654.966313325</ele>
        <time>2016-02-15T12:02:03Z</time>
      </trkpt>
      <trkpt lat="45.37127" lon="5.90575">
        <ele>1655.110012223</ele>
        <time>2016-02-15T12:02:13Z</time>
      </trkpt>
      <trkpt lat="45.37127" lon="5.90575">
        <ele>1655.253711121</ele>
        <time>2016-02-15T12:02:17Z</time>
      </trkpt>
      <trkpt lat="45.37128" lon="5.90574">
        <ele>1655.397410019</ele>
        <time>2016-02-15T12:02:28Z</time>
      </trkpt>
      <trkpt lat="45.37128" lon="5.90574">
        <ele>1655.541108918</ele>
        <time>2016-02-15T12:02:33Z</time>
      </trkpt>
      <trkpt lat="45.37128" lon="5.90574">
        <ele>1655.684807816</ele>
        <time>2016-02-15T12:02:42Z</time>
      </trkpt>
      <trkpt lat="45.37128" lon="5.90574">
        <ele>1655.828506714</ele>
        <time>2016-02-15T12:02:48Z</time>
      </trkpt>
      <trkpt lat="45.37128" lon="5.90574">
        <ele>1655.972205612</ele>
        <time>2016-02-15T12:02:58Z</time>
      </trkpt>
      <trkpt lat="45.37128" lon="5.90573">
        <ele>1656.11590451</ele>
        <time>2016-02-15T12:03:02Z</time>
      </trkpt>
      <trkpt lat="45.37128" lon="5.90573">
        <ele>1656.259603408</ele>
        <time>2016-02-15T12:03:14Z</time>
      </trkpt>
      <trkpt lat="45.37128" lon="5.90573">
        <ele>1656.403302306</ele>
        <time>2016-02-15T12:03:28Z</time>
      </trkpt>
      <trkpt lat="45.37128" lon="5.90572">
        <ele>1656.547001204</ele>
        <time>2016-02-15T12:03:33Z</time>
      </trkpt>
      <trkpt lat="45.37128" lon="5.90572">
        <ele>1656.690700102</ele>
        <time>2016-02-15T12:03:43Z</time>
      </trkpt>
      <trkpt lat="45.37128" lon="5.90572">
        <ele>1656.834399</ele>
        <time>2016-02-15T12:03:48Z</time>
      </trkpt>
      <trkpt lat="45.37128" lon="5.90572">
        <ele>1656.978097898</ele>
        <time>2016-02-15T12:03:58Z</time>
      </trkpt>
      <trkpt lat="45.37128" lon="5.90572">
        <ele>1657.121796797</ele>
        <time>2016-02-15T12:04:03Z</time>
      </trkpt>
      <trkpt lat="45.37128" lon="5.90572">
        <ele>1657.265495695</ele>
        <time>2016-02-15T12:04:21Z</time>
      </trkpt>
      <trkpt lat="45.37128" lon="5.90574">
        <ele>1657.409194593</ele>
        <time>2016-02-15T12:05:19Z</time>
      </trkpt>
      <trkpt lat="45.37128" lon="5.90575">
        <ele>1657.552893491</ele>
        <time>2016-02-15T12:05:37Z</time>
      </trkpt>
      <trkpt lat="45.37128" lon="5.90578">
        <ele>1657.696592389</ele>
        <time>2016-02-15T12:06:41Z</time>
      </trkpt>
      <trkpt lat="45.37128" lon="5.90578">
        <ele>1657.840291287</ele>
        <time>2016-02-15T12:06:41Z</time>
      </trkpt>
      <trkpt lat="45.37128" lon="5.9058">
        <ele>1657.983990185</ele>
        <time>2016-02-15T12:06:57Z</time>
      </trkpt>
      <trkpt lat="45.37128" lon="5.9058">
        <ele>1658.127689083</ele>
        <time>2016-02-15T12:06:58Z</time>
      </trkpt>
      <trkpt lat="45.37127" lon="5.90581">
        <ele>1658.271387981</ele>
        <time>2016-02-15T12:07:08Z</time>
      </trkpt>
      <trkpt lat="45.37127" lon="5.90581">
        <ele>1658.415086879</ele>
        <time>2016-02-15T12:07:09Z</time>
      </trkpt>
      <trkpt lat="45.37127" lon="5.90578">
        <ele>1658.558785778</ele>
        <time>2016-02-15T12:07:22Z</time>
      </trkpt>
      <trkpt lat="45.37127" lon="5.90578">
        <ele>1658.702484676</ele>
        <time>2016-02-15T12:07:39Z</time>
      </trkpt>
      <trkpt lat="45.37127" lon="5.90578">
        <ele>1658.846183574</ele>
        <time>2016-02-15T12:07:40Z</time>
      </trkpt>
      <trkpt lat="45.37127" lon="5.90578">
        <ele>1658.989882472</ele>
        <time>2016-02-15T12:07:44Z</time>
      </trkpt>
      <trkpt lat="45.37127" lon="5.90579">
        <ele>1659.13358137</ele>
        <time>2016-02-15T12:08:29Z</time>
      </trkpt>
      <trkpt lat="45.37127" lon="5.90579">
        <ele>1659.277280268</ele>
        <time>2016-02-15T12:08:30Z</time>
      </trkpt>
      <trkpt lat="45.37127" lon="5.90579">
        <ele>1659.420979166</ele>
        <time>2016-02-15T12:08:42Z</time>
      </trkpt>
      <trkpt lat="45.37127" lon="5.90579">
        <ele>1659.564678064</ele>
        <time>2016-02-15T12:09:05Z</time>
      </trkpt>
      <trkpt lat="45.37127" lon="5.9058">
        <ele>1659.708376962</ele>
        <time>2016-02-15T12:09:15Z</time>
      </trkpt>
      <trkpt lat="45.37127" lon="5.9058">
        <ele>1659.85207586</ele>
        <time>2016-02-15T12:09:18Z</time>
      </trkpt>
      <trkpt lat="45.37127" lon="5.9058">
        <ele>1659.995774758</ele>
        <time>2016-02-15T12:09:30Z</time>
      </trkpt>
      <trkpt lat="45.37127" lon="5.9058">
        <ele>1660.139473657</ele>
        <time>2016-02-15T12:09:32Z</time>
      </trkpt>
      <trkpt lat="45.37127" lon="5.9058">
        <ele>1660.283172555</ele>
        <time>2016-02-15T12:09:46Z</time>
      </trkpt>
      <trkpt lat="45.37126" lon="5.9058">
        <ele>1660.426871453</ele>
        <time>2016-02-15T12:09:48Z</time>
      </trkpt>
      <trkpt lat="45.37126" lon="5.90582">
        <ele>1660.570570351</ele>
        <time>2016-02-15T12:10:09Z</time>
      </trkpt>
      <trkpt lat="45.37126" lon="5.90582">
        <ele>1660.714269249</ele>
        <time>2016-02-15T12:10:09Z</time>
      </trkpt>
      <trkpt lat="45.37125" lon="5.90584">
        <ele>1660.857968147</ele>
        <time>2016-02-15T12:10:53Z</time>
      </trkpt>
      <trkpt lat="45.37126" lon="5.90539">
        <ele>1661.001667045</ele>
        <time>2016-02-15T12:17:33Z</time>
      </trkpt>
      <trkpt lat="45.37126" lon="5.90538">
        <ele>1661.145365943</ele>
        <time>2016-02-15T12:17:43Z</time>
      </trkpt>
      <trkpt lat="45.37126" lon="5.90538">
        <ele>1661.289064841</ele>
        <time>2016-02-15T12:17:48Z</time>
      </trkpt>
      <trkpt lat="45.3711" lon="5.90541">
        <ele>1661.432763739</ele>
        <time>2016-02-15T12:20:19Z</time>
      </trkpt>
      <trkpt lat="45.37108" lon="5.90554">
        <ele>1661.576462637</ele>
        <time>2016-02-15T12:20:23Z</time>
      </trkpt>
      <trkpt lat="45.37105" lon="5.90561">
        <ele>1661.720161536</ele>
        <time>2016-02-15T12:20:33Z</time>
      </trkpt>
      <trkpt lat="45.37105" lon="5.90561">
        <ele>1661.863860434</ele>
        <time>2016-02-15T12:20:38Z</time>
      </trkpt>
      <trkpt lat="45.37107" lon="5.90558">
        <ele>1662.007559332</ele>
        <time>2016-02-15T12:20:53Z</time>
      </trkpt>
      <trkpt lat="45.37107" lon="5.90557">
        <ele>1662.007559332</ele>
        <time>2016-02-15T12:20:58Z</time>
      </trkpt>
      <trkpt lat="45.37124" lon="5.90554">
        <ele>1673.158502306</ele>
        <time>2016-02-15T12:21:02Z</time>
      </trkpt>
      <trkpt lat="45.37124" lon="5.90553">
        <ele>1673.158502306</ele>
        <time>2016-02-15T12:21:07Z</time>
      </trkpt>
      <trkpt lat="45.37122" lon="5.9055">
        <ele>1673.158502306</ele>
        <time>2016-02-15T12:21:12Z</time>
      </trkpt>
      <trkpt lat="45.37118" lon="5.90555">
        <ele>1673.158502306</ele>
        <time>2016-02-15T12:21:22Z</time>
      </trkpt>
      <trkpt lat="45.37115" lon="5.9055">
        <ele>1674.567388447</ele>
        <time>2016-02-15T12:21:27Z</time>
      </trkpt>
      <trkpt lat="45.37117" lon="5.90549">
        <ele>1675.976274588</ele>
        <time>2016-02-15T12:21:32Z</time>
      </trkpt>
      <trkpt lat="45.37116" lon="5.90548">
        <ele>1677.385160729</ele>
        <time>2016-02-15T12:21:42Z</time>
      </trkpt>
      <trkpt lat="45.37115" lon="5.90541">
        <ele>1678.79404687</ele>
        <time>2016-02-15T12:21:48Z</time>
      </trkpt>
      <trkpt lat="45.37122" lon="5.90538">
        <ele>1680.202933011</ele>
        <time>2016-02-15T12:21:59Z</time>
      </trkpt>
      <trkpt lat="45.37123" lon="5.90535">
        <ele>1681.611819152</ele>
        <time>2016-02-15T12:22:03Z</time>
      </trkpt>
      <trkpt lat="45.37123" lon="5.90536">
        <ele>1681.611819152</ele>
        <time>2016-02-15T12:22:13Z</time>
      </trkpt>
      <trkpt lat="45.37123" lon="5.90536">
        <ele>1681.611819152</ele>
        <time>2016-02-15T12:22:18Z</time>
      </trkpt>
      <trkpt lat="45.37123" lon="5.90535">
        <ele>1681.611819152</ele>
        <time>2016-02-15T12:22:34Z</time>
      </trkpt>
      <trkpt lat="45.37123" lon="5.90535">
        <ele>1681.611819152</ele>
        <time>2016-02-15T12:22:38Z</time>
      </trkpt>
      <trkpt lat="45.37123" lon="5.90535">
        <ele>1681.611819152</ele>
        <time>2016-02-15T12:22:47Z</time>
      </trkpt>
      <trkpt lat="45.37124" lon="5.90535">
        <ele>1681.611819152</ele>
        <time>2016-02-15T12:22:53Z</time>
      </trkpt>
      <trkpt lat="45.37124" lon="5.90535">
        <ele>1681.611819152</ele>
        <time>2016-02-15T12:23:03Z</time>
      </trkpt>
      <trkpt lat="45.37124" lon="5.90535">
        <ele>1681.611819152</ele>
        <time>2016-02-15T12:23:08Z</time>
      </trkpt>
      <trkpt lat="45.37124" lon="5.90535">
        <ele>1681.611819152</ele>
        <time>2016-02-15T12:23:18Z</time>
      </trkpt>
      <trkpt lat="45.37124" lon="5.90534">
        <ele>1681.611819152</ele>
        <time>2016-02-15T12:23:23Z</time>
      </trkpt>
      <trkpt lat="45.37124" lon="5.90534">
        <ele>1681.611819152</ele>
        <time>2016-02-15T12:23:33Z</time>
      </trkpt>
      <trkpt lat="45.37124" lon="5.90534">
        <ele>1681.611819152</ele>
        <time>2016-02-15T12:23:38Z</time>
      </trkpt>
      <trkpt lat="45.37123" lon="5.90534">
        <ele>1681.611819152</ele>
        <time>2016-02-15T12:23:48Z</time>
      </trkpt>
      <trkpt lat="45.37128" lon="5.90525">
        <ele>1688.409341428</ele>
        <time>2016-02-15T12:23:53Z</time>
      </trkpt>
      <trkpt lat="45.3713" lon="5.90526">
        <ele>1688.409341428</ele>
        <time>2016-02-15T12:24:03Z</time>
      </trkpt>
      <trkpt lat="45.37129" lon="5.90527">
        <ele>1688.409341428</ele>
        <time>2016-02-15T12:24:08Z</time>
      </trkpt>
      <trkpt lat="45.3713" lon="5.90527">
        <ele>1688.409341428</ele>
        <time>2016-02-15T12:24:19Z</time>
      </trkpt>
      <trkpt lat="45.3713" lon="5.90527">
        <ele>1688.409341428</ele>
        <time>2016-02-15T12:24:23Z</time>
      </trkpt>
      <trkpt lat="45.3713" lon="5.90527">
        <ele>1688.409341428</ele>
        <time>2016-02-15T12:24:33Z</time>
      </trkpt>
      <trkpt lat="45.3713" lon="5.90527">
        <ele>1688.409341428</ele>
        <time>2016-02-15T12:24:38Z</time>
      </trkpt>
      <trkpt lat="45.3713" lon="5.90526">
        <ele>1688.409341428</ele>
        <time>2016-02-15T12:24:43Z</time>
      </trkpt>
      <trkpt lat="45.37131" lon="5.90526">
        <ele>1688.409341428</ele>
        <time>2016-02-15T12:24:52Z</time>
      </trkpt>
      <trkpt lat="45.37131" lon="5.90526">
        <ele>1688.409341428</ele>
        <time>2016-02-15T12:24:58Z</time>
      </trkpt>
      <trkpt lat="45.37131" lon="5.90525">
        <ele>1688.409341428</ele>
        <time>2016-02-15T12:25:08Z</time>
      </trkpt>
      <trkpt lat="45.37131" lon="5.90525">
        <ele>1688.409341428</ele>
        <time>2016-02-15T12:25:12Z</time>
      </trkpt>
      <trkpt lat="45.37131" lon="5.90525">
        <ele>1688.409341428</ele>
        <time>2016-02-15T12:25:23Z</time>
      </trkpt>
      <trkpt lat="45.37131" lon="5.90525">
        <ele>1688.409341428</ele>
        <time>2016-02-15T12:25:28Z</time>
      </trkpt>
      <trkpt lat="45.37131" lon="5.90525">
        <ele>1688.409341428</ele>
        <time>2016-02-15T12:25:38Z</time>
      </trkpt>
      <trkpt lat="45.37131" lon="5.90525">
        <ele>1688.409341428</ele>
        <time>2016-02-15T12:25:43Z</time>
      </trkpt>
      <trkpt lat="45.37131" lon="5.90525">
        <ele>1688.409341428</ele>
        <time>2016-02-15T12:25:53Z</time>
      </trkpt>
      <trkpt lat="45.37131" lon="5.90525">
        <ele>1688.409341428</ele>
        <time>2016-02-15T12:25:58Z</time>
      </trkpt>
      <trkpt lat="45.37131" lon="5.90525">
        <ele>1688.409341428</ele>
        <time>2016-02-15T12:26:08Z</time>
      </trkpt>
      <trkpt lat="45.37131" lon="5.90525">
        <ele>1688.409341428</ele>
        <time>2016-02-15T12:26:13Z</time>
      </trkpt>
      <trkpt lat="45.37131" lon="5.90524">
        <ele>1688.409341428</ele>
        <time>2016-02-15T12:26:23Z</time>
      </trkpt>
      <trkpt lat="45.37131" lon="5.90524">
        <ele>1688.409341428</ele>
        <time>2016-02-15T12:26:28Z</time>
      </trkpt>
      <trkpt lat="45.37131" lon="5.90524">
        <ele>1688.409341428</ele>
        <time>2016-02-15T12:26:38Z</time>
      </trkpt>
      <trkpt lat="45.37131" lon="5.90524">
        <ele>1688.409341428</ele>
        <time>2016-02-15T12:26:43Z</time>
      </trkpt>
      <trkpt lat="45.37131" lon="5.90524">
        <ele>1688.409341428</ele>
        <time>2016-02-15T12:26:53Z</time>
      </trkpt>
      <trkpt lat="45.37131" lon="5.90524">
        <ele>1688.409341428</ele>
        <time>2016-02-15T12:26:58Z</time>
      </trkpt>
      <trkpt lat="45.37131" lon="5.90524">
        <ele>1688.409341428</ele>
        <time>2016-02-15T12:27:08Z</time>
      </trkpt>
      <trkpt lat="45.37131" lon="5.90524">
        <ele>1688.409341428</ele>
        <time>2016-02-15T12:27:12Z</time>
      </trkpt>
      <trkpt lat="45.37131" lon="5.90524">
        <ele>1688.409341428</ele>
        <time>2016-02-15T12:27:28Z</time>
      </trkpt>
      <trkpt lat="45.37131" lon="5.90523">
        <ele>1688.409341428</ele>
        <time>2016-02-15T12:27:33Z</time>
      </trkpt>
      <trkpt lat="45.37131" lon="5.90522">
        <ele>1688.409341428</ele>
        <time>2016-02-15T12:27:43Z</time>
      </trkpt>
      <trkpt lat="45.37131" lon="5.90522">
        <ele>1688.409341428</ele>
        <time>2016-02-15T12:27:48Z</time>
      </trkpt>
      <trkpt lat="45.37131" lon="5.90521">
        <ele>1688.409341428</ele>
        <time>2016-02-15T12:27:58Z</time>
      </trkpt>
      <trkpt lat="45.37131" lon="5.90521">
        <ele>1688.409341428</ele>
        <time>2016-02-15T12:28:03Z</time>
      </trkpt>
      <trkpt lat="45.37131" lon="5.9052">
        <ele>1688.409341428</ele>
        <time>2016-02-15T12:28:13Z</time>
      </trkpt>
      <trkpt lat="45.37131" lon="5.9052">
        <ele>1688.409341428</ele>
        <time>2016-02-15T12:28:18Z</time>
      </trkpt>
      <trkpt lat="45.37131" lon="5.90519">
        <ele>1688.409341428</ele>
        <time>2016-02-15T12:28:28Z</time>
      </trkpt>
      <trkpt lat="45.37131" lon="5.90518">
        <ele>1694.232650478</ele>
        <time>2016-02-15T12:28:33Z</time>
      </trkpt>
      <trkpt lat="45.37131" lon="5.90518">
        <ele>1694.232650478</ele>
        <time>2016-02-15T12:28:50Z</time>
      </trkpt>
      <trkpt lat="45.37132" lon="5.90517">
        <ele>1694.232650478</ele>
        <time>2016-02-15T12:29:04Z</time>
      </trkpt>
      <trkpt lat="45.37132" lon="5.90517">
        <ele>1694.232650478</ele>
        <time>2016-02-15T12:29:04Z</time>
      </trkpt>
      <trkpt lat="45.37132" lon="5.90515">
        <ele>1694.232650478</ele>
        <time>2016-02-15T12:29:51Z</time>
      </trkpt>
      <trkpt lat="45.37132" lon="5.90515">
        <ele>1694.232650478</ele>
        <time>2016-02-15T12:29:52Z</time>
      </trkpt>
      <trkpt lat="45.37132" lon="5.90514">
        <ele>1694.232650478</ele>
        <time>2016-02-15T12:30:17Z</time>
      </trkpt>
      <trkpt lat="45.37132" lon="5.90514">
        <ele>1694.232650478</ele>
        <time>2016-02-15T12:30:18Z</time>
      </trkpt>
      <trkpt lat="45.37132" lon="5.90513">
        <ele>1694.232650478</ele>
        <time>2016-02-15T12:30:46Z</time>
      </trkpt>
      <trkpt lat="45.37132" lon="5.90513">
        <ele>1694.232650478</ele>
        <time>2016-02-15T12:30:47Z</time>
      </trkpt>
      <trkpt lat="45.37132" lon="5.90512">
        <ele>1694.232650478</ele>
        <time>2016-02-15T12:31:05Z</time>
      </trkpt>
      <trkpt lat="45.37132" lon="5.90512">
        <ele>1694.232650478</ele>
        <time>2016-02-15T12:31:05Z</time>
      </trkpt>
      <trkpt lat="45.37132" lon="5.90511">
        <ele>1694.232650478</ele>
        <time>2016-02-15T12:31:19Z</time>
      </trkpt>
      <trkpt lat="45.37132" lon="5.90511">
        <ele>1694.232650478</ele>
        <time>2016-02-15T12:31:19Z</time>
      </trkpt>
      <trkpt lat="45.37132" lon="5.90511">
        <ele>1694.232650478</ele>
        <time>2016-02-15T12:31:34Z</time>
      </trkpt>
      <trkpt lat="45.37132" lon="5.90511">
        <ele>1694.232650478</ele>
        <time>2016-02-15T12:31:35Z</time>
      </trkpt>
      <trkpt lat="45.37132" lon="5.90511">
        <ele>1694.232650478</ele>
        <time>2016-02-15T12:31:39Z</time>
      </trkpt>
      <trkpt lat="45.37132" lon="5.9051">
        <ele>1694.232650478</ele>
        <time>2016-02-15T12:31:52Z</time>
      </trkpt>
      <trkpt lat="45.37132" lon="5.9051">
        <ele>1694.232650478</ele>
        <time>2016-02-15T12:31:53Z</time>
      </trkpt>
      <trkpt lat="45.37132" lon="5.90509">
        <ele>1694.232650478</ele>
        <time>2016-02-15T12:32:11Z</time>
      </trkpt>
      <trkpt lat="45.37133" lon="5.90508">
        <ele>1694.232650478</ele>
        <time>2016-02-15T12:32:43Z</time>
      </trkpt>
      <trkpt lat="45.37133" lon="5.90508">
        <ele>1694.232650478</ele>
        <time>2016-02-15T12:32:44Z</time>
      </trkpt>
      <trkpt lat="45.37133" lon="5.90508">
        <ele>1694.232650478</ele>
        <time>2016-02-15T12:32:59Z</time>
      </trkpt>
      <trkpt lat="45.37133" lon="5.90507">
        <ele>1694.232650478</ele>
        <time>2016-02-15T12:33:27Z</time>
      </trkpt>
      <trkpt lat="45.37133" lon="5.90507">
        <ele>1694.232650478</ele>
        <time>2016-02-15T12:33:27Z</time>
      </trkpt>
      <trkpt lat="45.37133" lon="5.90506">
        <ele>1694.232650478</ele>
        <time>2016-02-15T12:33:49Z</time>
      </trkpt>
      <trkpt lat="45.37133" lon="5.90506">
        <ele>1694.232650478</ele>
        <time>2016-02-15T12:33:50Z</time>
      </trkpt>
      <trkpt lat="45.37136" lon="5.90498">
        <ele>1699.427694957</ele>
        <time>2016-02-15T12:34:21Z</time>
      </trkpt>
      <trkpt lat="45.37136" lon="5.90496">
        <ele>1699.427694957</ele>
        <time>2016-02-15T12:34:22Z</time>
      </trkpt>
      <trkpt lat="45.37138" lon="5.90492">
        <ele>1699.427694957</ele>
        <time>2016-02-15T12:34:27Z</time>
      </trkpt>
      <trkpt lat="45.37138" lon="5.90491">
        <ele>1699.427694957</ele>
        <time>2016-02-15T12:34:32Z</time>
      </trkpt>
      <trkpt lat="45.37139" lon="5.90491">
        <ele>1699.427694957</ele>
        <time>2016-02-15T12:34:37Z</time>
      </trkpt>
      <trkpt lat="45.37138" lon="5.90491">
        <ele>1699.427694957</ele>
        <time>2016-02-15T12:34:42Z</time>
      </trkpt>
      <trkpt lat="45.37139" lon="5.90491">
        <ele>1699.427694957</ele>
        <time>2016-02-15T12:34:52Z</time>
      </trkpt>
      <trkpt lat="45.37139" lon="5.90491">
        <ele>1699.427694957</ele>
        <time>2016-02-15T12:34:57Z</time>
      </trkpt>
      <trkpt lat="45.37139" lon="5.90491">
        <ele>1699.427694957</ele>
        <time>2016-02-15T12:35:12Z</time>
      </trkpt>
      <trkpt lat="45.37139" lon="5.90491">
        <ele>1699.427694957</ele>
        <time>2016-02-15T12:35:17Z</time>
      </trkpt>
      <trkpt lat="45.37139" lon="5.90491">
        <ele>1699.427694957</ele>
        <time>2016-02-15T12:35:27Z</time>
      </trkpt>
      <trkpt lat="45.37139" lon="5.90491">
        <ele>1699.427694957</ele>
        <time>2016-02-15T12:35:32Z</time>
      </trkpt>
      <trkpt lat="45.37139" lon="5.90491">
        <ele>1699.427694957</ele>
        <time>2016-02-15T12:35:42Z</time>
      </trkpt>
      <trkpt lat="45.37139" lon="5.90491">
        <ele>1699.427694957</ele>
        <time>2016-02-15T12:35:47Z</time>
      </trkpt>
      <trkpt lat="45.37139" lon="5.9049">
        <ele>1699.427694957</ele>
        <time>2016-02-15T12:35:57Z</time>
      </trkpt>
      <trkpt lat="45.37139" lon="5.9049">
        <ele>1699.427694957</ele>
        <time>2016-02-15T12:36:02Z</time>
      </trkpt>
      <trkpt lat="45.37139" lon="5.9049">
        <ele>1699.427694957</ele>
        <time>2016-02-15T12:36:12Z</time>
      </trkpt>
      <trkpt lat="45.37139" lon="5.9049">
        <ele>1699.427694957</ele>
        <time>2016-02-15T12:36:17Z</time>
      </trkpt>
      <trkpt lat="45.37139" lon="5.9049">
        <ele>1699.427694957</ele>
        <time>2016-02-15T12:36:27Z</time>
      </trkpt>
      <trkpt lat="45.37139" lon="5.9049">
        <ele>1699.427694957</ele>
        <time>2016-02-15T12:36:32Z</time>
      </trkpt>
      <trkpt lat="45.37139" lon="5.9049">
        <ele>1699.427694957</ele>
        <time>2016-02-15T12:36:42Z</time>
      </trkpt>
      <trkpt lat="45.37139" lon="5.9049">
        <ele>1699.427694957</ele>
        <time>2016-02-15T12:36:47Z</time>
      </trkpt>
      <trkpt lat="45.37139" lon="5.9049">
        <ele>1699.427694957</ele>
        <time>2016-02-15T12:37:02Z</time>
      </trkpt>
      <trkpt lat="45.37139" lon="5.9049">
        <ele>1699.427694957</ele>
        <time>2016-02-15T12:37:07Z</time>
      </trkpt>
      <trkpt lat="45.37139" lon="5.90489">
        <ele>1699.427694957</ele>
        <time>2016-02-15T12:37:17Z</time>
      </trkpt>
      <trkpt lat="45.37139" lon="5.90489">
        <ele>1699.427694957</ele>
        <time>2016-02-15T12:37:22Z</time>
      </trkpt>
      <trkpt lat="45.37139" lon="5.90489">
        <ele>1699.427694957</ele>
        <time>2016-02-15T12:37:32Z</time>
      </trkpt>
      <trkpt lat="45.37139" lon="5.90489">
        <ele>1699.427694957</ele>
        <time>2016-02-15T12:37:37Z</time>
      </trkpt>
      <trkpt lat="45.37139" lon="5.90489">
        <ele>1699.427694957</ele>
        <time>2016-02-15T12:37:47Z</time>
      </trkpt>
      <trkpt lat="45.37139" lon="5.90489">
        <ele>1699.427694957</ele>
        <time>2016-02-15T12:37:52Z</time>
      </trkpt>
      <trkpt lat="45.37139" lon="5.90489">
        <ele>1699.427694957</ele>
        <time>2016-02-15T12:38:02Z</time>
      </trkpt>
      <trkpt lat="45.37139" lon="5.90488">
        <ele>1699.427694957</ele>
        <time>2016-02-15T12:38:07Z</time>
      </trkpt>
      <trkpt lat="45.37139" lon="5.90488">
        <ele>1699.427694957</ele>
        <time>2016-02-15T12:38:17Z</time>
      </trkpt>
      <trkpt lat="45.37139" lon="5.90488">
        <ele>1699.427694957</ele>
        <time>2016-02-15T12:38:22Z</time>
      </trkpt>
      <trkpt lat="45.37139" lon="5.90488">
        <ele>1699.427694957</ele>
        <time>2016-02-15T12:38:32Z</time>
      </trkpt>
      <trkpt lat="45.37139" lon="5.90488">
        <ele>1699.427694957</ele>
        <time>2016-02-15T12:38:37Z</time>
      </trkpt>
      <trkpt lat="45.37139" lon="5.90488">
        <ele>1699.427694957</ele>
        <time>2016-02-15T12:38:47Z</time>
      </trkpt>
      <trkpt lat="45.37139" lon="5.90488">
        <ele>1699.427694957</ele>
        <time>2016-02-15T12:38:52Z</time>
      </trkpt>
      <trkpt lat="45.37139" lon="5.90487">
        <ele>1699.427694957</ele>
        <time>2016-02-15T12:39:02Z</time>
      </trkpt>
      <trkpt lat="45.37139" lon="5.90487">
        <ele>1699.427694957</ele>
        <time>2016-02-15T12:39:07Z</time>
      </trkpt>
      <trkpt lat="45.37139" lon="5.90487">
        <ele>1699.427694957</ele>
        <time>2016-02-15T12:39:17Z</time>
      </trkpt>
      <trkpt lat="45.37139" lon="5.90487">
        <ele>1699.427694957</ele>
        <time>2016-02-15T12:39:22Z</time>
      </trkpt>
      <trkpt lat="45.37139" lon="5.90487">
        <ele>1699.427694957</ele>
        <time>2016-02-15T12:39:37Z</time>
      </trkpt>
      <trkpt lat="45.37139" lon="5.90487">
        <ele>1699.427694957</ele>
        <time>2016-02-15T12:39:42Z</time>
      </trkpt>
      <trkpt lat="45.37139" lon="5.90487">
        <ele>1703.307968761</ele>
        <time>2016-02-15T12:39:52Z</time>
      </trkpt>
      <trkpt lat="45.37139" lon="5.90486">
        <ele>1703.307968761</ele>
        <time>2016-02-15T12:39:57Z</time>
      </trkpt>
      <trkpt lat="45.37139" lon="5.90486">
        <ele>1703.307968761</ele>
        <time>2016-02-15T12:40:07Z</time>
      </trkpt>
      <trkpt lat="45.37139" lon="5.90486">
        <ele>1703.307968761</ele>
        <time>2016-02-15T12:40:12Z</time>
      </trkpt>
      <trkpt lat="45.37139" lon="5.90486">
        <ele>1703.307968761</ele>
        <time>2016-02-15T12:40:22Z</time>
      </trkpt>
      <trkpt lat="45.3714" lon="5.90485">
        <ele>1703.307968761</ele>
        <time>2016-02-15T12:40:27Z</time>
      </trkpt>
      <trkpt lat="45.3714" lon="5.90485">
        <ele>1703.307968761</ele>
        <time>2016-02-15T12:40:37Z</time>
      </trkpt>
      <trkpt lat="45.3714" lon="5.90485">
        <ele>1703.307968761</ele>
        <time>2016-02-15T12:40:42Z</time>
      </trkpt>
      <trkpt lat="45.3714" lon="5.90485">
        <ele>1703.307968761</ele>
        <time>2016-02-15T12:40:52Z</time>
      </trkpt>
      <trkpt lat="45.3714" lon="5.90485">
        <ele>1703.307968761</ele>
        <time>2016-02-15T12:40:57Z</time>
      </trkpt>
      <trkpt lat="45.3714" lon="5.90484">
        <ele>1703.307968761</ele>
        <time>2016-02-15T12:41:12Z</time>
      </trkpt>
      <trkpt lat="45.3714" lon="5.90484">
        <ele>1703.307968761</ele>
        <time>2016-02-15T12:41:17Z</time>
      </trkpt>
      <trkpt lat="45.3714" lon="5.90484">
        <ele>1703.307968761</ele>
        <time>2016-02-15T12:41:27Z</time>
      </trkpt>
      <trkpt lat="45.3714" lon="5.90483">
        <ele>1703.307968761</ele>
        <time>2016-02-15T12:41:32Z</time>
      </trkpt>
      <trkpt lat="45.3714" lon="5.90483">
        <ele>1703.307968761</ele>
        <time>2016-02-15T12:41:42Z</time>
      </trkpt>
      <trkpt lat="45.3714" lon="5.90483">
        <ele>1703.307968761</ele>
        <time>2016-02-15T12:41:47Z</time>
      </trkpt>
      <trkpt lat="45.3714" lon="5.90483">
        <ele>1703.307968761</ele>
        <time>2016-02-15T12:41:57Z</time>
      </trkpt>
      <trkpt lat="45.3714" lon="5.90483">
        <ele>1703.307968761</ele>
        <time>2016-02-15T12:42:02Z</time>
      </trkpt>
      <trkpt lat="45.3714" lon="5.90483">
        <ele>1703.307968761</ele>
        <time>2016-02-15T12:42:12Z</time>
      </trkpt>
      <trkpt lat="45.3714" lon="5.90483">
        <ele>1703.307968761</ele>
        <time>2016-02-15T12:42:17Z</time>
      </trkpt>
      <trkpt lat="45.3714" lon="5.90482">
        <ele>1703.307968761</ele>
        <time>2016-02-15T12:42:27Z</time>
      </trkpt>
      <trkpt lat="45.3714" lon="5.90482">
        <ele>1703.307968761</ele>
        <time>2016-02-15T12:42:32Z</time>
      </trkpt>
      <trkpt lat="45.3714" lon="5.90482">
        <ele>1703.307968761</ele>
        <time>2016-02-15T12:42:42Z</time>
      </trkpt>
      <trkpt lat="45.3714" lon="5.90482">
        <ele>1703.307968761</ele>
        <time>2016-02-15T12:42:47Z</time>
      </trkpt>
      <trkpt lat="45.3714" lon="5.90482">
        <ele>1703.307968761</ele>
        <time>2016-02-15T12:42:57Z</time>
      </trkpt>
      <trkpt lat="45.3714" lon="5.90482">
        <ele>1703.307968761</ele>
        <time>2016-02-15T12:43:02Z</time>
      </trkpt>
      <trkpt lat="45.37141" lon="5.90481">
        <ele>1703.307968761</ele>
        <time>2016-02-15T12:43:12Z</time>
      </trkpt>
      <trkpt lat="45.37141" lon="5.90481">
        <ele>1703.307968761</ele>
        <time>2016-02-15T12:43:17Z</time>
      </trkpt>
      <trkpt lat="45.37141" lon="5.90481">
        <ele>1703.307968761</ele>
        <time>2016-02-15T12:43:27Z</time>
      </trkpt>
      <trkpt lat="45.37141" lon="5.90481">
        <ele>1703.307968761</ele>
        <time>2016-02-15T12:43:32Z</time>
      </trkpt>
      <trkpt lat="45.37141" lon="5.9048">
        <ele>1703.307968761</ele>
        <time>2016-02-15T12:43:47Z</time>
      </trkpt>
      <trkpt lat="45.37141" lon="5.9048">
        <ele>1703.307968761</ele>
        <time>2016-02-15T12:43:52Z</time>
      </trkpt>
      <trkpt lat="45.37141" lon="5.9048">
        <ele>1703.307968761</ele>
        <time>2016-02-15T12:43:57Z</time>
      </trkpt>
      <trkpt lat="45.37141" lon="5.9048">
        <ele>1703.307968761</ele>
        <time>2016-02-15T12:44:02Z</time>
      </trkpt>
      <trkpt lat="45.37141" lon="5.9048">
        <ele>1703.307968761</ele>
        <time>2016-02-15T12:44:14Z</time>
      </trkpt>
      <trkpt lat="45.37141" lon="5.9048">
        <ele>1703.307968761</ele>
        <time>2016-02-15T12:44:17Z</time>
      </trkpt>
      <trkpt lat="45.37141" lon="5.9048">
        <ele>1703.307968761</ele>
        <time>2016-02-15T12:44:27Z</time>
      </trkpt>
      <trkpt lat="45.37141" lon="5.9048">
        <ele>1703.307968761</ele>
        <time>2016-02-15T12:44:32Z</time>
      </trkpt>
      <trkpt lat="45.37141" lon="5.9048">
        <ele>1703.307968761</ele>
        <time>2016-02-15T12:44:42Z</time>
      </trkpt>
      <trkpt lat="45.37141" lon="5.9048">
        <ele>1703.307968761</ele>
        <time>2016-02-15T12:44:49Z</time>
      </trkpt>
      <trkpt lat="45.37141" lon="5.9048">
        <ele>1703.307968761</ele>
        <time>2016-02-15T12:45:00Z</time>
      </trkpt>
      <trkpt lat="45.37141" lon="5.9048">
        <ele>1703.307968761</ele>
        <time>2016-02-15T12:45:02Z</time>
      </trkpt>
      <trkpt lat="45.37141" lon="5.9048">
        <ele>1703.307968761</ele>
        <time>2016-02-15T12:45:32Z</time>
      </trkpt>
      <trkpt lat="45.37141" lon="5.9048">
        <ele>1703.307968761</ele>
        <time>2016-02-15T12:45:55Z</time>
      </trkpt>
      <trkpt lat="45.37141" lon="5.9048">
        <ele>1703.307968761</ele>
        <time>2016-02-15T12:46:00Z</time>
      </trkpt>
      <trkpt lat="45.37141" lon="5.9048">
        <ele>1703.307968761</ele>
        <time>2016-02-15T12:46:36Z</time>
      </trkpt>
      <trkpt lat="45.37141" lon="5.90479">
        <ele>1703.307968761</ele>
        <time>2016-02-15T12:47:35Z</time>
      </trkpt>
      <trkpt lat="45.37141" lon="5.90479">
        <ele>1703.307968761</ele>
        <time>2016-02-15T12:49:05Z</time>
      </trkpt>
      <trkpt lat="45.37141" lon="5.90479">
        <ele>1703.307968761</ele>
        <time>2016-02-15T12:49:07Z</time>
      </trkpt>
      <trkpt lat="45.37141" lon="5.90479">
        <ele>1703.307968761</ele>
        <time>2016-02-15T12:49:25Z</time>
      </trkpt>
      <trkpt lat="45.37142" lon="5.90478">
        <ele>1703.307968761</ele>
        <time>2016-02-15T12:49:40Z</time>
      </trkpt>
      <trkpt lat="45.37142" lon="5.90478">
        <ele>1703.307968761</ele>
        <time>2016-02-15T12:49:42Z</time>
      </trkpt>
      <trkpt lat="45.37142" lon="5.90478">
        <ele>1703.307968761</ele>
        <time>2016-02-15T12:49:50Z</time>
      </trkpt>
      <trkpt lat="45.37142" lon="5.90478">
        <ele>1703.307968761</ele>
        <time>2016-02-15T12:49:57Z</time>
      </trkpt>
      <trkpt lat="45.37142" lon="5.90478">
        <ele>1703.307968761</ele>
        <time>2016-02-15T12:51:00Z</time>
      </trkpt>
      <trkpt lat="45.37142" lon="5.90478">
        <ele>1703.307968761</ele>
        <time>2016-02-15T12:51:05Z</time>
      </trkpt>
      <trkpt lat="45.3715" lon="5.90459">
        <ele>1702.79119907</ele>
        <time>2016-02-15T12:51:18Z</time>
      </trkpt>
      <trkpt lat="45.37151" lon="5.9046">
        <ele>1702.79119907</ele>
        <time>2016-02-15T12:51:28Z</time>
      </trkpt>
      <trkpt lat="45.37151" lon="5.9046">
        <ele>1702.79119907</ele>
        <time>2016-02-15T12:51:33Z</time>
      </trkpt>
      <trkpt lat="45.37151" lon="5.9046">
        <ele>1702.79119907</ele>
        <time>2016-02-15T12:51:48Z</time>
      </trkpt>
      <trkpt lat="45.37156" lon="5.90452">
        <ele>1701.663004114</ele>
        <time>2016-02-15T12:52:02Z</time>
      </trkpt>
      <trkpt lat="45.37153" lon="5.90447">
        <ele>1701.123443379</ele>
        <time>2016-02-15T12:52:08Z</time>
      </trkpt>
      <trkpt lat="45.37149" lon="5.90445">
        <ele>1700.583882644</ele>
        <time>2016-02-15T12:52:18Z</time>
      </trkpt>
      <trkpt lat="45.3715" lon="5.9045">
        <ele>1700.044321909</ele>
        <time>2016-02-15T12:52:22Z</time>
      </trkpt>
      <trkpt lat="45.37158" lon="5.90445">
        <ele>1699.504761175</ele>
        <time>2016-02-15T12:52:33Z</time>
      </trkpt>
      <trkpt lat="45.37157" lon="5.90446">
        <ele>1698.96520044</ele>
        <time>2016-02-15T12:52:38Z</time>
      </trkpt>
      <trkpt lat="45.37159" lon="5.90446">
        <ele>1698.96520044</ele>
        <time>2016-02-15T12:52:52Z</time>
      </trkpt>
      <trkpt lat="45.37159" lon="5.90446">
        <ele>1698.96520044</ele>
        <time>2016-02-15T12:52:57Z</time>
      </trkpt>
      <trkpt lat="45.37158" lon="5.90446">
        <ele>1698.96520044</ele>
        <time>2016-02-15T12:53:07Z</time>
      </trkpt>
      <trkpt lat="45.37158" lon="5.90446">
        <ele>1698.96520044</ele>
        <time>2016-02-15T12:53:23Z</time>
      </trkpt>
      <trkpt lat="45.37158" lon="5.90446">
        <ele>1698.96520044</ele>
        <time>2016-02-15T12:53:28Z</time>
      </trkpt>
      <trkpt lat="45.37158" lon="5.90446">
        <ele>1698.96520044</ele>
        <time>2016-02-15T12:53:38Z</time>
      </trkpt>
      <trkpt lat="45.37158" lon="5.90446">
        <ele>1698.96520044</ele>
        <time>2016-02-15T12:53:43Z</time>
      </trkpt>
      <trkpt lat="45.37159" lon="5.90446">
        <ele>1698.96520044</ele>
        <time>2016-02-15T12:53:53Z</time>
      </trkpt>
      <trkpt lat="45.37159" lon="5.90446">
        <ele>1698.96520044</ele>
        <time>2016-02-15T12:53:57Z</time>
      </trkpt>
      <trkpt lat="45.37159" lon="5.90446">
        <ele>1698.96520044</ele>
        <time>2016-02-15T12:54:07Z</time>
      </trkpt>
      <trkpt lat="45.37159" lon="5.90446">
        <ele>1698.96520044</ele>
        <time>2016-02-15T12:54:12Z</time>
      </trkpt>
      <trkpt lat="45.37159" lon="5.90446">
        <ele>1698.96520044</ele>
        <time>2016-02-15T12:54:22Z</time>
      </trkpt>
      <trkpt lat="45.37159" lon="5.90446">
        <ele>1698.96520044</ele>
        <time>2016-02-15T12:54:27Z</time>
      </trkpt>
      <trkpt lat="45.37139" lon="5.90482">
        <ele>1688.889802819</ele>
        <time>2016-02-15T12:54:57Z</time>
      </trkpt>
      <trkpt lat="45.37131" lon="5.90493">
        <ele>1678.814405197</ele>
        <time>2016-02-15T12:55:02Z</time>
      </trkpt>
      <trkpt lat="45.37139" lon="5.9048">
        <ele>1668.739007576</ele>
        <time>2016-02-15T12:55:12Z</time>
      </trkpt>
      <trkpt lat="45.3714" lon="5.90479">
        <ele>1668.739007576</ele>
        <time>2016-02-15T12:55:17Z</time>
      </trkpt>
      <trkpt lat="45.37141" lon="5.90478">
        <ele>1668.739007576</ele>
        <time>2016-02-15T12:55:27Z</time>
      </trkpt>
      <trkpt lat="45.37141" lon="5.90479">
        <ele>1668.739007576</ele>
        <time>2016-02-15T12:55:33Z</time>
      </trkpt>
      <trkpt lat="45.37141" lon="5.90478">
        <ele>1668.739007576</ele>
        <time>2016-02-15T12:55:43Z</time>
      </trkpt>
      <trkpt lat="45.37141" lon="5.90478">
        <ele>1668.739007576</ele>
        <time>2016-02-15T12:56:09Z</time>
      </trkpt>
      <trkpt lat="45.37141" lon="5.90478">
        <ele>1668.739007576</ele>
        <time>2016-02-15T12:56:12Z</time>
      </trkpt>
      <trkpt lat="45.37142" lon="5.90478">
        <ele>1668.739007576</ele>
        <time>2016-02-15T12:56:22Z</time>
      </trkpt>
      <trkpt lat="45.37142" lon="5.90478">
        <ele>1668.739007576</ele>
        <time>2016-02-15T12:56:28Z</time>
      </trkpt>
      <trkpt lat="45.37144" lon="5.90499">
        <ele>1665.559413384</ele>
        <time>2016-02-15T12:56:38Z</time>
      </trkpt>
      <trkpt lat="45.37147" lon="5.90503">
        <ele>1662.379819192</ele>
        <time>2016-02-15T12:56:42Z</time>
      </trkpt>
      <trkpt lat="45.37155" lon="5.90518">
        <ele>1653.51136959</ele>
        <time>2016-02-15T12:56:52Z</time>
      </trkpt>
      <trkpt lat="45.37158" lon="5.90531">
        <ele>1645.515178008</ele>
        <time>2016-02-15T12:56:58Z</time>
      </trkpt>
      <trkpt lat="45.37161" lon="5.90542">
        <ele>1645.515178008</ele>
        <time>2016-02-15T12:57:07Z</time>
      </trkpt>
      <trkpt lat="45.37165" lon="5.90539">
        <ele>1638.351093586</ele>
        <time>2016-02-15T12:57:13Z</time>
      </trkpt>
      <trkpt lat="45.37168" lon="5.90536">
        <ele>1638.351093586</ele>
        <time>2016-02-15T12:57:23Z</time>
      </trkpt>
      <trkpt lat="45.37167" lon="5.90536">
        <ele>1638.351093586</ele>
        <time>2016-02-15T12:57:28Z</time>
      </trkpt>
      <trkpt lat="45.37167" lon="5.90537">
        <ele>1638.351093586</ele>
        <time>2016-02-15T12:57:38Z</time>
      </trkpt>
      <trkpt lat="45.37167" lon="5.90537">
        <ele>1638.351093586</ele>
        <time>2016-02-15T12:57:42Z</time>
      </trkpt>
      <trkpt lat="45.37164" lon="5.90542">
        <ele>1638.351093586</ele>
        <time>2016-02-15T12:57:58Z</time>
      </trkpt>
      <trkpt lat="45.37157" lon="5.90552">
        <ele>1632.123279455</ele>
        <time>2016-02-15T12:58:02Z</time>
      </trkpt>
      <trkpt lat="45.37155" lon="5.90566">
        <ele>1628.222178958</ele>
        <time>2016-02-15T12:58:13Z</time>
      </trkpt>
      <trkpt lat="45.37152" lon="5.90571">
        <ele>1628.222178958</ele>
        <time>2016-02-15T12:58:28Z</time>
      </trkpt>
      <trkpt lat="45.37152" lon="5.90571">
        <ele>1628.222178958</ele>
        <time>2016-02-15T12:58:32Z</time>
      </trkpt>
      <trkpt lat="45.37153" lon="5.9057">
        <ele>1628.222178958</ele>
        <time>2016-02-15T12:58:43Z</time>
      </trkpt>
      <trkpt lat="45.37153" lon="5.9057">
        <ele>1628.222178958</ele>
        <time>2016-02-15T12:58:48Z</time>
      </trkpt>
      <trkpt lat="45.37153" lon="5.9057">
        <ele>1628.222178958</ele>
        <time>2016-02-15T12:58:57Z</time>
      </trkpt>
      <trkpt lat="45.37153" lon="5.9057">
        <ele>1628.222178958</ele>
        <time>2016-02-15T12:59:04Z</time>
      </trkpt>
      <trkpt lat="45.37153" lon="5.9057">
        <ele>1628.222178958</ele>
        <time>2016-02-15T12:59:12Z</time>
      </trkpt>
      <trkpt lat="45.37153" lon="5.9057">
        <ele>1628.222178958</ele>
        <time>2016-02-15T12:59:20Z</time>
      </trkpt>
      <trkpt lat="45.37153" lon="5.9057">
        <ele>1628.222178958</ele>
        <time>2016-02-15T12:59:43Z</time>
      </trkpt>
      <trkpt lat="45.37153" lon="5.9057">
        <ele>1628.222178958</ele>
        <time>2016-02-15T12:59:48Z</time>
      </trkpt>
      <trkpt lat="45.37151" lon="5.90572">
        <ele>1628.222178958</ele>
        <time>2016-02-15T12:59:59Z</time>
      </trkpt>
      <trkpt lat="45.37151" lon="5.90572">
        <ele>1628.222178958</ele>
        <time>2016-02-15T13:00:03Z</time>
      </trkpt>
      <trkpt lat="45.37151" lon="5.90572">
        <ele>1628.222178958</ele>
        <time>2016-02-15T13:00:18Z</time>
      </trkpt>
      <trkpt lat="45.37151" lon="5.90572">
        <ele>1628.222178958</ele>
        <time>2016-02-15T13:00:22Z</time>
      </trkpt>
      <trkpt lat="45.37151" lon="5.90572">
        <ele>1628.222178958</ele>
        <time>2016-02-15T13:00:29Z</time>
      </trkpt>
      <trkpt lat="45.37151" lon="5.90573">
        <ele>1628.222178958</ele>
        <time>2016-02-15T13:00:32Z</time>
      </trkpt>
      <trkpt lat="45.37151" lon="5.90573">
        <ele>1628.222178958</ele>
        <time>2016-02-15T13:00:37Z</time>
      </trkpt>
      <trkpt lat="45.37151" lon="5.90573">
        <ele>1628.222178958</ele>
        <time>2016-02-15T13:00:48Z</time>
      </trkpt>
      <trkpt lat="45.37151" lon="5.90573">
        <ele>1628.222178958</ele>
        <time>2016-02-15T13:00:53Z</time>
      </trkpt>
      <trkpt lat="45.37151" lon="5.90573">
        <ele>1628.222178958</ele>
        <time>2016-02-15T13:01:03Z</time>
      </trkpt>
      <trkpt lat="45.37151" lon="5.90573">
        <ele>1628.222178958</ele>
        <time>2016-02-15T13:01:22Z</time>
      </trkpt>
      <trkpt lat="45.37151" lon="5.90574">
        <ele>1628.222178958</ele>
        <time>2016-02-15T13:02:01Z</time>
      </trkpt>
      <trkpt lat="45.37151" lon="5.90574">
        <ele>1623.461659253</ele>
        <time>2016-02-15T13:02:12Z</time>
      </trkpt>
      <trkpt lat="45.37151" lon="5.90574">
        <ele>1623.461659253</ele>
        <time>2016-02-15T13:02:12Z</time>
      </trkpt>
      <trkpt lat="45.37148" lon="5.90581">
        <ele>1623.461659253</ele>
        <time>2016-02-15T13:02:32Z</time>
      </trkpt>
      <trkpt lat="45.37145" lon="5.90585">
        <ele>1620.079582427</ele>
        <time>2016-02-15T13:02:43Z</time>
      </trkpt>
      <trkpt lat="45.37141" lon="5.90593">
        <ele>1620.079582427</ele>
        <time>2016-02-15T13:02:48Z</time>
      </trkpt>
      <trkpt lat="45.37141" lon="5.906">
        <ele>1616.686414299</ele>
        <time>2016-02-15T13:02:59Z</time>
      </trkpt>
      <trkpt lat="45.37141" lon="5.906">
        <ele>1616.686414299</ele>
        <time>2016-02-15T13:03:03Z</time>
      </trkpt>
      <trkpt lat="45.37141" lon="5.906">
        <ele>1616.686414299</ele>
        <time>2016-02-15T13:03:13Z</time>
      </trkpt>
      <trkpt lat="45.37141" lon="5.906">
        <ele>1616.686414299</ele>
        <time>2016-02-15T13:03:18Z</time>
      </trkpt>
      <trkpt lat="45.37141" lon="5.906">
        <ele>1616.686414299</ele>
        <time>2016-02-15T13:03:28Z</time>
      </trkpt>
      <trkpt lat="45.37141" lon="5.906">
        <ele>1616.686414299</ele>
        <time>2016-02-15T13:03:33Z</time>
      </trkpt>
      <trkpt lat="45.3713" lon="5.90621">
        <ele>1613.867708977</ele>
        <time>2016-02-15T13:03:43Z</time>
      </trkpt>
      <trkpt lat="45.37127" lon="5.90632">
        <ele>1613.867708977</ele>
        <time>2016-02-15T13:03:48Z</time>
      </trkpt>
      <trkpt lat="45.37128" lon="5.9063">
        <ele>1610.86694145</ele>
        <time>2016-02-15T13:03:52Z</time>
      </trkpt>
      <trkpt lat="45.37123" lon="5.90637">
        <ele>1610.86694145</ele>
        <time>2016-02-15T13:03:59Z</time>
      </trkpt>
      <trkpt lat="45.37122" lon="5.90641">
        <ele>1608.56845599</ele>
        <time>2016-02-15T13:04:03Z</time>
      </trkpt>
      <trkpt lat="45.37118" lon="5.90645">
        <ele>1608.56845599</ele>
        <time>2016-02-15T13:04:08Z</time>
      </trkpt>
      <trkpt lat="45.37112" lon="5.90658">
        <ele>1606.204018518</ele>
        <time>2016-02-15T13:04:18Z</time>
      </trkpt>
      <trkpt lat="45.37112" lon="5.9066">
        <ele>1606.204018518</ele>
        <time>2016-02-15T13:04:23Z</time>
      </trkpt>
      <trkpt lat="45.37111" lon="5.90661">
        <ele>1606.204018518</ele>
        <time>2016-02-15T13:04:33Z</time>
      </trkpt>
      <trkpt lat="45.37111" lon="5.90661">
        <ele>1606.204018518</ele>
        <time>2016-02-15T13:04:37Z</time>
      </trkpt>
      <trkpt lat="45.37109" lon="5.90663">
        <ele>1606.204018518</ele>
        <time>2016-02-15T13:04:48Z</time>
      </trkpt>
      <trkpt lat="45.37108" lon="5.90662">
        <ele>1606.204018518</ele>
        <time>2016-02-15T13:04:52Z</time>
      </trkpt>
      <trkpt lat="45.37104" lon="5.90661">
        <ele>1602.052828757</ele>
        <time>2016-02-15T13:05:03Z</time>
      </trkpt>
      <trkpt lat="45.37105" lon="5.90659">
        <ele>1602.052828757</ele>
        <time>2016-02-15T13:05:08Z</time>
      </trkpt>
      <trkpt lat="45.37103" lon="5.90662">
        <ele>1602.052828757</ele>
        <time>2016-02-15T13:05:18Z</time>
      </trkpt>
      <trkpt lat="45.37103" lon="5.90662">
        <ele>1602.052828757</ele>
        <time>2016-02-15T13:05:23Z</time>
      </trkpt>
      <trkpt lat="45.37103" lon="5.90662">
        <ele>1602.052828757</ele>
        <time>2016-02-15T13:05:38Z</time>
      </trkpt>
      <trkpt lat="45.37103" lon="5.90661">
        <ele>1602.052828757</ele>
        <time>2016-02-15T13:05:43Z</time>
      </trkpt>
      <trkpt lat="45.37103" lon="5.90661">
        <ele>1602.052828757</ele>
        <time>2016-02-15T13:05:53Z</time>
      </trkpt>
      <trkpt lat="45.37103" lon="5.90661">
        <ele>1602.052828757</ele>
        <time>2016-02-15T13:05:58Z</time>
      </trkpt>
      <trkpt lat="45.37103" lon="5.90661">
        <ele>1602.052828757</ele>
        <time>2016-02-15T13:06:08Z</time>
      </trkpt>
      <trkpt lat="45.37103" lon="5.90661">
        <ele>1602.052828757</ele>
        <time>2016-02-15T13:06:13Z</time>
      </trkpt>
      <trkpt lat="45.37103" lon="5.90661">
        <ele>1602.052828757</ele>
        <time>2016-02-15T13:06:23Z</time>
      </trkpt>
      <trkpt lat="45.37103" lon="5.90661">
        <ele>1602.052828757</ele>
        <time>2016-02-15T13:06:28Z</time>
      </trkpt>
      <trkpt lat="45.37103" lon="5.90661">
        <ele>1602.052828757</ele>
        <time>2016-02-15T13:06:37Z</time>
      </trkpt>
      <trkpt lat="45.37103" lon="5.90661">
        <ele>1602.052828757</ele>
        <time>2016-02-15T13:06:43Z</time>
      </trkpt>
      <trkpt lat="45.37103" lon="5.90661">
        <ele>1602.052828757</ele>
        <time>2016-02-15T13:06:53Z</time>
      </trkpt>
      <trkpt lat="45.37103" lon="5.90661">
        <ele>1602.052828757</ele>
        <time>2016-02-15T13:06:58Z</time>
      </trkpt>
      <trkpt lat="45.37103" lon="5.90661">
        <ele>1602.052828757</ele>
        <time>2016-02-15T13:07:08Z</time>
      </trkpt>
      <trkpt lat="45.37103" lon="5.90661">
        <ele>1602.052828757</ele>
        <time>2016-02-15T13:07:13Z</time>
      </trkpt>
      <trkpt lat="45.37103" lon="5.90661">
        <ele>1602.052828757</ele>
        <time>2016-02-15T13:07:23Z</time>
      </trkpt>
      <trkpt lat="45.37103" lon="5.90661">
        <ele>1602.052828757</ele>
        <time>2016-02-15T13:07:28Z</time>
      </trkpt>
      <trkpt lat="45.37103" lon="5.90661">
        <ele>1602.052828757</ele>
        <time>2016-02-15T13:07:38Z</time>
      </trkpt>
      <trkpt lat="45.37103" lon="5.90661">
        <ele>1602.052828757</ele>
        <time>2016-02-15T13:07:42Z</time>
      </trkpt>
      <trkpt lat="45.37103" lon="5.90661">
        <ele>1602.052828757</ele>
        <time>2016-02-15T13:07:57Z</time>
      </trkpt>
      <trkpt lat="45.37103" lon="5.90661">
        <ele>1602.052828757</ele>
        <time>2016-02-15T13:08:03Z</time>
      </trkpt>
      <trkpt lat="45.37103" lon="5.90661">
        <ele>1602.052828757</ele>
        <time>2016-02-15T13:08:13Z</time>
      </trkpt>
      <trkpt lat="45.37103" lon="5.90661">
        <ele>1602.052828757</ele>
        <time>2016-02-15T13:08:17Z</time>
      </trkpt>
      <trkpt lat="45.37103" lon="5.90661">
        <ele>1602.052828757</ele>
        <time>2016-02-15T13:08:28Z</time>
      </trkpt>
      <trkpt lat="45.37103" lon="5.90661">
        <ele>1602.052828757</ele>
        <time>2016-02-15T13:08:32Z</time>
      </trkpt>
      <trkpt lat="45.37103" lon="5.90661">
        <ele>1602.052828757</ele>
        <time>2016-02-15T13:08:44Z</time>
      </trkpt>
      <trkpt lat="45.37103" lon="5.90661">
        <ele>1602.052828757</ele>
        <time>2016-02-15T13:08:48Z</time>
      </trkpt>
      <trkpt lat="45.37103" lon="5.90661">
        <ele>1602.052828757</ele>
        <time>2016-02-15T13:09:03Z</time>
      </trkpt>
      <trkpt lat="45.37103" lon="5.90661">
        <ele>1602.052828757</ele>
        <time>2016-02-15T13:09:08Z</time>
      </trkpt>
      <trkpt lat="45.37103" lon="5.90661">
        <ele>1602.052828757</ele>
        <time>2016-02-15T13:09:20Z</time>
      </trkpt>
      <trkpt lat="45.37103" lon="5.90661">
        <ele>1602.052828757</ele>
        <time>2016-02-15T13:09:23Z</time>
      </trkpt>
      <trkpt lat="45.37103" lon="5.90661">
        <ele>1602.052828757</ele>
        <time>2016-02-15T13:09:33Z</time>
      </trkpt>
      <trkpt lat="45.37103" lon="5.90661">
        <ele>1602.052828757</ele>
        <time>2016-02-15T13:09:37Z</time>
      </trkpt>
      <trkpt lat="45.37103" lon="5.90661">
        <ele>1602.052828757</ele>
        <time>2016-02-15T13:09:48Z</time>
      </trkpt>
      <trkpt lat="45.37103" lon="5.90661">
        <ele>1602.052828757</ele>
        <time>2016-02-15T13:09:53Z</time>
      </trkpt>
      <trkpt lat="45.37103" lon="5.9066">
        <ele>1602.052828757</ele>
        <time>2016-02-15T13:10:03Z</time>
      </trkpt>
      <trkpt lat="45.37103" lon="5.9066">
        <ele>1602.052828757</ele>
        <time>2016-02-15T13:10:08Z</time>
      </trkpt>
      <trkpt lat="45.37104" lon="5.9066">
        <ele>1602.052828757</ele>
        <time>2016-02-15T13:10:30Z</time>
      </trkpt>
      <trkpt lat="45.37104" lon="5.9066">
        <ele>1602.052828757</ele>
        <time>2016-02-15T13:10:36Z</time>
      </trkpt>
      <trkpt lat="45.37104" lon="5.9066">
        <ele>1602.052828757</ele>
        <time>2016-02-15T13:10:37Z</time>
      </trkpt>
      <trkpt lat="45.37104" lon="5.9066">
        <ele>1602.052828757</ele>
        <time>2016-02-15T13:10:53Z</time>
      </trkpt>
      <trkpt lat="45.37104" lon="5.9066">
        <ele>1602.052828757</ele>
        <time>2016-02-15T13:10:56Z</time>
      </trkpt>
      <trkpt lat="45.37104" lon="5.9066">
        <ele>1602.052828757</ele>
        <time>2016-02-15T13:11:45Z</time>
      </trkpt>
      <trkpt lat="45.37104" lon="5.9066">
        <ele>1602.052828757</ele>
        <time>2016-02-15T13:11:47Z</time>
      </trkpt>
      <trkpt lat="45.37104" lon="5.9066">
        <ele>1602.052828757</ele>
        <time>2016-02-15T13:11:57Z</time>
      </trkpt>
      <trkpt lat="45.37104" lon="5.9066">
        <ele>1602.052828757</ele>
        <time>2016-02-15T13:12:16Z</time>
      </trkpt>
      <trkpt lat="45.37104" lon="5.90659">
        <ele>1602.052828757</ele>
        <time>2016-02-15T13:12:48Z</time>
      </trkpt>
      <trkpt lat="45.37104" lon="5.90659">
        <ele>1602.052828757</ele>
        <time>2016-02-15T13:12:49Z</time>
      </trkpt>
      <trkpt lat="45.37104" lon="5.90659">
        <ele>1602.052828757</ele>
        <time>2016-02-15T13:12:55Z</time>
      </trkpt>
      <trkpt lat="45.37104" lon="5.90658">
        <ele>1602.052828757</ele>
        <time>2016-02-15T13:13:11Z</time>
      </trkpt>
      <trkpt lat="45.37104" lon="5.90658">
        <ele>1602.052828757</ele>
        <time>2016-02-15T13:13:12Z</time>
      </trkpt>
      <trkpt lat="45.37105" lon="5.90658">
        <ele>1602.052828757</ele>
        <time>2016-02-15T13:13:37Z</time>
      </trkpt>
      <trkpt lat="45.37105" lon="5.90657">
        <ele>1602.052828757</ele>
        <time>2016-02-15T13:13:38Z</time>
      </trkpt>
      <trkpt lat="45.37104" lon="5.90656">
        <ele>1597.407336886</ele>
        <time>2016-02-15T13:13:48Z</time>
      </trkpt>
      <trkpt lat="45.37101" lon="5.90657">
        <ele>1597.407336886</ele>
        <time>2016-02-15T13:13:53Z</time>
      </trkpt>
      <trkpt lat="45.37097" lon="5.90649">
        <ele>1592.457273614</ele>
        <time>2016-02-15T13:14:02Z</time>
      </trkpt>
      <trkpt lat="45.37096" lon="5.90645">
        <ele>1592.457273614</ele>
        <time>2016-02-15T13:14:07Z</time>
      </trkpt>
      <trkpt lat="45.37091" lon="5.90645">
        <ele>1592.457273614</ele>
        <time>2016-02-15T13:14:18Z</time>
      </trkpt>
      <trkpt lat="45.3709" lon="5.90641">
        <ele>1587.378905374</ele>
        <time>2016-02-15T13:14:22Z</time>
      </trkpt>
      <trkpt lat="45.37087" lon="5.90645">
        <ele>1587.378905374</ele>
        <time>2016-02-15T13:14:37Z</time>
      </trkpt>
      <trkpt lat="45.37087" lon="5.90644">
        <ele>1587.378905374</ele>
        <time>2016-02-15T13:14:43Z</time>
      </trkpt>
      <trkpt lat="45.37089" lon="5.90646">
        <ele>1587.378905374</ele>
        <time>2016-02-15T13:14:53Z</time>
      </trkpt>
      <trkpt lat="45.37089" lon="5.90646">
        <ele>1587.378905374</ele>
        <time>2016-02-15T13:14:58Z</time>
      </trkpt>
      <trkpt lat="45.37089" lon="5.90646">
        <ele>1587.378905374</ele>
        <time>2016-02-15T13:15:09Z</time>
      </trkpt>
      <trkpt lat="45.37088" lon="5.90645">
        <ele>1581.903195484</ele>
        <time>2016-02-15T13:15:12Z</time>
      </trkpt>
      <trkpt lat="45.37087" lon="5.90645">
        <ele>1581.903195484</ele>
        <time>2016-02-15T13:15:23Z</time>
      </trkpt>
      <trkpt lat="45.37087" lon="5.90644">
        <ele>1581.903195484</ele>
        <time>2016-02-15T13:15:28Z</time>
      </trkpt>
      <trkpt lat="45.37083" lon="5.90645">
        <ele>1581.903195484</ele>
        <time>2016-02-15T13:15:38Z</time>
      </trkpt>
      <trkpt lat="45.37084" lon="5.90642">
        <ele>1581.903195484</ele>
        <time>2016-02-15T13:15:43Z</time>
      </trkpt>
      <trkpt lat="45.3708" lon="5.90639">
        <ele>1576.79038205</ele>
        <time>2016-02-15T13:15:57Z</time>
      </trkpt>
      <trkpt lat="45.37078" lon="5.90643">
        <ele>1576.79038205</ele>
        <time>2016-02-15T13:16:03Z</time>
      </trkpt>
      <trkpt lat="45.37075" lon="5.90646">
        <ele>1576.79038205</ele>
        <time>2016-02-15T13:16:13Z</time>
      </trkpt>
      <trkpt lat="45.37075" lon="5.90646">
        <ele>1576.79038205</ele>
        <time>2016-02-15T13:16:18Z</time>
      </trkpt>
      <trkpt lat="45.37071" lon="5.90657">
        <ele>1572.16701328</ele>
        <time>2016-02-15T13:16:28Z</time>
      </trkpt>
      <trkpt lat="45.3707" lon="5.90662">
        <ele>1572.16701328</ele>
        <time>2016-02-15T13:16:33Z</time>
      </trkpt>
      <trkpt lat="45.37069" lon="5.90665">
        <ele>1572.16701328</ele>
        <time>2016-02-15T13:16:42Z</time>
      </trkpt>
      <trkpt lat="45.37069" lon="5.90665">
        <ele>1572.16701328</ele>
        <time>2016-02-15T13:16:47Z</time>
      </trkpt>
      <trkpt lat="45.37065" lon="5.90678">
        <ele>1567.139811094</ele>
        <time>2016-02-15T13:16:57Z</time>
      </trkpt>
      <trkpt lat="45.37063" lon="5.90683">
        <ele>1567.139811094</ele>
        <time>2016-02-15T13:17:02Z</time>
      </trkpt>
      <trkpt lat="45.3706" lon="5.90694">
        <ele>1561.314206462</ele>
        <time>2016-02-15T13:17:21Z</time>
      </trkpt>
      <trkpt lat="45.37059" lon="5.90698">
        <ele>1561.314206462</ele>
        <time>2016-02-15T13:17:29Z</time>
      </trkpt>
      <trkpt lat="45.37059" lon="5.90702">
        <ele>1561.314206462</ele>
        <time>2016-02-15T13:17:32Z</time>
      </trkpt>
      <trkpt lat="45.37057" lon="5.90706">
        <ele>1556.055815389</ele>
        <time>2016-02-15T13:17:37Z</time>
      </trkpt>
      <trkpt lat="45.37048" lon="5.90714">
        <ele>1550.322195545</ele>
        <time>2016-02-15T13:18:05Z</time>
      </trkpt>
      <trkpt lat="45.37047" lon="5.90717">
        <ele>1550.322195545</ele>
        <time>2016-02-15T13:18:07Z</time>
      </trkpt>
      <trkpt lat="45.3705" lon="5.90719">
        <ele>1550.322195545</ele>
        <time>2016-02-15T13:18:19Z</time>
      </trkpt>
      <trkpt lat="45.37047" lon="5.90726">
        <ele>1544.301334525</ele>
        <time>2016-02-15T13:18:51Z</time>
      </trkpt>
      <trkpt lat="45.37047" lon="5.90727">
        <ele>1544.301334525</ele>
        <time>2016-02-15T13:18:52Z</time>
      </trkpt>
      <trkpt lat="45.37045" lon="5.90732">
        <ele>1544.301334525</ele>
        <time>2016-02-15T13:19:09Z</time>
      </trkpt>
      <trkpt lat="45.37046" lon="5.90729">
        <ele>1544.301334525</ele>
        <time>2016-02-15T13:19:21Z</time>
      </trkpt>
      <trkpt lat="45.37046" lon="5.90729">
        <ele>1544.301334525</ele>
        <time>2016-02-15T13:19:26Z</time>
      </trkpt>
      <trkpt lat="45.37045" lon="5.9073">
        <ele>1544.301334525</ele>
        <time>2016-02-15T13:19:40Z</time>
      </trkpt>
      <trkpt lat="45.37045" lon="5.9073">
        <ele>1544.301334525</ele>
        <time>2016-02-15T13:19:42Z</time>
      </trkpt>
      <trkpt lat="45.37045" lon="5.9073">
        <ele>1544.301334525</ele>
        <time>2016-02-15T13:19:47Z</time>
      </trkpt>
      <trkpt lat="45.37045" lon="5.9073">
        <ele>1544.301334525</ele>
        <time>2016-02-15T13:19:52Z</time>
      </trkpt>
      <trkpt lat="45.37045" lon="5.9073">
        <ele>1544.301334525</ele>
        <time>2016-02-15T13:20:02Z</time>
      </trkpt>
      <trkpt lat="45.37044" lon="5.90736">
        <ele>1537.735513027</ele>
        <time>2016-02-15T13:20:07Z</time>
      </trkpt>
      <trkpt lat="45.37037" lon="5.90745">
        <ele>1531.684103778</ele>
        <time>2016-02-15T13:20:17Z</time>
      </trkpt>
      <trkpt lat="45.37038" lon="5.90744">
        <ele>1531.684103778</ele>
        <time>2016-02-15T13:20:22Z</time>
      </trkpt>
      <trkpt lat="45.37039" lon="5.90756">
        <ele>1525.973957598</ele>
        <time>2016-02-15T13:20:32Z</time>
      </trkpt>
      <trkpt lat="45.37037" lon="5.90754">
        <ele>1525.973957598</ele>
        <time>2016-02-15T13:20:38Z</time>
      </trkpt>
      <trkpt lat="45.37035" lon="5.90759">
        <ele>1525.973957598</ele>
        <time>2016-02-15T13:20:48Z</time>
      </trkpt>
      <trkpt lat="45.37033" lon="5.90764">
        <ele>1521.163877911</ele>
        <time>2016-02-15T13:20:53Z</time>
      </trkpt>
      <trkpt lat="45.37032" lon="5.90768">
        <ele>1521.163877911</ele>
        <time>2016-02-15T13:21:03Z</time>
      </trkpt>
      <trkpt lat="45.37031" lon="5.90769">
        <ele>1521.163877911</ele>
        <time>2016-02-15T13:21:08Z</time>
      </trkpt>
      <trkpt lat="45.37026" lon="5.9078">
        <ele>1516.759957333</ele>
        <time>2016-02-15T13:21:40Z</time>
      </trkpt>
      <trkpt lat="45.37025" lon="5.9078">
        <ele>1516.759957333</ele>
        <time>2016-02-15T13:21:52Z</time>
      </trkpt>
      <trkpt lat="45.37025" lon="5.9078">
        <ele>1516.759957333</ele>
        <time>2016-02-15T13:21:52Z</time>
      </trkpt>
      <trkpt lat="45.37025" lon="5.9078">
        <ele>1516.759957333</ele>
        <time>2016-02-15T13:22:08Z</time>
      </trkpt>
      <trkpt lat="45.37025" lon="5.9078">
        <ele>1516.759957333</ele>
        <time>2016-02-15T13:22:13Z</time>
      </trkpt>
      <trkpt lat="45.37007" lon="5.90795">
        <ele>1511.582527078</ele>
        <time>2016-02-15T13:22:22Z</time>
      </trkpt>
      <trkpt lat="45.37006" lon="5.90799">
        <ele>1511.582527078</ele>
        <time>2016-02-15T13:22:28Z</time>
      </trkpt>
      <trkpt lat="45.37004" lon="5.90806">
        <ele>1511.582527078</ele>
        <time>2016-02-15T13:22:38Z</time>
      </trkpt>
      <trkpt lat="45.37001" lon="5.9081">
        <ele>1505.837409611</ele>
        <time>2016-02-15T13:22:42Z</time>
      </trkpt>
      <trkpt lat="45.37001" lon="5.9081">
        <ele>1505.837409611</ele>
        <time>2016-02-15T13:22:53Z</time>
      </trkpt>
      <trkpt lat="45.37001" lon="5.90812">
        <ele>1505.837409611</ele>
        <time>2016-02-15T13:22:58Z</time>
      </trkpt>
      <trkpt lat="45.37001" lon="5.90812">
        <ele>1505.837409611</ele>
        <time>2016-02-15T13:23:07Z</time>
      </trkpt>
      <trkpt lat="45.37001" lon="5.90822">
        <ele>1500.004796743</ele>
        <time>2016-02-15T13:23:13Z</time>
      </trkpt>
      <trkpt lat="45.37001" lon="5.90829">
        <ele>1500.004796743</ele>
        <time>2016-02-15T13:23:29Z</time>
      </trkpt>
      <trkpt lat="45.37001" lon="5.9083">
        <ele>1500.004796743</ele>
        <time>2016-02-15T13:23:38Z</time>
      </trkpt>
      <trkpt lat="45.37001" lon="5.9083">
        <ele>1500.004796743</ele>
        <time>2016-02-15T13:23:46Z</time>
      </trkpt>
      <trkpt lat="45.37001" lon="5.9083">
        <ele>1500.004796743</ele>
        <time>2016-02-15T13:24:01Z</time>
      </trkpt>
      <trkpt lat="45.37001" lon="5.9083">
        <ele>1500.004796743</ele>
        <time>2016-02-15T13:24:03Z</time>
      </trkpt>
      <trkpt lat="45.37003" lon="5.90836">
        <ele>1495.105980402</ele>
        <time>2016-02-15T13:24:12Z</time>
      </trkpt>
      <trkpt lat="45.37006" lon="5.90843">
        <ele>1495.105980402</ele>
        <time>2016-02-15T13:24:18Z</time>
      </trkpt>
      <trkpt lat="45.37009" lon="5.90865">
        <ele>1489.778524195</ele>
        <time>2016-02-15T13:24:33Z</time>
      </trkpt>
      <trkpt lat="45.37008" lon="5.90866">
        <ele>1489.778524195</ele>
        <time>2016-02-15T13:24:38Z</time>
      </trkpt>
      <trkpt lat="45.37008" lon="5.90867">
        <ele>1489.778524195</ele>
        <time>2016-02-15T13:24:48Z</time>
      </trkpt>
      <trkpt lat="45.37008" lon="5.90867">
        <ele>1489.778524195</ele>
        <time>2016-02-15T13:24:53Z</time>
      </trkpt>
      <trkpt lat="45.37008" lon="5.90868">
        <ele>1489.778524195</ele>
        <time>2016-02-15T13:25:02Z</time>
      </trkpt>
      <trkpt lat="45.37008" lon="5.90868">
        <ele>1489.778524195</ele>
        <time>2016-02-15T13:25:07Z</time>
      </trkpt>
      <trkpt lat="45.37008" lon="5.90868">
        <ele>1489.778524195</ele>
        <time>2016-02-15T13:25:12Z</time>
      </trkpt>
      <trkpt lat="45.37008" lon="5.90868">
        <ele>1489.778524195</ele>
        <time>2016-02-15T13:25:18Z</time>
      </trkpt>
      <trkpt lat="45.37008" lon="5.90868">
        <ele>1489.778524195</ele>
        <time>2016-02-15T13:25:28Z</time>
      </trkpt>
      <trkpt lat="45.37008" lon="5.90868">
        <ele>1489.778524195</ele>
        <time>2016-02-15T13:25:33Z</time>
      </trkpt>
      <trkpt lat="45.37008" lon="5.90868">
        <ele>1489.778524195</ele>
        <time>2016-02-15T13:25:49Z</time>
      </trkpt>
      <trkpt lat="45.36996" lon="5.9087">
        <ele>1484.346203544</ele>
        <time>2016-02-15T13:25:53Z</time>
      </trkpt>
      <trkpt lat="45.36995" lon="5.90867">
        <ele>1484.346203544</ele>
        <time>2016-02-15T13:26:02Z</time>
      </trkpt>
      <trkpt lat="45.36995" lon="5.90867">
        <ele>1484.346203544</ele>
        <time>2016-02-15T13:26:07Z</time>
      </trkpt>
      <trkpt lat="45.36995" lon="5.90867">
        <ele>1484.346203544</ele>
        <time>2016-02-15T13:26:18Z</time>
      </trkpt>
      <trkpt lat="45.36995" lon="5.90867">
        <ele>1484.346203544</ele>
        <time>2016-02-15T13:26:22Z</time>
      </trkpt>
      <trkpt lat="45.36995" lon="5.90867">
        <ele>1484.346203544</ele>
        <time>2016-02-15T13:26:33Z</time>
      </trkpt>
      <trkpt lat="45.36985" lon="5.9088">
        <ele>1478.964905558</ele>
        <time>2016-02-15T13:26:38Z</time>
      </trkpt>
      <trkpt lat="45.36981" lon="5.90885">
        <ele>1478.964905558</ele>
        <time>2016-02-15T13:26:48Z</time>
      </trkpt>
      <trkpt lat="45.36975" lon="5.90895">
        <ele>1472.62575552</ele>
        <time>2016-02-15T13:26:53Z</time>
      </trkpt>
      <trkpt lat="45.36967" lon="5.90906">
        <ele>1466.702185692</ele>
        <time>2016-02-15T13:27:03Z</time>
      </trkpt>
      <trkpt lat="45.36965" lon="5.90921">
        <ele>1461.312419134</ele>
        <time>2016-02-15T13:27:24Z</time>
      </trkpt>
      <trkpt lat="45.36965" lon="5.9092">
        <ele>1461.312419134</ele>
        <time>2016-02-15T13:27:24Z</time>
      </trkpt>
      <trkpt lat="45.36954" lon="5.90933">
        <ele>1456.420131549</ele>
        <time>2016-02-15T13:27:35Z</time>
      </trkpt>
      <trkpt lat="45.36957" lon="5.90936">
        <ele>1456.420131549</ele>
        <time>2016-02-15T13:27:42Z</time>
      </trkpt>
      <trkpt lat="45.36957" lon="5.90932">
        <ele>1456.420131549</ele>
        <time>2016-02-15T13:27:42Z</time>
      </trkpt>
      <trkpt lat="45.36951" lon="5.9094">
        <ele>1450.404802336</ele>
        <time>2016-02-15T13:27:58Z</time>
      </trkpt>
      <trkpt lat="45.36949" lon="5.90945">
        <ele>1450.404802336</ele>
        <time>2016-02-15T13:28:05Z</time>
      </trkpt>
      <trkpt lat="45.36945" lon="5.90947">
        <ele>1450.404802336</ele>
        <time>2016-02-15T13:28:19Z</time>
      </trkpt>
      <trkpt lat="45.36943" lon="5.90946">
        <ele>1444.794201949</ele>
        <time>2016-02-15T13:28:19Z</time>
      </trkpt>
      <trkpt lat="45.3694" lon="5.90948">
        <ele>1444.794201949</ele>
        <time>2016-02-15T13:28:38Z</time>
      </trkpt>
      <trkpt lat="45.3694" lon="5.90948">
        <ele>1444.794201949</ele>
        <time>2016-02-15T13:28:41Z</time>
      </trkpt>
      <trkpt lat="45.3694" lon="5.90948">
        <ele>1444.794201949</ele>
        <time>2016-02-15T13:28:52Z</time>
      </trkpt>
      <trkpt lat="45.36941" lon="5.90948">
        <ele>1444.794201949</ele>
        <time>2016-02-15T13:28:52Z</time>
      </trkpt>
      <trkpt lat="45.36941" lon="5.90948">
        <ele>1444.794201949</ele>
        <time>2016-02-15T13:28:59Z</time>
      </trkpt>
      <trkpt lat="45.36941" lon="5.90948">
        <ele>1444.794201949</ele>
        <time>2016-02-15T13:29:12Z</time>
      </trkpt>
      <trkpt lat="45.36932" lon="5.9097">
        <ele>1438.696730192</ele>
        <time>2016-02-15T13:29:52Z</time>
      </trkpt>
      <trkpt lat="45.36934" lon="5.90975">
        <ele>1438.696730192</ele>
        <time>2016-02-15T13:29:57Z</time>
      </trkpt>
      <trkpt lat="45.36932" lon="5.90977">
        <ele>1438.696730192</ele>
        <time>2016-02-15T13:30:12Z</time>
      </trkpt>
      <trkpt lat="45.36929" lon="5.90982">
        <ele>1430.999204075</ele>
        <time>2016-02-15T13:30:21Z</time>
      </trkpt>
      <trkpt lat="45.36929" lon="5.90983">
        <ele>1430.999204075</ele>
        <time>2016-02-15T13:30:22Z</time>
      </trkpt>
      <trkpt lat="45.36929" lon="5.90983">
        <ele>1430.999204075</ele>
        <time>2016-02-15T13:30:29Z</time>
      </trkpt>
      <trkpt lat="45.36929" lon="5.90983">
        <ele>1430.999204075</ele>
        <time>2016-02-15T13:30:48Z</time>
      </trkpt>
      <trkpt lat="45.36929" lon="5.90984">
        <ele>1430.999204075</ele>
        <time>2016-02-15T13:30:57Z</time>
      </trkpt>
      <trkpt lat="45.36929" lon="5.90984">
        <ele>1430.999204075</ele>
        <time>2016-02-15T13:31:03Z</time>
      </trkpt>
      <trkpt lat="45.36928" lon="5.90985">
        <ele>1430.999204075</ele>
        <time>2016-02-15T13:31:13Z</time>
      </trkpt>
      <trkpt lat="45.36928" lon="5.90985">
        <ele>1430.999204075</ele>
        <time>2016-02-15T13:31:18Z</time>
      </trkpt>
      <trkpt lat="45.36928" lon="5.90985">
        <ele>1430.999204075</ele>
        <time>2016-02-15T13:31:28Z</time>
      </trkpt>
      <trkpt lat="45.36928" lon="5.90985">
        <ele>1430.999204075</ele>
        <time>2016-02-15T13:31:33Z</time>
      </trkpt>
      <trkpt lat="45.36928" lon="5.90985">
        <ele>1430.999204075</ele>
        <time>2016-02-15T13:31:44Z</time>
      </trkpt>
      <trkpt lat="45.36928" lon="5.90985">
        <ele>1430.999204075</ele>
        <time>2016-02-15T13:31:47Z</time>
      </trkpt>
      <trkpt lat="45.36928" lon="5.90985">
        <ele>1430.999204075</ele>
        <time>2016-02-15T13:31:58Z</time>
      </trkpt>
      <trkpt lat="45.36928" lon="5.90985">
        <ele>1430.999204075</ele>
        <time>2016-02-15T13:32:03Z</time>
      </trkpt>
      <trkpt lat="45.36928" lon="5.90985">
        <ele>1430.999204075</ele>
        <time>2016-02-15T13:32:13Z</time>
      </trkpt>
      <trkpt lat="45.36928" lon="5.90985">
        <ele>1430.999204075</ele>
        <time>2016-02-15T13:32:18Z</time>
      </trkpt>
      <trkpt lat="45.36928" lon="5.90985">
        <ele>1430.999204075</ele>
        <time>2016-02-15T13:32:27Z</time>
      </trkpt>
      <trkpt lat="45.36928" lon="5.90985">
        <ele>1430.999204075</ele>
        <time>2016-02-15T13:32:43Z</time>
      </trkpt>
      <trkpt lat="45.36928" lon="5.90985">
        <ele>1430.999204075</ele>
        <time>2016-02-15T13:32:48Z</time>
      </trkpt>
      <trkpt lat="45.36928" lon="5.90985">
        <ele>1430.999204075</ele>
        <time>2016-02-15T13:33:02Z</time>
      </trkpt>
      <trkpt lat="45.36928" lon="5.90985">
        <ele>1430.999204075</ele>
        <time>2016-02-15T13:33:07Z</time>
      </trkpt>
      <trkpt lat="45.36928" lon="5.90985">
        <ele>1430.999204075</ele>
        <time>2016-02-15T13:33:17Z</time>
      </trkpt>
      <trkpt lat="45.36928" lon="5.90985">
        <ele>1430.999204075</ele>
        <time>2016-02-15T13:33:22Z</time>
      </trkpt>
      <trkpt lat="45.36928" lon="5.90985">
        <ele>1430.999204075</ele>
        <time>2016-02-15T13:33:33Z</time>
      </trkpt>
      <trkpt lat="45.36928" lon="5.90985">
        <ele>1430.999204075</ele>
        <time>2016-02-15T13:33:37Z</time>
      </trkpt>
      <trkpt lat="45.36928" lon="5.90985">
        <ele>1430.999204075</ele>
        <time>2016-02-15T13:33:48Z</time>
      </trkpt>
      <trkpt lat="45.36928" lon="5.90985">
        <ele>1430.999204075</ele>
        <time>2016-02-15T13:33:52Z</time>
      </trkpt>
      <trkpt lat="45.36928" lon="5.90985">
        <ele>1430.999204075</ele>
        <time>2016-02-15T13:34:03Z</time>
      </trkpt>
      <trkpt lat="45.36928" lon="5.90985">
        <ele>1430.999204075</ele>
        <time>2016-02-15T13:34:07Z</time>
      </trkpt>
      <trkpt lat="45.36928" lon="5.90985">
        <ele>1430.999204075</ele>
        <time>2016-02-15T13:34:17Z</time>
      </trkpt>
      <trkpt lat="45.36928" lon="5.90985">
        <ele>1430.999204075</ele>
        <time>2016-02-15T13:34:23Z</time>
      </trkpt>
      <trkpt lat="45.36928" lon="5.90985">
        <ele>1430.999204075</ele>
        <time>2016-02-15T13:34:33Z</time>
      </trkpt>
      <trkpt lat="45.36927" lon="5.90985">
        <ele>1430.999204075</ele>
        <time>2016-02-15T13:34:37Z</time>
      </trkpt>
      <trkpt lat="45.36927" lon="5.90985">
        <ele>1430.999204075</ele>
        <time>2016-02-15T13:34:42Z</time>
      </trkpt>
      <trkpt lat="45.36927" lon="5.90985">
        <ele>1430.999204075</ele>
        <time>2016-02-15T13:34:53Z</time>
      </trkpt>
      <trkpt lat="45.36927" lon="5.90985">
        <ele>1430.999204075</ele>
        <time>2016-02-15T13:34:58Z</time>
      </trkpt>
      <trkpt lat="45.36927" lon="5.90985">
        <ele>1430.999204075</ele>
        <time>2016-02-15T13:35:07Z</time>
      </trkpt>
      <trkpt lat="45.36927" lon="5.90985">
        <ele>1430.999204075</ele>
        <time>2016-02-15T13:35:28Z</time>
      </trkpt>
      <trkpt lat="45.36927" lon="5.90985">
        <ele>1430.999204075</ele>
        <time>2016-02-15T13:35:43Z</time>
      </trkpt>
      <trkpt lat="45.36927" lon="5.90985">
        <ele>1430.999204075</ele>
        <time>2016-02-15T13:35:46Z</time>
      </trkpt>
      <trkpt lat="45.36927" lon="5.90985">
        <ele>1430.999204075</ele>
        <time>2016-02-15T13:35:48Z</time>
      </trkpt>
      <trkpt lat="45.36927" lon="5.90985">
        <ele>1430.999204075</ele>
        <time>2016-02-15T13:36:06Z</time>
      </trkpt>
      <trkpt lat="45.36927" lon="5.90985">
        <ele>1430.999204075</ele>
        <time>2016-02-15T13:36:07Z</time>
      </trkpt>
      <trkpt lat="45.36927" lon="5.90985">
        <ele>1430.999204075</ele>
        <time>2016-02-15T13:36:40Z</time>
      </trkpt>
      <trkpt lat="45.36927" lon="5.90985">
        <ele>1430.999204075</ele>
        <time>2016-02-15T13:36:40Z</time>
      </trkpt>
      <trkpt lat="45.36927" lon="5.90985">
        <ele>1430.999204075</ele>
        <time>2016-02-15T13:37:06Z</time>
      </trkpt>
      <trkpt lat="45.36927" lon="5.90985">
        <ele>1430.999204075</ele>
        <time>2016-02-15T13:37:09Z</time>
      </trkpt>
      <trkpt lat="45.36927" lon="5.90985">
        <ele>1430.999204075</ele>
        <time>2016-02-15T13:37:42Z</time>
      </trkpt>
      <trkpt lat="45.36927" lon="5.90985">
        <ele>1430.999204075</ele>
        <time>2016-02-15T13:37:47Z</time>
      </trkpt>
      <trkpt lat="45.36927" lon="5.90985">
        <ele>1430.999204075</ele>
        <time>2016-02-15T13:38:04Z</time>
      </trkpt>
      <trkpt lat="45.36927" lon="5.90985">
        <ele>1430.999204075</ele>
        <time>2016-02-15T13:38:13Z</time>
      </trkpt>
      <trkpt lat="45.36927" lon="5.90985">
        <ele>1430.999204075</ele>
        <time>2016-02-15T13:38:17Z</time>
      </trkpt>
      <trkpt lat="45.36931" lon="5.90984">
        <ele>1430.999204075</ele>
        <time>2016-02-15T13:38:32Z</time>
      </trkpt>
      <trkpt lat="45.36931" lon="5.90984">
        <ele>1430.999204075</ele>
        <time>2016-02-15T13:38:38Z</time>
      </trkpt>
      <trkpt lat="45.3693" lon="5.90984">
        <ele>1430.999204075</ele>
        <time>2016-02-15T13:38:47Z</time>
      </trkpt>
      <trkpt lat="45.36931" lon="5.90997">
        <ele>1422.980259602</ele>
        <time>2016-02-15T13:38:52Z</time>
      </trkpt>
      <trkpt lat="45.36939" lon="5.90998">
        <ele>1422.980259602</ele>
        <time>2016-02-15T13:39:03Z</time>
      </trkpt>
      <trkpt lat="45.36941" lon="5.90999">
        <ele>1413.519500499</ele>
        <time>2016-02-15T13:39:08Z</time>
      </trkpt>
      <trkpt lat="45.36943" lon="5.91002">
        <ele>1413.519500499</ele>
        <time>2016-02-15T13:39:18Z</time>
      </trkpt>
      <trkpt lat="45.36929" lon="5.91012">
        <ele>1404.753087571</ele>
        <time>2016-02-15T13:39:33Z</time>
      </trkpt>
      <trkpt lat="45.36925" lon="5.91009">
        <ele>1404.753087571</ele>
        <time>2016-02-15T13:39:37Z</time>
      </trkpt>
      <trkpt lat="45.36912" lon="5.91008">
        <ele>1397.072841832</ele>
        <time>2016-02-15T13:39:48Z</time>
      </trkpt>
      <trkpt lat="45.36905" lon="5.91012">
        <ele>1397.072841832</ele>
        <time>2016-02-15T13:39:53Z</time>
      </trkpt>
      <trkpt lat="45.36894" lon="5.91029">
        <ele>1390.694387576</ele>
        <time>2016-02-15T13:40:08Z</time>
      </trkpt>
      <trkpt lat="45.36892" lon="5.91029">
        <ele>1390.694387576</ele>
        <time>2016-02-15T13:40:09Z</time>
      </trkpt>
      <trkpt lat="45.36873" lon="5.91022">
        <ele>1384.37248754</ele>
        <time>2016-02-15T13:40:29Z</time>
      </trkpt>
      <trkpt lat="45.36871" lon="5.91028">
        <ele>1384.37248754</ele>
        <time>2016-02-15T13:40:35Z</time>
      </trkpt>
      <trkpt lat="45.36865" lon="5.91028">
        <ele>1378.970523906</ele>
        <time>2016-02-15T13:40:41Z</time>
      </trkpt>
      <trkpt lat="45.36855" lon="5.9103">
        <ele>1374.420967913</ele>
        <time>2016-02-15T13:40:48Z</time>
      </trkpt>
      <trkpt lat="45.36845" lon="5.91032">
        <ele>1370.802750849</ele>
        <time>2016-02-15T13:40:57Z</time>
      </trkpt>
      <trkpt lat="45.36837" lon="5.91033">
        <ele>1370.802750849</ele>
        <time>2016-02-15T13:41:06Z</time>
      </trkpt>
      <trkpt lat="45.36825" lon="5.91031">
        <ele>1366.889194909</ele>
        <time>2016-02-15T13:41:21Z</time>
      </trkpt>
      <trkpt lat="45.36807" lon="5.91035">
        <ele>1362.841390569</ele>
        <time>2016-02-15T13:41:36Z</time>
      </trkpt>
      <trkpt lat="45.36801" lon="5.91029">
        <ele>1362.841390569</ele>
        <time>2016-02-15T13:41:39Z</time>
      </trkpt>
      <trkpt lat="45.36791" lon="5.9103">
        <ele>1359.241160496</ele>
        <time>2016-02-15T13:41:48Z</time>
      </trkpt>
      <trkpt lat="45.36784" lon="5.91026">
        <ele>1359.241160496</ele>
        <time>2016-02-15T13:41:52Z</time>
      </trkpt>
      <trkpt lat="45.3678" lon="5.91031">
        <ele>1356.193881392</ele>
        <time>2016-02-15T13:42:04Z</time>
      </trkpt>
      <trkpt lat="45.3678" lon="5.91031">
        <ele>1356.193881392</ele>
        <time>2016-02-15T13:42:08Z</time>
      </trkpt>
      <trkpt lat="45.36779" lon="5.91031">
        <ele>1356.193881392</ele>
        <time>2016-02-15T13:42:18Z</time>
      </trkpt>
      <trkpt lat="45.36772" lon="5.91029">
        <ele>1356.193881392</ele>
        <time>2016-02-15T13:42:23Z</time>
      </trkpt>
      <trkpt lat="45.36755" lon="5.91031">
        <ele>1353.219103774</ele>
        <time>2016-02-15T13:42:33Z</time>
      </trkpt>
      <trkpt lat="45.3675" lon="5.91032">
        <ele>1353.219103774</ele>
        <time>2016-02-15T13:42:37Z</time>
      </trkpt>
      <trkpt lat="45.36743" lon="5.91031">
        <ele>1350.880185425</ele>
        <time>2016-02-15T13:42:42Z</time>
      </trkpt>
      <trkpt lat="45.36739" lon="5.91033">
        <ele>1350.880185425</ele>
        <time>2016-02-15T13:42:47Z</time>
      </trkpt>
      <trkpt lat="45.36739" lon="5.91033">
        <ele>1350.880185425</ele>
        <time>2016-02-15T13:42:52Z</time>
      </trkpt>
      <trkpt lat="45.36738" lon="5.91034">
        <ele>1350.880185425</ele>
        <time>2016-02-15T13:42:57Z</time>
      </trkpt>
      <trkpt lat="45.36738" lon="5.91032">
        <ele>1350.880185425</ele>
        <time>2016-02-15T13:43:02Z</time>
      </trkpt>
      <trkpt lat="45.36738" lon="5.91032">
        <ele>1350.880185425</ele>
        <time>2016-02-15T13:43:07Z</time>
      </trkpt>
      <trkpt lat="45.36738" lon="5.91032">
        <ele>1350.880185425</ele>
        <time>2016-02-15T13:43:12Z</time>
      </trkpt>
      <trkpt lat="45.36738" lon="5.91033">
        <ele>1350.880185425</ele>
        <time>2016-02-15T13:43:17Z</time>
      </trkpt>
      <trkpt lat="45.36738" lon="5.91033">
        <ele>1350.880185425</ele>
        <time>2016-02-15T13:43:22Z</time>
      </trkpt>
      <trkpt lat="45.36738" lon="5.91033">
        <ele>1350.880185425</ele>
        <time>2016-02-15T13:43:32Z</time>
      </trkpt>
      <trkpt lat="45.36738" lon="5.91033">
        <ele>1350.880185425</ele>
        <time>2016-02-15T13:43:37Z</time>
      </trkpt>
      <trkpt lat="45.36738" lon="5.91033">
        <ele>1350.880185425</ele>
        <time>2016-02-15T13:43:47Z</time>
      </trkpt>
      <trkpt lat="45.36738" lon="5.91033">
        <ele>1350.880185425</ele>
        <time>2016-02-15T13:43:52Z</time>
      </trkpt>
      <trkpt lat="45.36738" lon="5.91033">
        <ele>1347.535615234</ele>
        <time>2016-02-15T13:44:02Z</time>
      </trkpt>
      <trkpt lat="45.36738" lon="5.91033">
        <ele>1347.535615234</ele>
        <time>2016-02-15T13:44:07Z</time>
      </trkpt>
      <trkpt lat="45.36738" lon="5.91033">
        <ele>1347.535615234</ele>
        <time>2016-02-15T13:44:22Z</time>
      </trkpt>
      <trkpt lat="45.36738" lon="5.91033">
        <ele>1347.535615234</ele>
        <time>2016-02-15T13:44:27Z</time>
      </trkpt>
      <trkpt lat="45.36738" lon="5.91033">
        <ele>1347.535615234</ele>
        <time>2016-02-15T13:44:38Z</time>
      </trkpt>
      <trkpt lat="45.36738" lon="5.91033">
        <ele>1347.535615234</ele>
        <time>2016-02-15T13:44:42Z</time>
      </trkpt>
      <trkpt lat="45.36738" lon="5.91033">
        <ele>1347.535615234</ele>
        <time>2016-02-15T13:44:52Z</time>
      </trkpt>
      <trkpt lat="45.36738" lon="5.91033">
        <ele>1347.535615234</ele>
        <time>2016-02-15T13:44:57Z</time>
      </trkpt>
      <trkpt lat="45.36738" lon="5.91033">
        <ele>1347.535615234</ele>
        <time>2016-02-15T13:45:07Z</time>
      </trkpt>
      <trkpt lat="45.36738" lon="5.91033">
        <ele>1347.535615234</ele>
        <time>2016-02-15T13:45:12Z</time>
      </trkpt>
      <trkpt lat="45.36721" lon="5.91035">
        <ele>1345.270061263</ele>
        <time>2016-02-15T13:45:22Z</time>
      </trkpt>
      <trkpt lat="45.3671" lon="5.9104">
        <ele>1343.562158395</ele>
        <time>2016-02-15T13:45:27Z</time>
      </trkpt>
      <trkpt lat="45.36695" lon="5.91043">
        <ele>1342.071437306</ele>
        <time>2016-02-15T13:45:37Z</time>
      </trkpt>
      <trkpt lat="45.36689" lon="5.91044">
        <ele>1342.071437306</ele>
        <time>2016-02-15T13:45:42Z</time>
      </trkpt>
      <trkpt lat="45.36666" lon="5.91053">
        <ele>1340.481907416</ele>
        <time>2016-02-15T13:45:57Z</time>
      </trkpt>
      <trkpt lat="45.36659" lon="5.91055">
        <ele>1340.481907416</ele>
        <time>2016-02-15T13:46:02Z</time>
      </trkpt>
      <trkpt lat="45.36648" lon="5.91057">
        <ele>1338.933506784</ele>
        <time>2016-02-15T13:46:12Z</time>
      </trkpt>
      <trkpt lat="45.36644" lon="5.91053">
        <ele>1338.933506784</ele>
        <time>2016-02-15T13:46:17Z</time>
      </trkpt>
      <trkpt lat="45.3664" lon="5.91046">
        <ele>1336.979465127</ele>
        <time>2016-02-15T13:46:27Z</time>
      </trkpt>
      <trkpt lat="45.36639" lon="5.91047">
        <ele>1336.979465127</ele>
        <time>2016-02-15T13:46:32Z</time>
      </trkpt>
      <trkpt lat="45.36639" lon="5.91047">
        <ele>1336.979465127</ele>
        <time>2016-02-15T13:46:42Z</time>
      </trkpt>
      <trkpt lat="45.36639" lon="5.91047">
        <ele>1336.979465127</ele>
        <time>2016-02-15T13:46:47Z</time>
      </trkpt>
      <trkpt lat="45.36639" lon="5.91047">
        <ele>1336.979465127</ele>
        <time>2016-02-15T13:46:57Z</time>
      </trkpt>
      <trkpt lat="45.36634" lon="5.91047">
        <ele>1336.979465127</ele>
        <time>2016-02-15T13:47:02Z</time>
      </trkpt>
      <trkpt lat="45.3661" lon="5.91048">
        <ele>1334.927679996</ele>
        <time>2016-02-15T13:47:12Z</time>
      </trkpt>
      <trkpt lat="45.36605" lon="5.91047">
        <ele>1334.927679996</ele>
        <time>2016-02-15T13:47:17Z</time>
      </trkpt>
      <trkpt lat="45.36589" lon="5.91048">
        <ele>1332.919768497</ele>
        <time>2016-02-15T13:47:27Z</time>
      </trkpt>
      <trkpt lat="45.36584" lon="5.91045">
        <ele>1332.919768497</ele>
        <time>2016-02-15T13:47:32Z</time>
      </trkpt>
      <trkpt lat="45.36574" lon="5.91036">
        <ele>1330.94290192</ele>
        <time>2016-02-15T13:47:42Z</time>
      </trkpt>
      <trkpt lat="45.36568" lon="5.91039">
        <ele>1330.94290192</ele>
        <time>2016-02-15T13:47:47Z</time>
      </trkpt>
      <trkpt lat="45.36549" lon="5.9104">
        <ele>1329.84998147</ele>
        <time>2016-02-15T13:47:57Z</time>
      </trkpt>
      <trkpt lat="45.3655" lon="5.91047">
        <ele>1329.84998147</ele>
        <time>2016-02-15T13:48:02Z</time>
      </trkpt>
      <trkpt lat="45.36534" lon="5.91039">
        <ele>1327.979106868</ele>
        <time>2016-02-15T13:48:17Z</time>
      </trkpt>
      <trkpt lat="45.36527" lon="5.91031">
        <ele>1327.979106868</ele>
        <time>2016-02-15T13:48:22Z</time>
      </trkpt>
      <trkpt lat="45.36512" lon="5.91027">
        <ele>1327.251547354</ele>
        <time>2016-02-15T13:48:32Z</time>
      </trkpt>
      <trkpt lat="45.36506" lon="5.91019">
        <ele>1327.251547354</ele>
        <time>2016-02-15T13:48:37Z</time>
      </trkpt>
      <trkpt lat="45.365" lon="5.91008">
        <ele>1324.688809832</ele>
        <time>2016-02-15T13:48:47Z</time>
      </trkpt>
      <trkpt lat="45.36496" lon="5.91006">
        <ele>1324.688809832</ele>
        <time>2016-02-15T13:48:52Z</time>
      </trkpt>
      <trkpt lat="45.36497" lon="5.91">
        <ele>1324.688809832</ele>
        <time>2016-02-15T13:49:02Z</time>
      </trkpt>
      <trkpt lat="45.36497" lon="5.91">
        <ele>1324.688809832</ele>
        <time>2016-02-15T13:49:07Z</time>
      </trkpt>
      <trkpt lat="45.36496" lon="5.90997">
        <ele>1322.436386549</ele>
        <time>2016-02-15T13:49:17Z</time>
      </trkpt>
      <trkpt lat="45.36496" lon="5.90997">
        <ele>1322.436386549</ele>
        <time>2016-02-15T13:49:22Z</time>
      </trkpt>
      <trkpt lat="45.36497" lon="5.90998">
        <ele>1322.436386549</ele>
        <time>2016-02-15T13:49:32Z</time>
      </trkpt>
      <trkpt lat="45.36496" lon="5.90998">
        <ele>1322.436386549</ele>
        <time>2016-02-15T13:49:37Z</time>
      </trkpt>
      <trkpt lat="45.3648" lon="5.91003">
        <ele>1321.184559582</ele>
        <time>2016-02-15T13:49:47Z</time>
      </trkpt>
      <trkpt lat="45.36477" lon="5.91002">
        <ele>1321.184559582</ele>
        <time>2016-02-15T13:49:52Z</time>
      </trkpt>
      <trkpt lat="45.36458" lon="5.91009">
        <ele>1319.120479307</ele>
        <time>2016-02-15T13:50:07Z</time>
      </trkpt>
      <trkpt lat="45.3644" lon="5.91022">
        <ele>1317.305134202</ele>
        <time>2016-02-15T13:50:22Z</time>
      </trkpt>
      <trkpt lat="45.36435" lon="5.91027">
        <ele>1317.305134202</ele>
        <time>2016-02-15T13:50:27Z</time>
      </trkpt>
      <trkpt lat="45.36428" lon="5.91039">
        <ele>1316.00060052</ele>
        <time>2016-02-15T13:50:38Z</time>
      </trkpt>
      <trkpt lat="45.36427" lon="5.91043">
        <ele>1316.00060052</ele>
        <time>2016-02-15T13:50:43Z</time>
      </trkpt>
      <trkpt lat="45.36423" lon="5.91056">
        <ele>1314.727999</ele>
        <time>2016-02-15T13:50:53Z</time>
      </trkpt>
      <trkpt lat="45.36416" lon="5.9106">
        <ele>1314.727999</ele>
        <time>2016-02-15T13:50:58Z</time>
      </trkpt>
      <trkpt lat="45.36412" lon="5.91073">
        <ele>1313.332049981</ele>
        <time>2016-02-15T13:51:09Z</time>
      </trkpt>
      <trkpt lat="45.36397" lon="5.91083">
        <ele>1311.813629693</ele>
        <time>2016-02-15T13:51:25Z</time>
      </trkpt>
      <trkpt lat="45.36392" lon="5.91083">
        <ele>1311.813629693</ele>
        <time>2016-02-15T13:51:30Z</time>
      </trkpt>
      <trkpt lat="45.36385" lon="5.91086">
        <ele>1309.885964968</ele>
        <time>2016-02-15T13:51:40Z</time>
      </trkpt>
      <trkpt lat="45.36383" lon="5.91086">
        <ele>1309.885964968</ele>
        <time>2016-02-15T13:51:40Z</time>
      </trkpt>
      <trkpt lat="45.36381" lon="5.91086">
        <ele>1309.885964968</ele>
        <time>2016-02-15T13:51:43Z</time>
      </trkpt>
      <trkpt lat="45.3637" lon="5.91089">
        <ele>1308.293569121</ele>
        <time>2016-02-15T13:51:53Z</time>
      </trkpt>
      <trkpt lat="45.3636" lon="5.91094">
        <ele>1307.005060825</ele>
        <time>2016-02-15T13:51:58Z</time>
      </trkpt>
      <trkpt lat="45.36353" lon="5.91098">
        <ele>1307.005060825</ele>
        <time>2016-02-15T13:52:08Z</time>
      </trkpt>
      <trkpt lat="45.36345" lon="5.91102">
        <ele>1306.567249326</ele>
        <time>2016-02-15T13:52:13Z</time>
      </trkpt>
      <trkpt lat="45.36334" lon="5.91107">
        <ele>1306.475905638</ele>
        <time>2016-02-15T13:52:23Z</time>
      </trkpt>
      <trkpt lat="45.3633" lon="5.91105">
        <ele>1306.475905638</ele>
        <time>2016-02-15T13:52:27Z</time>
      </trkpt>
      <trkpt lat="45.36323" lon="5.91112">
        <ele>1306.26316745</ele>
        <time>2016-02-15T13:52:33Z</time>
      </trkpt>
      <trkpt lat="45.36311" lon="5.91115">
        <ele>1306.649075572</ele>
        <time>2016-02-15T13:52:42Z</time>
      </trkpt>
      <trkpt lat="45.36293" lon="5.91121">
        <ele>1306.281851497</ele>
        <time>2016-02-15T13:52:58Z</time>
      </trkpt>
      <trkpt lat="45.36285" lon="5.91119">
        <ele>1306.281851497</ele>
        <time>2016-02-15T13:53:03Z</time>
      </trkpt>
      <trkpt lat="45.36262" lon="5.91116">
        <ele>1304.920221804</ele>
        <time>2016-02-15T13:53:27Z</time>
      </trkpt>
      <trkpt lat="45.36243" lon="5.91125">
        <ele>1303.496629115</ele>
        <time>2016-02-15T13:53:45Z</time>
      </trkpt>
      <trkpt lat="45.36241" lon="5.91126">
        <ele>1303.496629115</ele>
        <time>2016-02-15T13:53:47Z</time>
      </trkpt>
      <trkpt lat="45.3623" lon="5.91127">
        <ele>1302.154947035</ele>
        <time>2016-02-15T13:53:58Z</time>
      </trkpt>
      <trkpt lat="45.36229" lon="5.91126">
        <ele>1302.154947035</ele>
        <time>2016-02-15T13:53:59Z</time>
      </trkpt>
      <trkpt lat="45.36225" lon="5.91125">
        <ele>1302.154947035</ele>
        <time>2016-02-15T13:54:06Z</time>
      </trkpt>
      <trkpt lat="45.36181" lon="5.9112">
        <ele>1298.866882006</ele>
        <time>2016-02-15T13:54:40Z</time>
      </trkpt>
      <trkpt lat="45.36182" lon="5.9112">
        <ele>1298.866882006</ele>
        <time>2016-02-15T13:54:42Z</time>
      </trkpt>
      <trkpt lat="45.36182" lon="5.9112">
        <ele>1298.866882006</ele>
        <time>2016-02-15T13:54:52Z</time>
      </trkpt>
      <trkpt lat="45.36182" lon="5.9112">
        <ele>1298.866882006</ele>
        <time>2016-02-15T13:54:57Z</time>
      </trkpt>
      <trkpt lat="45.36182" lon="5.9112">
        <ele>1298.866882006</ele>
        <time>2016-02-15T13:55:07Z</time>
      </trkpt>
      <trkpt lat="45.36182" lon="5.9112">
        <ele>1298.866882006</ele>
        <time>2016-02-15T13:55:12Z</time>
      </trkpt>
      <trkpt lat="45.36182" lon="5.9112">
        <ele>1298.866882006</ele>
        <time>2016-02-15T13:55:24Z</time>
      </trkpt>
      <trkpt lat="45.36182" lon="5.9112">
        <ele>1298.866882006</ele>
        <time>2016-02-15T13:55:27Z</time>
      </trkpt>
      <trkpt lat="45.36182" lon="5.9112">
        <ele>1298.866882006</ele>
        <time>2016-02-15T13:55:38Z</time>
      </trkpt>
      <trkpt lat="45.36182" lon="5.9112">
        <ele>1298.866882006</ele>
        <time>2016-02-15T13:55:43Z</time>
      </trkpt>
      <trkpt lat="45.36182" lon="5.9112">
        <ele>1298.866882006</ele>
        <time>2016-02-15T13:55:58Z</time>
      </trkpt>
      <trkpt lat="45.36181" lon="5.9112">
        <ele>1298.866882006</ele>
        <time>2016-02-15T13:56:12Z</time>
      </trkpt>
      <trkpt lat="45.36179" lon="5.9112">
        <ele>1298.866882006</ele>
        <time>2016-02-15T13:56:17Z</time>
      </trkpt>
      <trkpt lat="45.36175" lon="5.91125">
        <ele>1295.79399522</ele>
        <time>2016-02-15T13:56:29Z</time>
      </trkpt>
      <trkpt lat="45.3616" lon="5.91126">
        <ele>1292.34472249</ele>
        <time>2016-02-15T13:56:43Z</time>
      </trkpt>
      <trkpt lat="45.36153" lon="5.91125">
        <ele>1292.34472249</ele>
        <time>2016-02-15T13:56:47Z</time>
      </trkpt>
      <trkpt lat="45.36143" lon="5.91128">
        <ele>1288.981034427</ele>
        <time>2016-02-15T13:56:58Z</time>
      </trkpt>
      <trkpt lat="45.36144" lon="5.91131">
        <ele>1288.981034427</ele>
        <time>2016-02-15T13:57:03Z</time>
      </trkpt>
      <trkpt lat="45.36144" lon="5.91133">
        <ele>1288.981034427</ele>
        <time>2016-02-15T13:57:13Z</time>
      </trkpt>
      <trkpt lat="45.36143" lon="5.91132">
        <ele>1288.981034427</ele>
        <time>2016-02-15T13:57:18Z</time>
      </trkpt>
      <trkpt lat="45.36143" lon="5.91136">
        <ele>1288.981034427</ele>
        <time>2016-02-15T13:57:28Z</time>
      </trkpt>
      <trkpt lat="45.36143" lon="5.91136">
        <ele>1288.981034427</ele>
        <time>2016-02-15T13:57:32Z</time>
      </trkpt>
      <trkpt lat="45.36143" lon="5.91136">
        <ele>1288.981034427</ele>
        <time>2016-02-15T13:57:43Z</time>
      </trkpt>
      <trkpt lat="45.36139" lon="5.91139">
        <ele>1285.554502039</ele>
        <time>2016-02-15T13:57:48Z</time>
      </trkpt>
      <trkpt lat="45.36121" lon="5.91145">
        <ele>1282.792642732</ele>
        <time>2016-02-15T13:57:58Z</time>
      </trkpt>
      <trkpt lat="45.36117" lon="5.91143">
        <ele>1282.792642732</ele>
        <time>2016-02-15T13:58:03Z</time>
      </trkpt>
      <trkpt lat="45.36104" lon="5.9114">
        <ele>1279.206176799</ele>
        <time>2016-02-15T13:58:13Z</time>
      </trkpt>
      <trkpt lat="45.36084" lon="5.91139">
        <ele>1275.723475997</ele>
        <time>2016-02-15T13:58:30Z</time>
      </trkpt>
      <trkpt lat="45.36077" lon="5.91139">
        <ele>1275.723475997</ele>
        <time>2016-02-15T13:58:48Z</time>
      </trkpt>
      <trkpt lat="45.36062" lon="5.91142">
        <ele>1271.763449441</ele>
        <time>2016-02-15T13:58:49Z</time>
      </trkpt>
      <trkpt lat="45.36057" lon="5.9114">
        <ele>1271.763449441</ele>
        <time>2016-02-15T13:58:54Z</time>
      </trkpt>
      <trkpt lat="45.36045" lon="5.91144">
        <ele>1267.942039004</ele>
        <time>2016-02-15T13:59:08Z</time>
      </trkpt>
      <trkpt lat="45.36038" lon="5.91151">
        <ele>1267.942039004</ele>
        <time>2016-02-15T13:59:17Z</time>
      </trkpt>
      <trkpt lat="45.3603" lon="5.91145">
        <ele>1264.397315236</ele>
        <time>2016-02-15T13:59:25Z</time>
      </trkpt>
      <trkpt lat="45.36026" lon="5.91141">
        <ele>1264.397315236</ele>
        <time>2016-02-15T13:59:32Z</time>
      </trkpt>
      <trkpt lat="45.36015" lon="5.9114">
        <ele>1260.968286589</ele>
        <time>2016-02-15T13:59:49Z</time>
      </trkpt>
      <trkpt lat="45.36009" lon="5.91145">
        <ele>1260.968286589</ele>
        <time>2016-02-15T13:59:49Z</time>
      </trkpt>
      <trkpt lat="45.36004" lon="5.91143">
        <ele>1257.793747881</ele>
        <time>2016-02-15T13:59:54Z</time>
      </trkpt>
      <trkpt lat="45.35994" lon="5.91147">
        <ele>1254.569298522</ele>
        <time>2016-02-15T14:00:08Z</time>
      </trkpt>
      <trkpt lat="45.35964" lon="5.91164">
        <ele>1251.013073821</ele>
        <time>2016-02-15T14:00:33Z</time>
      </trkpt>
      <trkpt lat="45.35954" lon="5.91165">
        <ele>1247.441312871</ele>
        <time>2016-02-15T14:00:50Z</time>
      </trkpt>
      <trkpt lat="45.35948" lon="5.91172">
        <ele>1247.441312871</ele>
        <time>2016-02-15T14:01:08Z</time>
      </trkpt>
      <trkpt lat="45.35949" lon="5.91171">
        <ele>1247.441312871</ele>
        <time>2016-02-15T14:01:18Z</time>
      </trkpt>
      <trkpt lat="45.35947" lon="5.91175">
        <ele>1243.570633563</ele>
        <time>2016-02-15T14:01:24Z</time>
      </trkpt>
      <trkpt lat="45.3593" lon="5.91201">
        <ele>1239.859863733</ele>
        <time>2016-02-15T14:01:38Z</time>
      </trkpt>
      <trkpt lat="45.35925" lon="5.91208">
        <ele>1239.859863733</ele>
        <time>2016-02-15T14:01:42Z</time>
      </trkpt>
      <trkpt lat="45.35915" lon="5.91216">
        <ele>1235.724884879</ele>
        <time>2016-02-15T14:01:52Z</time>
      </trkpt>
      <trkpt lat="45.35911" lon="5.91226">
        <ele>1235.724884879</ele>
        <time>2016-02-15T14:01:58Z</time>
      </trkpt>
      <trkpt lat="45.35904" lon="5.91235">
        <ele>1232.499097253</ele>
        <time>2016-02-15T14:02:08Z</time>
      </trkpt>
      <trkpt lat="45.35902" lon="5.91234">
        <ele>1232.499097253</ele>
        <time>2016-02-15T14:02:13Z</time>
      </trkpt>
      <trkpt lat="45.35876" lon="5.91244">
        <ele>1227.092025623</ele>
        <time>2016-02-15T14:02:51Z</time>
      </trkpt>
      <trkpt lat="45.35858" lon="5.91259">
        <ele>1222.266621542</ele>
        <time>2016-02-15T14:03:13Z</time>
      </trkpt>
      <trkpt lat="45.35857" lon="5.91262">
        <ele>1222.266621542</ele>
        <time>2016-02-15T14:03:13Z</time>
      </trkpt>
      <trkpt lat="45.35842" lon="5.91265">
        <ele>1217.122504606</ele>
        <time>2016-02-15T14:03:28Z</time>
      </trkpt>
      <trkpt lat="45.35841" lon="5.91275">
        <ele>1217.122504606</ele>
        <time>2016-02-15T14:03:33Z</time>
      </trkpt>
      <trkpt lat="45.35841" lon="5.91278">
        <ele>1211.835024353</ele>
        <time>2016-02-15T14:03:43Z</time>
      </trkpt>
      <trkpt lat="45.35838" lon="5.9128">
        <ele>1211.835024353</ele>
        <time>2016-02-15T14:03:48Z</time>
      </trkpt>
      <trkpt lat="45.35834" lon="5.91288">
        <ele>1207.287507358</ele>
        <time>2016-02-15T14:03:58Z</time>
      </trkpt>
      <trkpt lat="45.35833" lon="5.91285">
        <ele>1207.287507358</ele>
        <time>2016-02-15T14:04:03Z</time>
      </trkpt>
      <trkpt lat="45.35828" lon="5.91288">
        <ele>1207.287507358</ele>
        <time>2016-02-15T14:04:14Z</time>
      </trkpt>
      <trkpt lat="45.35822" lon="5.91278">
        <ele>1202.710979163</ele>
        <time>2016-02-15T14:04:17Z</time>
      </trkpt>
      <trkpt lat="45.35817" lon="5.91291">
        <ele>1197.82524266</ele>
        <time>2016-02-15T14:04:28Z</time>
      </trkpt>
      <trkpt lat="45.35814" lon="5.91294">
        <ele>1197.82524266</ele>
        <time>2016-02-15T14:04:33Z</time>
      </trkpt>
      <trkpt lat="45.35806" lon="5.9131">
        <ele>1192.659637085</ele>
        <time>2016-02-15T14:04:47Z</time>
      </trkpt>
      <trkpt lat="45.35792" lon="5.91316">
        <ele>1187.818430825</ele>
        <time>2016-02-15T14:05:02Z</time>
      </trkpt>
      <trkpt lat="45.35788" lon="5.91317">
        <ele>1187.818430825</ele>
        <time>2016-02-15T14:05:08Z</time>
      </trkpt>
      <trkpt lat="45.35778" lon="5.9132">
        <ele>1183.572217804</ele>
        <time>2016-02-15T14:05:18Z</time>
      </trkpt>
      <trkpt lat="45.35774" lon="5.91311">
        <ele>1183.572217804</ele>
        <time>2016-02-15T14:05:24Z</time>
      </trkpt>
      <trkpt lat="45.35763" lon="5.91323">
        <ele>1179.016996401</ele>
        <time>2016-02-15T14:05:33Z</time>
      </trkpt>
      <trkpt lat="45.3576" lon="5.91327">
        <ele>1179.016996401</ele>
        <time>2016-02-15T14:05:38Z</time>
      </trkpt>
      <trkpt lat="45.35751" lon="5.91331">
        <ele>1175.333433251</ele>
        <time>2016-02-15T14:05:49Z</time>
      </trkpt>
      <trkpt lat="45.35749" lon="5.9133">
        <ele>1175.333433251</ele>
        <time>2016-02-15T14:05:53Z</time>
      </trkpt>
      <trkpt lat="45.35746" lon="5.91329">
        <ele>1175.333433251</ele>
        <time>2016-02-15T14:06:03Z</time>
      </trkpt>
      <trkpt lat="45.35742" lon="5.91331">
        <ele>1171.739411206</ele>
        <time>2016-02-15T14:06:09Z</time>
      </trkpt>
      <trkpt lat="45.35737" lon="5.91342">
        <ele>1167.798077921</ele>
        <time>2016-02-15T14:06:17Z</time>
      </trkpt>
      <trkpt lat="45.35728" lon="5.91349">
        <ele>1163.970156694</ele>
        <time>2016-02-15T14:06:24Z</time>
      </trkpt>
      <trkpt lat="45.35722" lon="5.9136">
        <ele>1160.249722938</ele>
        <time>2016-02-15T14:06:33Z</time>
      </trkpt>
      <trkpt lat="45.35721" lon="5.91364">
        <ele>1160.249722938</ele>
        <time>2016-02-15T14:06:38Z</time>
      </trkpt>
      <trkpt lat="45.35718" lon="5.91378">
        <ele>1157.063173124</ele>
        <time>2016-02-15T14:06:48Z</time>
      </trkpt>
      <trkpt lat="45.35717" lon="5.91381">
        <ele>1157.063173124</ele>
        <time>2016-02-15T14:06:53Z</time>
      </trkpt>
      <trkpt lat="45.35715" lon="5.91396">
        <ele>1154.083387931</ele>
        <time>2016-02-15T14:07:03Z</time>
      </trkpt>
      <trkpt lat="45.35713" lon="5.91402">
        <ele>1154.083387931</ele>
        <time>2016-02-15T14:07:08Z</time>
      </trkpt>
      <trkpt lat="45.35715" lon="5.91413">
        <ele>1150.718343931</ele>
        <time>2016-02-15T14:07:18Z</time>
      </trkpt>
      <trkpt lat="45.35716" lon="5.91418">
        <ele>1150.718343931</ele>
        <time>2016-02-15T14:07:23Z</time>
      </trkpt>
      <trkpt lat="45.35717" lon="5.91438">
        <ele>1147.141020502</ele>
        <time>2016-02-15T14:07:38Z</time>
      </trkpt>
      <trkpt lat="45.35714" lon="5.91443">
        <ele>1147.141020502</ele>
        <time>2016-02-15T14:07:43Z</time>
      </trkpt>
      <trkpt lat="45.35711" lon="5.91457">
        <ele>1143.656281469</ele>
        <time>2016-02-15T14:07:53Z</time>
      </trkpt>
      <trkpt lat="45.3571" lon="5.9146">
        <ele>1143.656281469</ele>
        <time>2016-02-15T14:07:58Z</time>
      </trkpt>
      <trkpt lat="45.35706" lon="5.91466">
        <ele>1143.656281469</ele>
        <time>2016-02-15T14:08:09Z</time>
      </trkpt>
      <trkpt lat="45.35706" lon="5.91466">
        <ele>1143.656281469</ele>
        <time>2016-02-15T14:08:13Z</time>
      </trkpt>
      <trkpt lat="45.35705" lon="5.91475">
        <ele>1139.969782667</ele>
        <time>2016-02-15T14:08:23Z</time>
      </trkpt>
      <trkpt lat="45.35705" lon="5.91483">
        <ele>1139.969782667</ele>
        <time>2016-02-15T14:08:27Z</time>
      </trkpt>
      <trkpt lat="45.35707" lon="5.91496">
        <ele>1135.3769303</ele>
        <time>2016-02-15T14:08:38Z</time>
      </trkpt>
      <trkpt lat="45.35707" lon="5.91503">
        <ele>1135.3769303</ele>
        <time>2016-02-15T14:08:43Z</time>
      </trkpt>
      <trkpt lat="45.35713" lon="5.91515">
        <ele>1130.956664296</ele>
        <time>2016-02-15T14:08:52Z</time>
      </trkpt>
      <trkpt lat="45.35716" lon="5.91521">
        <ele>1130.956664296</ele>
        <time>2016-02-15T14:08:58Z</time>
      </trkpt>
      <trkpt lat="45.35718" lon="5.91526">
        <ele>1126.84341454</ele>
        <time>2016-02-15T14:09:08Z</time>
      </trkpt>
      <trkpt lat="45.35718" lon="5.91531">
        <ele>1126.84341454</ele>
        <time>2016-02-15T14:09:13Z</time>
      </trkpt>
      <trkpt lat="45.35722" lon="5.91536">
        <ele>1126.84341454</ele>
        <time>2016-02-15T14:09:23Z</time>
      </trkpt>
      <trkpt lat="45.3572" lon="5.91538">
        <ele>1122.151994935</ele>
        <time>2016-02-15T14:09:27Z</time>
      </trkpt>
      <trkpt lat="45.35719" lon="5.91545">
        <ele>1122.151994935</ele>
        <time>2016-02-15T14:09:32Z</time>
      </trkpt>
      <trkpt lat="45.35716" lon="5.91559">
        <ele>1117.648986864</ele>
        <time>2016-02-15T14:09:42Z</time>
      </trkpt>
      <trkpt lat="45.35718" lon="5.91561">
        <ele>1117.648986864</ele>
        <time>2016-02-15T14:09:47Z</time>
      </trkpt>
      <trkpt lat="45.3572" lon="5.91571">
        <ele>1112.89113739</ele>
        <time>2016-02-15T14:09:57Z</time>
      </trkpt>
      <trkpt lat="45.35721" lon="5.91577">
        <ele>1112.89113739</ele>
        <time>2016-02-15T14:10:02Z</time>
      </trkpt>
      <trkpt lat="45.35724" lon="5.91587">
        <ele>1108.477142973</ele>
        <time>2016-02-15T14:10:13Z</time>
      </trkpt>
      <trkpt lat="45.35724" lon="5.91591">
        <ele>1108.477142973</ele>
        <time>2016-02-15T14:10:17Z</time>
      </trkpt>
      <trkpt lat="45.35723" lon="5.916">
        <ele>1104.095982808</ele>
        <time>2016-02-15T14:10:30Z</time>
      </trkpt>
      <trkpt lat="45.35723" lon="5.9161">
        <ele>1104.095982808</ele>
        <time>2016-02-15T14:10:32Z</time>
      </trkpt>
      <trkpt lat="45.3572" lon="5.91619">
        <ele>1099.315173683</ele>
        <time>2016-02-15T14:10:42Z</time>
      </trkpt>
      <trkpt lat="45.3572" lon="5.91627">
        <ele>1099.315173683</ele>
        <time>2016-02-15T14:10:47Z</time>
      </trkpt>
      <trkpt lat="45.35722" lon="5.91637">
        <ele>1094.887906356</ele>
        <time>2016-02-15T14:10:59Z</time>
      </trkpt>
      <trkpt lat="45.35722" lon="5.91644">
        <ele>1094.887906356</ele>
        <time>2016-02-15T14:11:03Z</time>
      </trkpt>
      <trkpt lat="45.35727" lon="5.91664">
        <ele>1090.502166882</ele>
        <time>2016-02-15T14:11:18Z</time>
      </trkpt>
      <trkpt lat="45.35728" lon="5.91667">
        <ele>1090.502166882</ele>
        <time>2016-02-15T14:11:23Z</time>
      </trkpt>
      <trkpt lat="45.35729" lon="5.91677">
        <ele>1086.300974157</ele>
        <time>2016-02-15T14:11:33Z</time>
      </trkpt>
      <trkpt lat="45.35729" lon="5.91682">
        <ele>1086.300974157</ele>
        <time>2016-02-15T14:11:38Z</time>
      </trkpt>
      <trkpt lat="45.35734" lon="5.91687">
        <ele>1081.839775642</ele>
        <time>2016-02-15T14:11:48Z</time>
      </trkpt>
      <trkpt lat="45.35735" lon="5.91693">
        <ele>1081.839775642</ele>
        <time>2016-02-15T14:11:53Z</time>
      </trkpt>
      <trkpt lat="45.35737" lon="5.91702">
        <ele>1077.283748609</ele>
        <time>2016-02-15T14:12:02Z</time>
      </trkpt>
      <trkpt lat="45.35739" lon="5.91707">
        <ele>1077.283748609</ele>
        <time>2016-02-15T14:12:08Z</time>
      </trkpt>
      <trkpt lat="45.3574" lon="5.91721">
        <ele>1072.78610388</ele>
        <time>2016-02-15T14:12:18Z</time>
      </trkpt>
      <trkpt lat="45.35738" lon="5.91726">
        <ele>1072.78610388</ele>
        <time>2016-02-15T14:12:23Z</time>
      </trkpt>
      <trkpt lat="45.35737" lon="5.91738">
        <ele>1068.200314501</ele>
        <time>2016-02-15T14:12:33Z</time>
      </trkpt>
      <trkpt lat="45.35733" lon="5.91746">
        <ele>1068.200314501</ele>
        <time>2016-02-15T14:12:37Z</time>
      </trkpt>
      <trkpt lat="45.35728" lon="5.91753">
        <ele>1063.534880101</ele>
        <time>2016-02-15T14:12:48Z</time>
      </trkpt>
      <trkpt lat="45.35723" lon="5.91764">
        <ele>1059.518361813</ele>
        <time>2016-02-15T14:12:53Z</time>
      </trkpt>
      <trkpt lat="45.35721" lon="5.91766">
        <ele>1059.518361813</ele>
        <time>2016-02-15T14:13:03Z</time>
      </trkpt>
      <trkpt lat="45.35722" lon="5.91765">
        <ele>1059.518361813</ele>
        <time>2016-02-15T14:13:08Z</time>
      </trkpt>
      <trkpt lat="45.35722" lon="5.91765">
        <ele>1059.518361813</ele>
        <time>2016-02-15T14:13:18Z</time>
      </trkpt>
      <trkpt lat="45.35722" lon="5.91765">
        <ele>1059.518361813</ele>
        <time>2016-02-15T14:13:23Z</time>
      </trkpt>
      <trkpt lat="45.35722" lon="5.91784">
        <ele>1055.526889853</ele>
        <time>2016-02-15T14:13:37Z</time>
      </trkpt>
      <trkpt lat="45.35721" lon="5.91791">
        <ele>1055.526889853</ele>
        <time>2016-02-15T14:13:43Z</time>
      </trkpt>
      <trkpt lat="45.35713" lon="5.91805">
        <ele>1052.279268888</ele>
        <time>2016-02-15T14:13:53Z</time>
      </trkpt>
      <trkpt lat="45.35708" lon="5.91808">
        <ele>1052.279268888</ele>
        <time>2016-02-15T14:13:58Z</time>
      </trkpt>
      <trkpt lat="45.35704" lon="5.91813">
        <ele>1048.710001976</ele>
        <time>2016-02-15T14:14:09Z</time>
      </trkpt>
      <trkpt lat="45.35701" lon="5.91817">
        <ele>1048.710001976</ele>
        <time>2016-02-15T14:14:13Z</time>
      </trkpt>
      <trkpt lat="45.35689" lon="5.91828">
        <ele>1046.426699284</ele>
        <time>2016-02-15T14:14:24Z</time>
      </trkpt>
      <trkpt lat="45.35685" lon="5.91829">
        <ele>1046.426699284</ele>
        <time>2016-02-15T14:14:28Z</time>
      </trkpt>
      <trkpt lat="45.35678" lon="5.91833">
        <ele>1044.897660265</ele>
        <time>2016-02-15T14:14:38Z</time>
      </trkpt>
      <trkpt lat="45.35674" lon="5.91825">
        <ele>1044.897660265</ele>
        <time>2016-02-15T14:14:42Z</time>
      </trkpt>
      <trkpt lat="45.35667" lon="5.91841">
        <ele>1044.060426079</ele>
        <time>2016-02-15T14:14:52Z</time>
      </trkpt>
      <trkpt lat="45.35654" lon="5.91841">
        <ele>1041.981725575</ele>
        <time>2016-02-15T14:14:57Z</time>
      </trkpt>
      <trkpt lat="45.35648" lon="5.91847">
        <ele>1041.981725575</ele>
        <time>2016-02-15T14:15:07Z</time>
      </trkpt>
      <trkpt lat="45.35641" lon="5.91851">
        <ele>1041.19713107</ele>
        <time>2016-02-15T14:15:12Z</time>
      </trkpt>
      <trkpt lat="45.35627" lon="5.91858">
        <ele>1040.737798672</ele>
        <time>2016-02-15T14:15:22Z</time>
      </trkpt>
      <trkpt lat="45.3562" lon="5.91865">
        <ele>1040.737798672</ele>
        <time>2016-02-15T14:15:27Z</time>
      </trkpt>
      <trkpt lat="45.35607" lon="5.91874">
        <ele>1041.14631197</ele>
        <time>2016-02-15T14:15:45Z</time>
      </trkpt>
      <trkpt lat="45.35587" lon="5.91882">
        <ele>1041.914267747</ele>
        <time>2016-02-15T14:15:58Z</time>
      </trkpt>
      <trkpt lat="45.35584" lon="5.91888">
        <ele>1041.914267747</ele>
        <time>2016-02-15T14:16:02Z</time>
      </trkpt>
      <trkpt lat="45.35587" lon="5.9191">
        <ele>1043.290270771</ele>
        <time>2016-02-15T14:16:13Z</time>
      </trkpt>
      <trkpt lat="45.35588" lon="5.91913">
        <ele>1043.290270771</ele>
        <time>2016-02-15T14:16:17Z</time>
      </trkpt>
      <trkpt lat="45.35588" lon="5.91913">
        <ele>1043.290270771</ele>
        <time>2016-02-15T14:16:30Z</time>
      </trkpt>
      <trkpt lat="45.35588" lon="5.91913">
        <ele>1043.290270771</ele>
        <time>2016-02-15T14:16:32Z</time>
      </trkpt>
      <trkpt lat="45.35588" lon="5.91913">
        <ele>1043.290270771</ele>
        <time>2016-02-15T14:16:43Z</time>
      </trkpt>
      <trkpt lat="45.35588" lon="5.91913">
        <ele>1043.290270771</ele>
        <time>2016-02-15T14:16:48Z</time>
      </trkpt>
      <trkpt lat="45.3559" lon="5.91914">
        <ele>1043.290270771</ele>
        <time>2016-02-15T14:16:58Z</time>
      </trkpt>
      <trkpt lat="45.3559" lon="5.91913">
        <ele>1043.290270771</ele>
        <time>2016-02-15T14:17:03Z</time>
      </trkpt>
      <trkpt lat="45.35591" lon="5.91913">
        <ele>1043.290270771</ele>
        <time>2016-02-15T14:17:13Z</time>
      </trkpt>
      <trkpt lat="45.35591" lon="5.91913">
        <ele>1043.290270771</ele>
        <time>2016-02-15T14:17:18Z</time>
      </trkpt>
      <trkpt lat="45.35591" lon="5.91913">
        <ele>1043.290270771</ele>
        <time>2016-02-15T14:17:28Z</time>
      </trkpt>
      <trkpt lat="45.35591" lon="5.91913">
        <ele>1043.290270771</ele>
        <time>2016-02-15T14:17:33Z</time>
      </trkpt>
      <trkpt lat="45.35591" lon="5.91913">
        <ele>1043.290270771</ele>
        <time>2016-02-15T14:17:37Z</time>
      </trkpt>
      <trkpt lat="45.35591" lon="5.91913">
        <ele>1043.290270771</ele>
        <time>2016-02-15T14:17:49Z</time>
      </trkpt>
      <trkpt lat="45.35591" lon="5.91913">
        <ele>1043.290270771</ele>
        <time>2016-02-15T14:17:52Z</time>
      </trkpt>
      <trkpt lat="45.35591" lon="5.91913">
        <ele>1043.290270771</ele>
        <time>2016-02-15T14:18:02Z</time>
      </trkpt>
      <trkpt lat="45.3559" lon="5.91912">
        <ele>1043.290270771</ele>
        <time>2016-02-15T14:18:07Z</time>
      </trkpt>
      <trkpt lat="45.3559" lon="5.91912">
        <ele>1043.290270771</ele>
        <time>2016-02-15T14:18:22Z</time>
      </trkpt>
      <trkpt lat="45.3559" lon="5.9191">
        <ele>1043.290270771</ele>
        <time>2016-02-15T14:18:37Z</time>
      </trkpt>
      <trkpt lat="45.35592" lon="5.91909">
        <ele>1044.49432355</ele>
        <time>2016-02-15T14:18:43Z</time>
      </trkpt>
      <trkpt lat="45.35592" lon="5.9191">
        <ele>1044.49432355</ele>
        <time>2016-02-15T14:18:53Z</time>
      </trkpt>
      <trkpt lat="45.35592" lon="5.9191">
        <ele>1044.49432355</ele>
        <time>2016-02-15T14:18:58Z</time>
      </trkpt>
      <trkpt lat="45.35592" lon="5.9191">
        <ele>1044.49432355</ele>
        <time>2016-02-15T14:19:08Z</time>
      </trkpt>
      <trkpt lat="45.35592" lon="5.9191">
        <ele>1044.49432355</ele>
        <time>2016-02-15T14:19:13Z</time>
      </trkpt>
      <trkpt lat="45.35592" lon="5.9191">
        <ele>1044.49432355</ele>
        <time>2016-02-15T14:19:24Z</time>
      </trkpt>
      <trkpt lat="45.35592" lon="5.9191">
        <ele>1044.49432355</ele>
        <time>2016-02-15T14:19:28Z</time>
      </trkpt>
      <trkpt lat="45.35592" lon="5.9191">
        <ele>1044.49432355</ele>
        <time>2016-02-15T14:19:38Z</time>
      </trkpt>
      <trkpt lat="45.35592" lon="5.9191">
        <ele>1044.49432355</ele>
        <time>2016-02-15T14:19:43Z</time>
      </trkpt>
      <trkpt lat="45.35592" lon="5.9191">
        <ele>1044.49432355</ele>
        <time>2016-02-15T14:19:54Z</time>
      </trkpt>
      <trkpt lat="45.35592" lon="5.9191">
        <ele>1044.49432355</ele>
        <time>2016-02-15T14:19:58Z</time>
      </trkpt>
      <trkpt lat="45.35592" lon="5.9191">
        <ele>1044.49432355</ele>
        <time>2016-02-15T14:20:02Z</time>
      </trkpt>
      <trkpt lat="45.35592" lon="5.9191">
        <ele>1044.49432355</ele>
        <time>2016-02-15T14:20:08Z</time>
      </trkpt>
      <trkpt lat="45.35592" lon="5.9191">
        <ele>1044.49432355</ele>
        <time>2016-02-15T14:20:12Z</time>
      </trkpt>
      <trkpt lat="45.35592" lon="5.9191">
        <ele>1044.49432355</ele>
        <time>2016-02-15T14:20:18Z</time>
      </trkpt>
      <trkpt lat="45.35592" lon="5.9191">
        <ele>1044.49432355</ele>
        <time>2016-02-15T14:20:27Z</time>
      </trkpt>
      <trkpt lat="45.35592" lon="5.9191">
        <ele>1044.49432355</ele>
        <time>2016-02-15T14:20:33Z</time>
      </trkpt>
      <trkpt lat="45.35591" lon="5.91911">
        <ele>1044.49432355</ele>
        <time>2016-02-15T14:20:42Z</time>
      </trkpt>
      <trkpt lat="45.35589" lon="5.91913">
        <ele>1044.49432355</ele>
        <time>2016-02-15T14:20:48Z</time>
      </trkpt>
      <trkpt lat="45.3559" lon="5.91912">
        <ele>1044.49432355</ele>
        <time>2016-02-15T14:20:58Z</time>
      </trkpt>
      <trkpt lat="45.35586" lon="5.91911">
        <ele>1045.524939341</ele>
        <time>2016-02-15T14:21:02Z</time>
      </trkpt>
      <trkpt lat="45.35575" lon="5.919">
        <ele>1046.525541302</ele>
        <time>2016-02-15T14:21:12Z</time>
      </trkpt>
      <trkpt lat="45.35575" lon="5.91901">
        <ele>1046.525541302</ele>
        <time>2016-02-15T14:21:17Z</time>
      </trkpt>
      <trkpt lat="45.35578" lon="5.91903">
        <ele>1046.525541302</ele>
        <time>2016-02-15T14:21:22Z</time>
      </trkpt>
    </trkseg>
  </trk>
</gpx>